GFSCGP_prec_pwat_000.txt.gz
Precipitable_Water
0.25 0.24 0.22 0.23 0.23 0.23 0.21 0.17 0.19 0.26 0.30 0.26 0.23 0.26 0.28 0.30 0.30 0.28 0.27 0.29 0.34 0.36 0.42 0.44 0.46 0.51 0.53 0.55 0.56 0.56 0.55 0.57 0.60 0.59 0.59 0.59 0.58 0.60 0.61 0.63 0.68 0.74 0.72 0.69
0.23 0.19 0.28 0.26 0.25 0.24 0.22 0.18 0.20 0.22 0.28 0.29 0.26 0.23 0.26 0.27 0.29 0.30 0.31 0.29 0.35 0.38 0.41 0.44 0.49 0.53 0.55 0.57 0.56 0.59 0.60 0.62 0.63 0.62 0.62 0.61 0.61 0.61 0.61 0.62 0.63 0.66 0.70 0.68
0.17 0.22 0.27 0.23 0.22 0.21 0.22 0.18 0.19 0.22 0.28 0.33 0.29 0.22 0.24 0.29 0.32 0.34 0.36 0.37 0.40 0.41 0.44 0.46 0.49 0.53 0.56 0.56 0.58 0.60 0.63 0.64 0.65 0.65 0.63 0.62 0.62 0.61 0.60 0.60 0.60 0.62 0.64 0.67
0.20 0.28 0.24 0.20 0.24 0.24 0.18 0.26 0.27 0.27 0.26 0.21 0.32 0.19 0.27 0.30 0.31 0.34 0.36 0.38 0.41 0.45 0.47 0.49 0.51 0.53 0.56 0.58 0.61 0.62 0.65 0.66 0.67 0.68 0.66 0.63 0.59 0.57 0.60 0.61 0.61 0.62 0.64 0.65
0.23 0.23 0.26 0.26 0.27 0.31 0.24 0.30 0.28 0.29 0.29 0.29 0.29 0.26 0.29 0.33 0.31 0.33 0.38 0.42 0.45 0.48 0.49 0.51 0.53 0.57 0.59 0.62 0.64 0.68 0.69 0.70 0.72 0.74 0.72 0.67 0.62 0.61 0.63 0.64 0.62 0.61 0.62 0.62
0.30 0.34 0.32 0.33 0.37 0.35 0.35 0.30 0.29 0.34 0.31 0.21 0.28 0.27 0.29 0.33 0.36 0.38 0.43 0.45 0.46 0.49 0.54 0.59 0.63 0.64 0.66 0.70 0.72 0.73 0.74 0.75 0.77 0.76 0.74 0.68 0.61 0.58 0.61 0.63 0.63 0.63 0.64 0.64
0.32 0.32 0.37 0.40 0.32 0.34 0.34 0.27 0.18 0.17 0.20 0.20 0.32 0.26 0.28 0.38 0.42 0.43 0.45 0.49 0.54 0.58 0.61 0.62 0.63 0.67 0.69 0.72 0.73 0.75 0.76 0.75 0.77 0.76 0.69 0.63 0.59 0.58 0.59 0.59 0.60 0.60 0.61 0.62
0.27 0.23 0.35 0.40 0.35 0.33 0.35 0.31 0.22 0.15 0.18 0.21 0.30 0.25 0.30 0.43 0.49 0.49 0.52 0.55 0.60 0.63 0.65 0.64 0.67 0.71 0.72 0.72 0.73 0.75 0.75 0.70 0.69 0.67 0.64 0.61 0.58 0.57 0.57 0.57 0.56 0.55 0.58 0.58
0.30 0.28 0.42 0.41 0.43 0.42 0.35 0.29 0.39 0.30 0.32 0.26 0.28 0.34 0.37 0.44 0.49 0.52 0.54 0.57 0.59 0.61 0.64 0.65 0.68 0.70 0.70 0.71 0.73 0.74 0.71 0.68 0.64 0.61 0.58 0.56 0.54 0.53 0.51 0.51 0.51 0.50 0.51 0.53
0.40 0.28 0.40 0.41 0.45 0.47 0.41 0.44 0.32 0.35 0.23 0.22 0.28 0.29 0.31 0.39 0.44 0.50 0.54 0.55 0.57 0.60 0.64 0.63 0.65 0.68 0.71 0.71 0.72 0.70 0.70 0.65 0.63 0.55 0.55 0.52 0.51 0.50 0.48 0.46 0.45 0.47 0.50 0.54
0.45 0.38 0.32 0.40 0.39 0.38 0.37 0.38 0.41 0.41 0.37 0.27 0.26 0.28 0.43 0.43 0.51 0.51 0.55 0.58 0.59 0.61 0.62 0.63 0.65 0.69 0.71 0.70 0.68 0.66 0.64 0.62 0.54 0.53 0.52 0.50 0.48 0.46 0.44 0.43 0.45 0.48 0.51 0.55
0.46 0.38 0.30 0.34 0.47 0.50 0.46 0.42 0.42 0.33 0.30 0.34 0.34 0.29 0.46 0.51 0.49 0.54 0.54 0.58 0.63 0.63 0.64 0.66 0.66 0.66 0.64 0.62 0.62 0.61 0.60 0.55 0.53 0.52 0.48 0.46 0.45 0.44 0.43 0.44 0.46 0.48 0.46 0.47
0.45 0.33 0.23 0.25 0.38 0.42 0.36 0.37 0.40 0.41 0.39 0.31 0.28 0.28 0.46 0.50 0.53 0.56 0.57 0.60 0.62 0.63 0.64 0.64 0.63 0.60 0.60 0.58 0.57 0.56 0.56 0.52 0.52 0.51 0.45 0.42 0.41 0.40 0.41 0.42 0.45 0.45 0.43 0.41
0.47 0.34 0.29 0.23 0.29 0.39 0.32 0.32 0.37 0.39 0.31 0.32 0.31 0.35 0.42 0.49 0.50 0.54 0.58 0.61 0.61 0.62 0.61 0.61 0.59 0.58 0.59 0.58 0.55 0.53 0.50 0.53 0.50 0.46 0.41 0.37 0.37 0.38 0.40 0.42 0.43 0.43 0.43 0.42
0.45 0.32 0.36 0.36 0.40 0.42 0.37 0.36 0.39 0.37 0.35 0.32 0.33 0.35 0.40 0.47 0.51 0.54 0.58 0.60 0.59 0.60 0.61 0.60 0.57 0.56 0.58 0.53 0.51 0.50 0.50 0.49 0.46 0.42 0.39 0.38 0.40 0.44 0.44 0.44 0.45 0.50 0.47 0.40
0.43 0.30 0.38 0.29 0.39 0.42 0.35 0.38 0.38 0.38 0.37 0.36 0.35 0.34 0.49 0.56 0.59 0.57 0.58 0.56 0.55 0.57 0.59 0.57 0.57 0.54 0.52 0.48 0.48 0.47 0.47 0.46 0.47 0.46 0.48 0.49 0.48 0.49 0.50 0.52 0.50 0.46 0.43 0.40
0.38 0.35 0.35 0.28 0.39 0.40 0.29 0.33 0.33 0.35 0.36 0.36 0.31 0.40 0.52 0.51 0.55 0.57 0.57 0.55 0.57 0.59 0.57 0.53 0.53 0.54 0.50 0.46 0.47 0.45 0.44 0.46 0.45 0.47 0.50 0.53 0.54 0.52 0.48 0.46 0.44 0.42 0.38 0.35
0.36 0.38 0.41 0.35 0.38 0.25 0.33 0.40 0.39 0.36 0.38 0.40 0.43 0.47 0.51 0.54 0.55 0.56 0.61 0.59 0.60 0.59 0.51 0.51 0.56 0.52 0.51 0.51 0.46 0.45 0.44 0.43 0.44 0.44 0.46 0.49 0.49 0.47 0.42 0.38 0.35 0.35 0.32 0.26
0.52 0.46 0.39 0.32 0.32 0.34 0.35 0.37 0.37 0.36 0.35 0.46 0.46 0.47 0.49 0.51 0.52 0.51 0.58 0.63 0.63 0.57 0.56 0.54 0.55 0.54 0.50 0.45 0.45 0.46 0.43 0.43 0.45 0.36 0.36 0.37 0.39 0.39 0.36 0.34 0.30 0.27 0.23 0.19
0.51 0.51 0.41 0.36 0.29 0.24 0.32 0.41 0.47 0.51 0.30 0.49 0.50 0.47 0.48 0.52 0.39 0.46 0.61 0.64 0.57 0.57 0.57 0.53 0.50 0.50 0.46 0.44 0.44 0.42 0.39 0.38 0.37 0.36 0.35 0.37 0.36 0.32 0.29 0.27 0.24 0.21 0.20 0.19
0.39 0.41 0.35 0.34 0.31 0.34 0.40 0.45 0.54 0.32 0.32 0.51 0.50 0.51 0.52 0.49 0.55 0.61 0.65 0.58 0.55 0.53 0.50 0.50 0.47 0.41 0.43 0.46 0.43 0.38 0.34 0.34 0.38 0.39 0.36 0.33 0.30 0.27 0.24 0.22 0.21 0.20 0.19 0.19
0.37 0.37 0.35 0.36 0.32 0.27 0.50 0.51 0.42 0.49 0.56 0.55 0.51 0.53 0.57 0.59 0.60 0.59 0.57 0.51 0.51 0.45 0.45 0.42 0.38 0.40 0.42 0.40 0.37 0.34 0.34 0.38 0.36 0.34 0.31 0.27 0.24 0.23 0.22 0.21 0.20 0.19 0.20 0.19
0.39 0.44 0.38 0.38 0.36 0.48 0.55 0.53 0.56 0.59 0.55 0.53 0.57 0.62 0.61 0.57 0.55 0.54 0.49 0.46 0.42 0.43 0.41 0.39 0.39 0.38 0.38 0.37 0.35 0.31 0.33 0.34 0.32 0.28 0.23 0.22 0.22 0.22 0.21 0.20 0.20 0.20 0.20 0.18
0.53 0.56 0.44 0.46 0.45 0.49 0.53 0.54 0.56 0.59 0.59 0.63 0.63 0.61 0.58 0.52 0.53 0.47 0.47 0.44 0.41 0.38 0.35 0.37 0.38 0.38 0.37 0.38 0.34 0.33 0.34 0.33 0.26 0.21 0.20 0.21 0.21 0.20 0.21 0.22 0.22 0.21 0.19 0.18
0.55 0.57 0.51 0.47 0.51 0.52 0.54 0.56 0.59 0.63 0.65 0.59 0.60 0.59 0.57 0.49 0.41 0.42 0.42 0.39 0.34 0.33 0.35 0.39 0.39 0.42 0.37 0.34 0.32 0.33 0.31 0.26 0.22 0.20 0.20 0.21 0.21 0.20 0.21 0.22 0.22 0.21 0.22 0.22
0.59 0.51 0.46 0.40 0.54 0.53 0.50 0.61 0.62 0.57 0.55 0.60 0.57 0.53 0.48 0.43 0.41 0.43 0.38 0.34 0.31 0.32 0.37 0.38 0.37 0.32 0.32 0.31 0.30 0.30 0.26 0.24 0.22 0.21 0.21 0.21 0.21 0.22 0.22 0.22 0.22 0.25 0.24 0.23

GFSCGP_prec_pwat_003.txt.gz
Precipitable_Water
0.26 0.22 0.20 0.22 0.23 0.22 0.21 0.20 0.17 0.24 0.28 0.25 0.24 0.25 0.25 0.29 0.30 0.30 0.29 0.30 0.33 0.38 0.43 0.46 0.47 0.52 0.57 0.60 0.59 0.58 0.57 0.61 0.62 0.62 0.61 0.59 0.59 0.60 0.60 0.61 0.63 0.65 0.67 0.69
0.21 0.18 0.25 0.25 0.23 0.22 0.22 0.20 0.16 0.19 0.27 0.28 0.27 0.23 0.25 0.28 0.29 0.30 0.31 0.34 0.35 0.39 0.43 0.45 0.49 0.53 0.56 0.58 0.58 0.57 0.60 0.63 0.65 0.65 0.65 0.65 0.64 0.63 0.62 0.62 0.62 0.64 0.65 0.66
0.17 0.21 0.26 0.23 0.22 0.21 0.20 0.18 0.20 0.22 0.28 0.33 0.29 0.22 0.25 0.30 0.32 0.34 0.36 0.38 0.41 0.42 0.45 0.48 0.50 0.53 0.57 0.58 0.59 0.62 0.63 0.64 0.66 0.68 0.69 0.69 0.68 0.67 0.63 0.62 0.60 0.62 0.65 0.66
0.22 0.26 0.25 0.25 0.24 0.27 0.19 0.26 0.26 0.25 0.25 0.20 0.30 0.18 0.29 0.30 0.32 0.36 0.37 0.39 0.41 0.45 0.47 0.49 0.52 0.55 0.59 0.62 0.65 0.65 0.66 0.68 0.69 0.70 0.69 0.67 0.65 0.62 0.63 0.61 0.59 0.60 0.65 0.65
0.24 0.24 0.26 0.26 0.29 0.31 0.24 0.30 0.28 0.28 0.29 0.28 0.27 0.23 0.27 0.34 0.31 0.34 0.38 0.42 0.45 0.47 0.49 0.52 0.56 0.61 0.64 0.63 0.65 0.70 0.72 0.73 0.74 0.75 0.73 0.70 0.67 0.62 0.60 0.57 0.55 0.56 0.60 0.63
0.32 0.36 0.35 0.34 0.36 0.36 0.35 0.29 0.29 0.33 0.30 0.20 0.27 0.26 0.25 0.31 0.34 0.37 0.42 0.45 0.48 0.52 0.55 0.59 0.64 0.67 0.68 0.72 0.73 0.73 0.74 0.72 0.73 0.74 0.72 0.67 0.63 0.58 0.54 0.53 0.52 0.53 0.55 0.57
0.33 0.35 0.40 0.42 0.33 0.37 0.34 0.24 0.17 0.17 0.18 0.17 0.30 0.25 0.28 0.38 0.42 0.44 0.46 0.50 0.54 0.57 0.59 0.60 0.62 0.67 0.70 0.70 0.70 0.70 0.69 0.67 0.68 0.67 0.64 0.61 0.58 0.56 0.53 0.50 0.50 0.50 0.50 0.50
0.25 0.22 0.37 0.43 0.36 0.33 0.33 0.29 0.20 0.14 0.16 0.19 0.29 0.25 0.31 0.43 0.49 0.49 0.55 0.56 0.57 0.60 0.64 0.65 0.68 0.68 0.69 0.69 0.68 0.67 0.67 0.65 0.65 0.61 0.55 0.54 0.53 0.51 0.50 0.50 0.47 0.45 0.45 0.45
0.28 0.26 0.43 0.44 0.43 0.42 0.34 0.29 0.38 0.28 0.31 0.24 0.26 0.34 0.40 0.45 0.48 0.51 0.52 0.55 0.57 0.61 0.65 0.66 0.67 0.67 0.68 0.66 0.66 0.65 0.62 0.60 0.58 0.54 0.52 0.51 0.50 0.45 0.43 0.44 0.44 0.42 0.44 0.46
0.40 0.28 0.39 0.41 0.47 0.46 0.40 0.43 0.30 0.32 0.21 0.18 0.23 0.25 0.27 0.38 0.44 0.46 0.49 0.53 0.56 0.61 0.62 0.64 0.65 0.68 0.67 0.66 0.65 0.64 0.63 0.60 0.58 0.54 0.51 0.48 0.43 0.40 0.40 0.41 0.41 0.43 0.46 0.49
0.42 0.36 0.31 0.39 0.36 0.34 0.36 0.34 0.37 0.36 0.33 0.22 0.21 0.24 0.41 0.40 0.44 0.47 0.51 0.55 0.58 0.60 0.62 0.65 0.67 0.69 0.68 0.66 0.63 0.61 0.61 0.59 0.53 0.51 0.49 0.44 0.40 0.38 0.39 0.40 0.41 0.43 0.46 0.46
0.42 0.33 0.23 0.29 0.40 0.44 0.41 0.37 0.37 0.28 0.26 0.29 0.28 0.25 0.45 0.48 0.50 0.53 0.55 0.58 0.60 0.61 0.62 0.64 0.67 0.69 0.66 0.65 0.64 0.59 0.57 0.53 0.49 0.49 0.47 0.43 0.39 0.36 0.36 0.36 0.39 0.42 0.42 0.46
0.40 0.29 0.20 0.26 0.37 0.40 0.35 0.37 0.39 0.39 0.38 0.30 0.26 0.26 0.45 0.47 0.49 0.52 0.54 0.56 0.58 0.58 0.59 0.62 0.64 0.63 0.63 0.64 0.63 0.55 0.54 0.49 0.50 0.48 0.44 0.40 0.36 0.34 0.36 0.38 0.40 0.41 0.43 0.43
0.45 0.33 0.27 0.21 0.26 0.33 0.29 0.35 0.40 0.39 0.31 0.32 0.31 0.32 0.38 0.42 0.43 0.48 0.53 0.57 0.59 0.60 0.60 0.62 0.64 0.60 0.61 0.61 0.56 0.50 0.47 0.48 0.47 0.45 0.41 0.39 0.36 0.35 0.38 0.40 0.42 0.45 0.47 0.45
0.42 0.28 0.30 0.33 0.37 0.38 0.35 0.35 0.36 0.35 0.35 0.31 0.30 0.31 0.34 0.40 0.47 0.52 0.56 0.58 0.57 0.55 0.56 0.59 0.62 0.58 0.58 0.58 0.52 0.49 0.48 0.48 0.46 0.43 0.42 0.41 0.41 0.40 0.42 0.46 0.47 0.48 0.48 0.45
0.42 0.27 0.32 0.26 0.34 0.36 0.33 0.36 0.38 0.35 0.34 0.34 0.34 0.31 0.42 0.49 0.54 0.54 0.54 0.55 0.54 0.55 0.56 0.58 0.55 0.53 0.54 0.52 0.51 0.54 0.51 0.46 0.45 0.43 0.42 0.46 0.49 0.49 0.49 0.48 0.48 0.47 0.47 0.47
0.39 0.35 0.34 0.26 0.36 0.39 0.28 0.34 0.35 0.36 0.37 0.36 0.30 0.37 0.45 0.46 0.48 0.48 0.48 0.51 0.51 0.52 0.57 0.56 0.53 0.52 0.52 0.50 0.54 0.49 0.45 0.45 0.43 0.44 0.45 0.47 0.49 0.47 0.48 0.48 0.46 0.44 0.39 0.36
0.35 0.37 0.39 0.31 0.37 0.25 0.33 0.42 0.40 0.36 0.37 0.39 0.42 0.44 0.47 0.49 0.50 0.54 0.58 0.55 0.56 0.57 0.54 0.51 0.51 0.53 0.52 0.53 0.50 0.45 0.46 0.45 0.47 0.44 0.41 0.40 0.39 0.38 0.39 0.38 0.35 0.33 0.31 0.29
0.47 0.42 0.36 0.31 0.32 0.35 0.37 0.38 0.36 0.35 0.35 0.43 0.45 0.47 0.52 0.54 0.55 0.51 0.58 0.63 0.59 0.57 0.55 0.53 0.55 0.52 0.51 0.45 0.42 0.40 0.39 0.39 0.40 0.38 0.39 0.39 0.36 0.32 0.31 0.30 0.28 0.27 0.25 0.23
0.50 0.52 0.43 0.37 0.30 0.24 0.34 0.42 0.47 0.49 0.31 0.52 0.52 0.52 0.52 0.53 0.41 0.46 0.63 0.63 0.59 0.56 0.53 0.52 0.51 0.46 0.43 0.43 0.42 0.40 0.38 0.37 0.36 0.37 0.36 0.34 0.32 0.30 0.26 0.24 0.22 0.22 0.22 0.22
0.39 0.42 0.37 0.35 0.32 0.35 0.42 0.47 0.52 0.32 0.36 0.53 0.55 0.54 0.53 0.50 0.54 0.60 0.63 0.59 0.57 0.49 0.48 0.49 0.43 0.37 0.38 0.40 0.40 0.35 0.29 0.31 0.35 0.35 0.32 0.29 0.26 0.23 0.22 0.21 0.22 0.21 0.20 0.20
0.39 0.37 0.35 0.37 0.33 0.28 0.50 0.51 0.41 0.49 0.56 0.56 0.56 0.56 0.56 0.59 0.58 0.55 0.54 0.50 0.46 0.48 0.46 0.40 0.34 0.35 0.38 0.39 0.38 0.31 0.29 0.33 0.34 0.32 0.28 0.23 0.22 0.22 0.21 0.20 0.20 0.20 0.20 0.19
0.40 0.44 0.40 0.42 0.39 0.51 0.55 0.54 0.58 0.61 0.57 0.56 0.59 0.62 0.62 0.56 0.52 0.51 0.46 0.44 0.45 0.44 0.38 0.35 0.34 0.34 0.37 0.39 0.37 0.33 0.32 0.32 0.31 0.27 0.22 0.20 0.21 0.21 0.21 0.20 0.19 0.20 0.20 0.19
0.55 0.57 0.48 0.49 0.51 0.50 0.57 0.60 0.62 0.63 0.60 0.65 0.64 0.59 0.56 0.48 0.49 0.43 0.41 0.43 0.44 0.37 0.32 0.33 0.34 0.34 0.37 0.41 0.35 0.32 0.32 0.32 0.27 0.23 0.21 0.21 0.20 0.19 0.20 0.20 0.21 0.21 0.20 0.20
0.55 0.57 0.54 0.49 0.55 0.55 0.57 0.60 0.67 0.67 0.68 0.62 0.60 0.56 0.51 0.45 0.39 0.38 0.36 0.39 0.39 0.34 0.33 0.36 0.35 0.32 0.30 0.31 0.28 0.29 0.30 0.29 0.24 0.22 0.21 0.21 0.21 0.21 0.21 0.21 0.23 0.24 0.24 0.23
0.55 0.50 0.48 0.44 0.54 0.54 0.55 0.65 0.68 0.61 0.57 0.55 0.50 0.44 0.41 0.38 0.32 0.32 0.34 0.37 0.34 0.34 0.33 0.34 0.32 0.30 0.30 0.31 0.31 0.30 0.29 0.28 0.23 0.20 0.22 0.23 0.22 0.22 0.24 0.23 0.24 0.26 0.24 0.23

GFSCGP_prec_pwat_006.txt.gz
Precipitable_Water
0.26 0.21 0.19 0.22 0.21 0.21 0.21 0.19 0.18 0.19 0.26 0.24 0.25 0.26 0.25 0.28 0.31 0.31 0.31 0.32 0.34 0.38 0.44 0.46 0.48 0.51 0.54 0.60 0.65 0.64 0.62 0.64 0.65 0.66 0.65 0.65 0.63 0.64 0.65 0.66 0.64 0.65 0.65 0.67
0.19 0.17 0.24 0.26 0.23 0.21 0.21 0.19 0.17 0.21 0.26 0.27 0.27 0.25 0.27 0.29 0.30 0.31 0.32 0.34 0.36 0.38 0.41 0.44 0.47 0.51 0.56 0.60 0.62 0.62 0.62 0.65 0.66 0.67 0.66 0.67 0.67 0.67 0.68 0.70 0.68 0.65 0.63 0.62
0.16 0.21 0.25 0.23 0.23 0.22 0.22 0.19 0.21 0.21 0.26 0.31 0.28 0.23 0.26 0.29 0.32 0.35 0.37 0.38 0.39 0.40 0.41 0.46 0.50 0.54 0.59 0.61 0.64 0.66 0.66 0.65 0.66 0.67 0.68 0.69 0.70 0.70 0.68 0.68 0.66 0.64 0.61 0.59
0.23 0.25 0.25 0.25 0.24 0.27 0.20 0.27 0.26 0.24 0.23 0.19 0.30 0.17 0.27 0.29 0.31 0.35 0.37 0.39 0.40 0.43 0.47 0.51 0.55 0.58 0.60 0.63 0.66 0.68 0.68 0.69 0.70 0.71 0.69 0.66 0.64 0.62 0.63 0.63 0.62 0.60 0.59 0.57
0.23 0.26 0.28 0.26 0.28 0.32 0.24 0.30 0.26 0.26 0.24 0.25 0.26 0.21 0.26 0.33 0.30 0.33 0.38 0.41 0.43 0.47 0.51 0.54 0.58 0.61 0.65 0.66 0.68 0.71 0.72 0.71 0.70 0.70 0.70 0.66 0.61 0.61 0.61 0.58 0.54 0.52 0.52 0.54
0.32 0.38 0.36 0.36 0.36 0.36 0.34 0.28 0.27 0.30 0.28 0.18 0.26 0.25 0.23 0.28 0.33 0.36 0.40 0.43 0.47 0.51 0.55 0.59 0.64 0.68 0.69 0.71 0.72 0.73 0.71 0.69 0.69 0.69 0.67 0.64 0.60 0.55 0.51 0.48 0.46 0.45 0.45 0.44
0.31 0.33 0.40 0.42 0.33 0.37 0.33 0.23 0.16 0.16 0.17 0.16 0.27 0.23 0.25 0.35 0.40 0.40 0.41 0.47 0.52 0.55 0.56 0.59 0.63 0.66 0.70 0.70 0.71 0.72 0.71 0.68 0.70 0.68 0.63 0.59 0.55 0.53 0.47 0.42 0.38 0.37 0.38 0.37
0.24 0.22 0.36 0.42 0.35 0.33 0.32 0.29 0.19 0.13 0.14 0.17 0.28 0.21 0.29 0.43 0.45 0.47 0.51 0.53 0.56 0.58 0.62 0.65 0.68 0.69 0.68 0.69 0.70 0.71 0.70 0.69 0.68 0.63 0.58 0.56 0.55 0.51 0.45 0.39 0.37 0.37 0.38 0.38
0.27 0.27 0.43 0.43 0.45 0.42 0.34 0.29 0.38 0.27 0.28 0.21 0.22 0.29 0.39 0.45 0.45 0.48 0.50 0.54 0.55 0.58 0.61 0.64 0.67 0.68 0.69 0.70 0.71 0.69 0.66 0.65 0.64 0.62 0.58 0.56 0.52 0.45 0.40 0.40 0.38 0.38 0.41 0.45
0.37 0.26 0.38 0.42 0.47 0.45 0.39 0.42 0.27 0.28 0.17 0.14 0.20 0.21 0.23 0.36 0.40 0.46 0.49 0.51 0.55 0.59 0.61 0.64 0.66 0.67 0.69 0.69 0.69 0.69 0.68 0.64 0.62 0.58 0.54 0.49 0.47 0.46 0.42 0.39 0.36 0.40 0.44 0.47
0.38 0.31 0.27 0.35 0.34 0.33 0.35 0.33 0.34 0.33 0.30 0.21 0.20 0.23 0.40 0.40 0.43 0.44 0.48 0.53 0.55 0.58 0.60 0.62 0.64 0.67 0.69 0.70 0.69 0.67 0.63 0.57 0.52 0.50 0.50 0.51 0.48 0.43 0.38 0.36 0.37 0.40 0.44 0.44
0.39 0.30 0.20 0.23 0.38 0.45 0.41 0.36 0.34 0.23 0.23 0.29 0.28 0.24 0.42 0.45 0.47 0.48 0.50 0.53 0.56 0.60 0.61 0.62 0.64 0.67 0.70 0.66 0.65 0.63 0.57 0.54 0.50 0.52 0.53 0.50 0.46 0.40 0.37 0.36 0.38 0.41 0.39 0.39
0.37 0.26 0.17 0.19 0.32 0.40 0.35 0.38 0.37 0.37 0.37 0.29 0.25 0.25 0.43 0.46 0.46 0.48 0.48 0.54 0.58 0.59 0.59 0.61 0.62 0.64 0.66 0.64 0.64 0.64 0.58 0.54 0.56 0.56 0.51 0.45 0.40 0.37 0.38 0.37 0.39 0.41 0.42 0.43
0.41 0.30 0.24 0.17 0.21 0.28 0.27 0.31 0.36 0.36 0.30 0.31 0.30 0.31 0.35 0.40 0.41 0.45 0.48 0.54 0.56 0.55 0.54 0.54 0.57 0.61 0.61 0.60 0.60 0.57 0.53 0.57 0.55 0.53 0.46 0.41 0.40 0.38 0.40 0.43 0.43 0.45 0.46 0.47
0.41 0.27 0.29 0.29 0.30 0.30 0.28 0.29 0.34 0.35 0.36 0.32 0.30 0.32 0.36 0.41 0.43 0.48 0.52 0.53 0.51 0.53 0.54 0.55 0.58 0.57 0.56 0.57 0.56 0.53 0.54 0.51 0.51 0.46 0.44 0.43 0.45 0.46 0.45 0.44 0.45 0.45 0.47 0.49
0.40 0.26 0.31 0.25 0.32 0.34 0.29 0.33 0.37 0.37 0.37 0.36 0.36 0.33 0.42 0.45 0.53 0.52 0.50 0.52 0.53 0.55 0.57 0.59 0.56 0.54 0.53 0.50 0.48 0.50 0.50 0.50 0.47 0.44 0.45 0.47 0.46 0.46 0.47 0.45 0.44 0.44 0.44 0.44
0.37 0.34 0.30 0.22 0.31 0.33 0.24 0.31 0.35 0.36 0.38 0.35 0.29 0.34 0.43 0.46 0.50 0.51 0.50 0.53 0.54 0.55 0.56 0.57 0.55 0.48 0.46 0.49 0.50 0.48 0.44 0.44 0.44 0.42 0.39 0.40 0.39 0.38 0.38 0.39 0.39 0.37 0.34 0.32
0.37 0.37 0.36 0.29 0.34 0.23 0.33 0.42 0.42 0.38 0.38 0.39 0.39 0.42 0.48 0.51 0.54 0.56 0.58 0.55 0.55 0.57 0.55 0.52 0.46 0.48 0.50 0.51 0.46 0.42 0.41 0.40 0.38 0.36 0.37 0.37 0.37 0.32 0.32 0.30 0.28 0.26 0.25 0.23
0.46 0.40 0.33 0.29 0.30 0.35 0.36 0.39 0.38 0.36 0.35 0.43 0.43 0.49 0.52 0.55 0.55 0.52 0.59 0.61 0.61 0.59 0.52 0.47 0.50 0.52 0.49 0.42 0.40 0.38 0.38 0.36 0.36 0.35 0.34 0.33 0.30 0.28 0.26 0.22 0.21 0.21 0.21 0.21
0.48 0.48 0.40 0.36 0.30 0.25 0.34 0.43 0.49 0.49 0.31 0.51 0.53 0.53 0.53 0.54 0.39 0.46 0.61 0.62 0.58 0.49 0.47 0.47 0.50 0.45 0.39 0.38 0.41 0.38 0.37 0.33 0.32 0.34 0.33 0.32 0.29 0.24 0.20 0.20 0.20 0.21 0.21 0.21
0.36 0.39 0.35 0.36 0.33 0.36 0.43 0.48 0.53 0.33 0.36 0.55 0.58 0.56 0.54 0.51 0.54 0.59 0.60 0.54 0.47 0.44 0.45 0.49 0.43 0.37 0.35 0.39 0.38 0.34 0.34 0.31 0.34 0.34 0.32 0.29 0.24 0.21 0.20 0.20 0.20 0.20 0.20 0.19
0.35 0.34 0.33 0.36 0.33 0.28 0.51 0.53 0.45 0.50 0.57 0.58 0.60 0.59 0.59 0.61 0.59 0.55 0.51 0.44 0.39 0.39 0.43 0.43 0.37 0.32 0.35 0.38 0.35 0.34 0.36 0.36 0.34 0.32 0.29 0.24 0.23 0.21 0.20 0.19 0.19 0.19 0.19 0.19
0.37 0.42 0.39 0.42 0.40 0.51 0.55 0.59 0.61 0.61 0.59 0.59 0.60 0.63 0.61 0.56 0.55 0.46 0.38 0.36 0.35 0.38 0.41 0.39 0.33 0.30 0.33 0.35 0.35 0.31 0.31 0.33 0.32 0.30 0.26 0.23 0.21 0.21 0.20 0.19 0.19 0.19 0.21 0.21
0.50 0.57 0.48 0.47 0.47 0.51 0.60 0.63 0.65 0.67 0.64 0.64 0.63 0.62 0.58 0.50 0.45 0.39 0.35 0.33 0.32 0.35 0.35 0.34 0.33 0.30 0.29 0.30 0.31 0.32 0.32 0.32 0.31 0.27 0.24 0.21 0.21 0.22 0.21 0.21 0.22 0.23 0.23 0.21
0.53 0.54 0.48 0.46 0.50 0.54 0.59 0.63 0.64 0.65 0.62 0.60 0.60 0.55 0.47 0.41 0.36 0.33 0.33 0.31 0.31 0.33 0.32 0.31 0.31 0.31 0.29 0.32 0.33 0.34 0.32 0.32 0.29 0.26 0.23 0.21 0.23 0.23 0.22 0.23 0.24 0.25 0.24 0.23
0.56 0.50 0.44 0.38 0.55 0.59 0.59 0.64 0.65 0.57 0.52 0.51 0.43 0.38 0.36 0.35 0.33 0.33 0.30 0.29 0.29 0.29 0.31 0.30 0.31 0.32 0.33 0.35 0.33 0.34 0.32 0.31 0.27 0.23 0.22 0.22 0.22 0.23 0.23 0.23 0.24 0.26 0.24 0.24

GFSCGP_prec_pwat_009.txt.gz
Precipitable_Water
0.24 0.19 0.18 0.21 0.21 0.20 0.20 0.19 0.18 0.20 0.25 0.23 0.23 0.25 0.25 0.29 0.30 0.30 0.30 0.30 0.33 0.39 0.45 0.46 0.48 0.50 0.53 0.59 0.66 0.70 0.67 0.69 0.71 0.69 0.64 0.64 0.64 0.65 0.66 0.68 0.69 0.70 0.71 0.69
0.19 0.16 0.22 0.25 0.22 0.21 0.21 0.19 0.18 0.22 0.26 0.25 0.26 0.24 0.27 0.29 0.31 0.33 0.33 0.34 0.37 0.39 0.41 0.44 0.48 0.53 0.58 0.62 0.66 0.66 0.65 0.66 0.65 0.66 0.66 0.66 0.66 0.67 0.68 0.70 0.70 0.68 0.66 0.64
0.16 0.19 0.25 0.24 0.24 0.22 0.23 0.19 0.20 0.20 0.25 0.28 0.27 0.24 0.27 0.30 0.33 0.36 0.38 0.39 0.40 0.41 0.42 0.45 0.50 0.57 0.61 0.63 0.65 0.66 0.67 0.68 0.70 0.71 0.71 0.71 0.70 0.69 0.68 0.67 0.65 0.64 0.63 0.59
0.21 0.26 0.26 0.25 0.24 0.26 0.18 0.27 0.26 0.24 0.22 0.17 0.30 0.17 0.26 0.29 0.30 0.35 0.38 0.40 0.42 0.44 0.47 0.51 0.56 0.60 0.63 0.66 0.71 0.73 0.74 0.73 0.74 0.75 0.71 0.68 0.64 0.61 0.63 0.62 0.60 0.56 0.55 0.54
0.22 0.27 0.28 0.26 0.28 0.32 0.25 0.31 0.27 0.26 0.23 0.24 0.26 0.20 0.25 0.32 0.30 0.33 0.38 0.40 0.44 0.47 0.52 0.56 0.61 0.65 0.68 0.71 0.72 0.73 0.74 0.74 0.75 0.75 0.72 0.69 0.66 0.66 0.64 0.60 0.54 0.51 0.49 0.45
0.30 0.38 0.35 0.34 0.35 0.35 0.36 0.29 0.28 0.29 0.27 0.18 0.25 0.23 0.23 0.28 0.32 0.35 0.38 0.42 0.47 0.52 0.55 0.60 0.66 0.69 0.69 0.72 0.73 0.75 0.74 0.73 0.75 0.73 0.71 0.69 0.66 0.64 0.59 0.56 0.51 0.45 0.42 0.41
0.29 0.31 0.39 0.41 0.30 0.37 0.33 0.24 0.16 0.15 0.16 0.15 0.26 0.22 0.25 0.36 0.38 0.40 0.41 0.47 0.53 0.57 0.58 0.60 0.63 0.65 0.69 0.71 0.72 0.74 0.73 0.70 0.73 0.73 0.71 0.68 0.64 0.61 0.54 0.49 0.42 0.40 0.38 0.39
0.23 0.21 0.35 0.42 0.36 0.32 0.32 0.29 0.19 0.12 0.14 0.17 0.26 0.20 0.27 0.41 0.46 0.49 0.52 0.53 0.56 0.60 0.63 0.65 0.66 0.68 0.70 0.71 0.72 0.73 0.71 0.69 0.70 0.67 0.64 0.63 0.61 0.55 0.49 0.45 0.44 0.42 0.40 0.40
0.25 0.25 0.41 0.43 0.44 0.41 0.33 0.27 0.35 0.25 0.26 0.20 0.21 0.29 0.39 0.43 0.44 0.47 0.49 0.54 0.56 0.60 0.62 0.63 0.66 0.67 0.69 0.71 0.72 0.72 0.72 0.68 0.64 0.61 0.57 0.52 0.53 0.51 0.47 0.48 0.45 0.39 0.40 0.43
0.34 0.25 0.36 0.40 0.44 0.43 0.37 0.40 0.25 0.26 0.15 0.14 0.19 0.22 0.23 0.34 0.39 0.45 0.48 0.51 0.53 0.57 0.58 0.60 0.62 0.64 0.68 0.71 0.72 0.72 0.71 0.65 0.63 0.61 0.57 0.57 0.55 0.52 0.50 0.41 0.39 0.40 0.43 0.48
0.34 0.29 0.26 0.33 0.33 0.31 0.34 0.32 0.33 0.31 0.29 0.19 0.18 0.20 0.35 0.36 0.41 0.43 0.48 0.51 0.52 0.54 0.57 0.59 0.62 0.64 0.66 0.68 0.68 0.67 0.68 0.68 0.64 0.59 0.59 0.57 0.54 0.48 0.41 0.40 0.40 0.41 0.45 0.46
0.35 0.27 0.18 0.22 0.38 0.44 0.40 0.34 0.33 0.23 0.20 0.25 0.24 0.21 0.38 0.43 0.45 0.49 0.49 0.51 0.55 0.57 0.58 0.60 0.59 0.60 0.63 0.63 0.62 0.63 0.65 0.62 0.58 0.57 0.55 0.52 0.46 0.43 0.38 0.37 0.39 0.42 0.41 0.41
0.35 0.24 0.15 0.18 0.31 0.37 0.31 0.33 0.33 0.33 0.33 0.24 0.23 0.24 0.41 0.44 0.44 0.48 0.48 0.52 0.56 0.57 0.57 0.58 0.59 0.61 0.62 0.61 0.62 0.60 0.58 0.56 0.55 0.54 0.51 0.46 0.42 0.40 0.41 0.42 0.45 0.46 0.46 0.46
0.42 0.29 0.22 0.16 0.19 0.27 0.24 0.29 0.34 0.34 0.28 0.29 0.28 0.30 0.35 0.39 0.43 0.47 0.50 0.56 0.56 0.56 0.58 0.60 0.61 0.60 0.58 0.57 0.57 0.54 0.51 0.49 0.47 0.46 0.42 0.41 0.43 0.45 0.46 0.46 0.46 0.46 0.47 0.46
0.37 0.23 0.27 0.28 0.29 0.30 0.29 0.29 0.31 0.31 0.34 0.31 0.31 0.33 0.35 0.41 0.45 0.47 0.53 0.54 0.54 0.56 0.59 0.60 0.59 0.57 0.54 0.50 0.47 0.46 0.47 0.48 0.47 0.45 0.45 0.45 0.45 0.49 0.46 0.42 0.41 0.42 0.43 0.42
0.39 0.25 0.29 0.26 0.32 0.32 0.28 0.30 0.35 0.37 0.38 0.38 0.38 0.35 0.44 0.47 0.50 0.53 0.54 0.54 0.54 0.57 0.59 0.59 0.55 0.51 0.45 0.46 0.46 0.47 0.45 0.43 0.45 0.45 0.40 0.39 0.39 0.38 0.36 0.36 0.35 0.36 0.34 0.31
0.36 0.32 0.29 0.22 0.31 0.31 0.23 0.30 0.34 0.37 0.39 0.38 0.32 0.37 0.45 0.46 0.51 0.53 0.54 0.56 0.56 0.56 0.58 0.57 0.50 0.42 0.45 0.50 0.48 0.41 0.38 0.40 0.40 0.37 0.36 0.34 0.34 0.32 0.30 0.29 0.26 0.23 0.22 0.22
0.36 0.36 0.35 0.28 0.31 0.20 0.30 0.41 0.42 0.39 0.40 0.42 0.42 0.45 0.50 0.52 0.56 0.58 0.61 0.58 0.58 0.58 0.56 0.47 0.43 0.45 0.50 0.45 0.38 0.35 0.36 0.37 0.36 0.33 0.34 0.36 0.33 0.30 0.28 0.24 0.21 0.20 0.21 0.21
0.44 0.39 0.32 0.28 0.28 0.32 0.34 0.38 0.38 0.37 0.36 0.45 0.47 0.50 0.53 0.57 0.59 0.56 0.61 0.63 0.59 0.56 0.47 0.44 0.46 0.48 0.44 0.38 0.35 0.32 0.32 0.34 0.33 0.31 0.34 0.33 0.30 0.28 0.23 0.21 0.20 0.20 0.19 0.19
0.44 0.45 0.37 0.34 0.28 0.23 0.33 0.43 0.50 0.49 0.32 0.52 0.54 0.52 0.54 0.55 0.42 0.49 0.60 0.61 0.55 0.45 0.42 0.42 0.44 0.44 0.38 0.33 0.33 0.31 0.31 0.33 0.33 0.33 0.33 0.32 0.30 0.24 0.22 0.21 0.19 0.19 0.19 0.19
0.32 0.36 0.33 0.33 0.31 0.33 0.43 0.48 0.53 0.33 0.37 0.58 0.58 0.58 0.55 0.50 0.51 0.56 0.59 0.52 0.47 0.43 0.41 0.42 0.44 0.38 0.35 0.33 0.32 0.29 0.29 0.28 0.34 0.33 0.33 0.32 0.27 0.25 0.21 0.21 0.21 0.19 0.19 0.21
0.31 0.32 0.32 0.34 0.30 0.26 0.50 0.51 0.41 0.50 0.61 0.59 0.60 0.59 0.56 0.56 0.56 0.54 0.49 0.45 0.41 0.36 0.34 0.37 0.37 0.34 0.34 0.36 0.32 0.25 0.26 0.31 0.34 0.34 0.33 0.30 0.26 0.22 0.22 0.22 0.21 0.20 0.22 0.23
0.32 0.40 0.38 0.41 0.38 0.50 0.53 0.54 0.60 0.65 0.62 0.62 0.59 0.59 0.57 0.53 0.46 0.43 0.39 0.37 0.34 0.32 0.31 0.32 0.33 0.31 0.32 0.36 0.32 0.26 0.28 0.35 0.34 0.32 0.31 0.28 0.24 0.23 0.23 0.22 0.21 0.22 0.24 0.23
0.44 0.54 0.46 0.46 0.49 0.50 0.53 0.61 0.65 0.66 0.63 0.61 0.60 0.55 0.48 0.41 0.37 0.32 0.31 0.30 0.31 0.31 0.29 0.30 0.30 0.28 0.29 0.34 0.33 0.34 0.35 0.35 0.33 0.31 0.29 0.25 0.24 0.23 0.24 0.24 0.24 0.24 0.24 0.22
0.47 0.56 0.49 0.48 0.50 0.52 0.54 0.62 0.65 0.65 0.63 0.56 0.48 0.43 0.38 0.35 0.31 0.30 0.30 0.31 0.30 0.29 0.29 0.29 0.27 0.28 0.30 0.33 0.34 0.37 0.36 0.36 0.31 0.29 0.25 0.24 0.24 0.23 0.23 0.24 0.24 0.25 0.25 0.24
0.57 0.52 0.47 0.42 0.53 0.53 0.57 0.61 0.65 0.59 0.50 0.45 0.41 0.36 0.31 0.28 0.27 0.31 0.29 0.28 0.28 0.26 0.26 0.24 0.24 0.27 0.28 0.32 0.32 0.31 0.33 0.33 0.29 0.23 0.22 0.23 0.23 0.23 0.23 0.22 0.23 0.26 0.25 0.25

GFSCGP_prec_pwat_012.txt.gz
Precipitable_Water
0.26 0.22 0.20 0.20 0.20 0.19 0.18 0.18 0.18 0.21 0.24 0.23 0.24 0.24 0.26 0.30 0.32 0.33 0.33 0.33 0.38 0.47 0.51 0.56 0.53 0.55 0.58 0.67 0.79 0.85 0.84 0.78 0.74 0.72 0.70 0.69 0.68 0.71 0.73 0.76 0.77 0.77 0.76 0.75
0.19 0.17 0.22 0.25 0.22 0.20 0.21 0.18 0.19 0.23 0.26 0.25 0.26 0.25 0.28 0.30 0.32 0.36 0.36 0.37 0.39 0.43 0.46 0.49 0.54 0.59 0.64 0.65 0.67 0.70 0.70 0.71 0.72 0.72 0.73 0.74 0.75 0.75 0.77 0.78 0.77 0.77 0.74 0.71
0.18 0.19 0.24 0.24 0.23 0.22 0.23 0.20 0.22 0.22 0.26 0.28 0.27 0.26 0.27 0.30 0.34 0.37 0.39 0.41 0.43 0.44 0.45 0.48 0.53 0.59 0.63 0.66 0.69 0.71 0.74 0.76 0.77 0.77 0.77 0.75 0.76 0.75 0.72 0.72 0.71 0.71 0.70 0.65
0.22 0.29 0.27 0.26 0.25 0.27 0.20 0.28 0.27 0.24 0.22 0.18 0.27 0.21 0.27 0.30 0.32 0.37 0.40 0.44 0.45 0.47 0.49 0.54 0.58 0.62 0.67 0.72 0.76 0.77 0.77 0.76 0.76 0.76 0.73 0.72 0.69 0.66 0.70 0.70 0.71 0.70 0.68 0.62
0.23 0.28 0.28 0.27 0.28 0.32 0.27 0.33 0.28 0.27 0.24 0.23 0.25 0.21 0.29 0.33 0.31 0.34 0.39 0.43 0.46 0.50 0.53 0.58 0.62 0.67 0.71 0.74 0.76 0.77 0.76 0.76 0.77 0.77 0.77 0.73 0.71 0.71 0.72 0.70 0.67 0.62 0.57 0.54
0.29 0.37 0.34 0.33 0.34 0.34 0.36 0.30 0.30 0.31 0.29 0.21 0.26 0.24 0.28 0.30 0.33 0.36 0.40 0.44 0.48 0.53 0.56 0.62 0.66 0.68 0.70 0.76 0.77 0.78 0.77 0.77 0.80 0.80 0.76 0.74 0.73 0.69 0.65 0.62 0.55 0.50 0.49 0.44
0.28 0.30 0.38 0.40 0.31 0.37 0.34 0.28 0.20 0.20 0.21 0.21 0.28 0.23 0.29 0.35 0.39 0.42 0.43 0.47 0.54 0.60 0.61 0.62 0.66 0.69 0.72 0.74 0.76 0.76 0.76 0.75 0.78 0.78 0.76 0.70 0.65 0.61 0.57 0.53 0.49 0.46 0.43 0.47
0.23 0.23 0.34 0.41 0.36 0.33 0.32 0.30 0.22 0.15 0.17 0.21 0.28 0.21 0.29 0.41 0.45 0.46 0.49 0.52 0.56 0.59 0.63 0.66 0.67 0.69 0.69 0.71 0.73 0.75 0.75 0.72 0.70 0.67 0.64 0.63 0.61 0.58 0.54 0.52 0.50 0.47 0.46 0.45
0.25 0.26 0.39 0.42 0.43 0.39 0.32 0.28 0.34 0.25 0.25 0.20 0.23 0.29 0.36 0.41 0.42 0.45 0.48 0.53 0.56 0.59 0.61 0.61 0.62 0.65 0.68 0.70 0.74 0.73 0.70 0.69 0.68 0.67 0.66 0.62 0.61 0.57 0.54 0.50 0.49 0.46 0.45 0.44
0.32 0.26 0.34 0.37 0.41 0.41 0.35 0.37 0.26 0.26 0.16 0.13 0.18 0.21 0.25 0.33 0.38 0.43 0.48 0.51 0.55 0.58 0.60 0.61 0.63 0.67 0.70 0.69 0.70 0.69 0.69 0.67 0.69 0.69 0.64 0.59 0.57 0.54 0.50 0.46 0.42 0.42 0.44 0.49
0.32 0.27 0.25 0.31 0.30 0.29 0.33 0.31 0.30 0.29 0.27 0.18 0.16 0.18 0.35 0.37 0.40 0.42 0.47 0.52 0.55 0.57 0.59 0.62 0.64 0.65 0.66 0.69 0.68 0.68 0.69 0.67 0.63 0.61 0.58 0.55 0.51 0.45 0.42 0.41 0.43 0.45 0.46 0.44
0.32 0.26 0.20 0.23 0.36 0.43 0.39 0.33 0.32 0.22 0.22 0.27 0.24 0.21 0.38 0.42 0.45 0.47 0.49 0.54 0.57 0.61 0.62 0.64 0.65 0.66 0.68 0.67 0.65 0.64 0.65 0.61 0.59 0.54 0.51 0.48 0.46 0.43 0.43 0.44 0.45 0.47 0.46 0.46
0.34 0.25 0.17 0.21 0.31 0.38 0.34 0.34 0.33 0.32 0.32 0.25 0.24 0.24 0.42 0.46 0.47 0.50 0.51 0.54 0.57 0.59 0.60 0.63 0.66 0.66 0.64 0.66 0.64 0.59 0.55 0.53 0.52 0.50 0.47 0.44 0.43 0.43 0.42 0.43 0.44 0.44 0.45 0.46
0.36 0.27 0.21 0.16 0.20 0.26 0.26 0.30 0.34 0.33 0.27 0.28 0.28 0.31 0.38 0.42 0.44 0.48 0.51 0.56 0.58 0.60 0.62 0.65 0.65 0.64 0.62 0.57 0.52 0.53 0.53 0.54 0.48 0.44 0.41 0.41 0.41 0.43 0.43 0.41 0.40 0.40 0.41 0.42
0.34 0.22 0.27 0.27 0.27 0.28 0.30 0.30 0.31 0.30 0.34 0.32 0.33 0.35 0.41 0.44 0.45 0.48 0.54 0.58 0.58 0.60 0.63 0.62 0.60 0.57 0.51 0.48 0.52 0.54 0.49 0.43 0.42 0.41 0.39 0.37 0.36 0.37 0.37 0.36 0.35 0.34 0.33 0.30
0.36 0.26 0.28 0.24 0.28 0.29 0.28 0.31 0.33 0.36 0.37 0.39 0.40 0.38 0.48 0.49 0.53 0.55 0.56 0.57 0.58 0.60 0.59 0.58 0.53 0.46 0.45 0.49 0.50 0.43 0.40 0.36 0.38 0.36 0.35 0.35 0.35 0.35 0.34 0.33 0.30 0.27 0.25 0.24
0.34 0.31 0.27 0.21 0.30 0.29 0.25 0.30 0.33 0.36 0.41 0.41 0.35 0.41 0.48 0.50 0.53 0.55 0.56 0.58 0.58 0.58 0.55 0.46 0.43 0.42 0.45 0.48 0.44 0.38 0.37 0.35 0.34 0.34 0.33 0.34 0.35 0.34 0.31 0.29 0.25 0.23 0.23 0.24
0.35 0.34 0.33 0.27 0.30 0.19 0.32 0.40 0.39 0.38 0.40 0.43 0.43 0.47 0.51 0.53 0.57 0.60 0.61 0.58 0.56 0.55 0.48 0.45 0.44 0.43 0.43 0.45 0.39 0.38 0.33 0.31 0.32 0.33 0.33 0.35 0.33 0.31 0.30 0.25 0.25 0.24 0.22 0.20
0.43 0.38 0.30 0.26 0.26 0.29 0.32 0.37 0.38 0.37 0.36 0.46 0.47 0.51 0.54 0.57 0.56 0.55 0.61 0.60 0.56 0.52 0.49 0.46 0.42 0.40 0.43 0.41 0.37 0.35 0.33 0.33 0.33 0.33 0.33 0.34 0.32 0.31 0.26 0.25 0.24 0.21 0.21 0.20
0.42 0.43 0.35 0.31 0.26 0.22 0.35 0.43 0.48 0.48 0.32 0.53 0.53 0.52 0.53 0.55 0.42 0.47 0.57 0.59 0.54 0.50 0.44 0.37 0.36 0.38 0.40 0.40 0.39 0.36 0.34 0.31 0.28 0.30 0.32 0.31 0.32 0.31 0.27 0.24 0.22 0.22 0.21 0.20
0.30 0.33 0.29 0.30 0.29 0.33 0.45 0.48 0.53 0.32 0.38 0.56 0.57 0.56 0.55 0.49 0.52 0.57 0.58 0.49 0.43 0.38 0.36 0.35 0.34 0.33 0.37 0.39 0.37 0.35 0.33 0.28 0.28 0.32 0.33 0.33 0.34 0.30 0.25 0.23 0.23 0.23 0.22 0.24
0.29 0.30 0.30 0.33 0.30 0.28 0.51 0.50 0.43 0.49 0.56 0.59 0.58 0.58 0.53 0.54 0.54 0.48 0.41 0.37 0.34 0.33 0.32 0.32 0.30 0.29 0.31 0.33 0.34 0.32 0.29 0.30 0.32 0.37 0.37 0.34 0.33 0.28 0.24 0.24 0.23 0.24 0.23 0.24
0.31 0.37 0.34 0.36 0.35 0.51 0.57 0.58 0.60 0.61 0.58 0.60 0.57 0.57 0.55 0.48 0.44 0.38 0.33 0.31 0.31 0.32 0.31 0.31 0.29 0.28 0.28 0.30 0.33 0.33 0.31 0.34 0.36 0.38 0.35 0.34 0.32 0.26 0.26 0.24 0.23 0.23 0.24 0.25
0.45 0.50 0.42 0.43 0.46 0.53 0.59 0.62 0.64 0.65 0.61 0.61 0.59 0.53 0.47 0.41 0.36 0.30 0.29 0.30 0.30 0.29 0.27 0.28 0.26 0.24 0.24 0.28 0.33 0.35 0.37 0.41 0.38 0.35 0.33 0.33 0.26 0.25 0.25 0.25 0.25 0.24 0.24 0.24
0.48 0.52 0.45 0.45 0.51 0.56 0.58 0.64 0.63 0.62 0.67 0.61 0.52 0.45 0.39 0.30 0.27 0.28 0.27 0.26 0.26 0.26 0.27 0.26 0.24 0.25 0.24 0.26 0.28 0.33 0.33 0.33 0.31 0.31 0.31 0.26 0.24 0.24 0.23 0.24 0.24 0.24 0.26 0.24
0.54 0.48 0.45 0.43 0.58 0.57 0.58 0.59 0.63 0.60 0.53 0.48 0.42 0.36 0.31 0.29 0.27 0.26 0.24 0.25 0.25 0.24 0.25 0.24 0.24 0.25 0.26 0.28 0.31 0.31 0.34 0.34 0.32 0.28 0.23 0.23 0.23 0.24 0.24 0.23 0.23 0.26 0.25 0.24

GFSCGP_prec_pwat_015.txt.gz
Precipitable_Water
0.29 0.30 0.28 0.27 0.24 0.24 0.19 0.18 0.20 0.24 0.27 0.21 0.24 0.26 0.28 0.30 0.32 0.34 0.36 0.36 0.37 0.43 0.66 0.65 0.63 0.63 0.64 0.73 0.83 0.93 0.92 0.89 0.84 0.78 0.75 0.75 0.76 0.79 0.81 0.84 0.85 0.85 0.83 0.80
0.21 0.26 0.25 0.25 0.24 0.21 0.22 0.21 0.22 0.25 0.25 0.23 0.28 0.28 0.30 0.31 0.34 0.37 0.38 0.40 0.45 0.50 0.51 0.57 0.59 0.62 0.65 0.69 0.72 0.73 0.75 0.77 0.78 0.77 0.79 0.80 0.80 0.80 0.82 0.84 0.83 0.80 0.78 0.78
0.25 0.26 0.23 0.24 0.25 0.22 0.26 0.22 0.26 0.23 0.27 0.27 0.25 0.27 0.28 0.31 0.34 0.38 0.40 0.43 0.45 0.47 0.48 0.52 0.56 0.62 0.68 0.70 0.71 0.74 0.77 0.80 0.80 0.79 0.79 0.79 0.79 0.78 0.77 0.77 0.78 0.79 0.80 0.76
0.24 0.26 0.25 0.25 0.25 0.25 0.24 0.29 0.26 0.25 0.23 0.24 0.30 0.25 0.34 0.33 0.32 0.36 0.41 0.44 0.46 0.48 0.52 0.56 0.61 0.66 0.71 0.74 0.77 0.79 0.78 0.78 0.79 0.81 0.78 0.77 0.74 0.73 0.79 0.79 0.79 0.78 0.71 0.64
0.27 0.28 0.29 0.29 0.29 0.30 0.29 0.31 0.28 0.28 0.25 0.25 0.24 0.18 0.37 0.36 0.32 0.35 0.42 0.47 0.51 0.54 0.58 0.59 0.63 0.67 0.73 0.78 0.79 0.80 0.80 0.81 0.82 0.83 0.81 0.80 0.79 0.80 0.79 0.74 0.65 0.63 0.60 0.60
0.29 0.35 0.35 0.33 0.33 0.32 0.34 0.32 0.31 0.31 0.31 0.22 0.31 0.24 0.37 0.37 0.38 0.38 0.43 0.49 0.54 0.55 0.58 0.62 0.67 0.71 0.75 0.80 0.83 0.82 0.80 0.79 0.82 0.84 0.83 0.75 0.70 0.66 0.63 0.62 0.60 0.58 0.56 0.51
0.30 0.32 0.38 0.37 0.34 0.40 0.36 0.32 0.27 0.27 0.26 0.27 0.33 0.21 0.34 0.40 0.42 0.42 0.45 0.51 0.56 0.59 0.62 0.65 0.68 0.71 0.75 0.78 0.77 0.77 0.77 0.78 0.79 0.76 0.73 0.71 0.68 0.67 0.63 0.60 0.56 0.51 0.47 0.46
0.27 0.28 0.34 0.38 0.35 0.32 0.33 0.32 0.26 0.18 0.22 0.24 0.31 0.20 0.35 0.43 0.44 0.47 0.49 0.51 0.55 0.59 0.63 0.66 0.68 0.71 0.72 0.72 0.74 0.77 0.77 0.73 0.74 0.75 0.74 0.73 0.71 0.67 0.62 0.57 0.53 0.49 0.48 0.48
0.27 0.29 0.38 0.38 0.39 0.35 0.34 0.29 0.30 0.26 0.28 0.20 0.24 0.31 0.41 0.45 0.45 0.45 0.46 0.51 0.55 0.58 0.61 0.64 0.67 0.70 0.70 0.71 0.72 0.74 0.71 0.68 0.69 0.72 0.74 0.71 0.67 0.63 0.59 0.53 0.50 0.45 0.45 0.45
0.31 0.29 0.33 0.35 0.37 0.41 0.34 0.34 0.30 0.30 0.18 0.15 0.20 0.20 0.29 0.42 0.45 0.47 0.47 0.51 0.55 0.58 0.61 0.65 0.66 0.69 0.70 0.72 0.72 0.74 0.73 0.72 0.73 0.71 0.68 0.65 0.63 0.60 0.51 0.46 0.44 0.43 0.42 0.43
0.31 0.27 0.29 0.30 0.33 0.32 0.38 0.36 0.33 0.28 0.28 0.22 0.18 0.21 0.37 0.39 0.43 0.43 0.47 0.50 0.55 0.60 0.62 0.64 0.66 0.69 0.70 0.74 0.73 0.71 0.69 0.67 0.64 0.62 0.60 0.56 0.53 0.49 0.46 0.43 0.43 0.43 0.43 0.41
0.30 0.27 0.22 0.24 0.33 0.37 0.36 0.34 0.33 0.25 0.24 0.29 0.27 0.24 0.41 0.43 0.45 0.47 0.49 0.55 0.60 0.62 0.63 0.65 0.67 0.71 0.71 0.70 0.68 0.64 0.61 0.57 0.57 0.56 0.51 0.46 0.45 0.45 0.44 0.43 0.43 0.43 0.40 0.44
0.32 0.27 0.19 0.23 0.35 0.40 0.32 0.36 0.33 0.34 0.31 0.23 0.24 0.27 0.46 0.49 0.52 0.52 0.50 0.55 0.59 0.63 0.64 0.66 0.68 0.68 0.67 0.66 0.60 0.53 0.54 0.54 0.52 0.47 0.41 0.40 0.42 0.43 0.39 0.41 0.39 0.38 0.38 0.38
0.33 0.27 0.21 0.17 0.21 0.26 0.25 0.28 0.31 0.32 0.29 0.30 0.30 0.33 0.39 0.45 0.49 0.50 0.51 0.56 0.61 0.61 0.62 0.64 0.63 0.62 0.62 0.56 0.49 0.51 0.52 0.50 0.45 0.41 0.40 0.39 0.39 0.38 0.37 0.39 0.38 0.36 0.35 0.33
0.33 0.22 0.27 0.26 0.26 0.26 0.27 0.28 0.30 0.29 0.31 0.29 0.33 0.36 0.42 0.48 0.49 0.51 0.56 0.58 0.57 0.58 0.60 0.60 0.58 0.54 0.49 0.45 0.47 0.50 0.49 0.42 0.41 0.38 0.37 0.36 0.37 0.36 0.38 0.37 0.34 0.33 0.30 0.28
0.34 0.25 0.27 0.23 0.28 0.27 0.26 0.29 0.30 0.32 0.34 0.35 0.37 0.37 0.49 0.51 0.53 0.53 0.54 0.55 0.55 0.57 0.57 0.58 0.50 0.47 0.43 0.45 0.46 0.48 0.43 0.40 0.38 0.37 0.36 0.36 0.35 0.36 0.36 0.34 0.32 0.27 0.27 0.26
0.31 0.29 0.25 0.20 0.27 0.26 0.25 0.30 0.31 0.34 0.38 0.40 0.35 0.41 0.49 0.48 0.53 0.54 0.56 0.58 0.57 0.57 0.56 0.54 0.48 0.46 0.45 0.43 0.43 0.43 0.41 0.41 0.38 0.37 0.35 0.35 0.37 0.36 0.34 0.32 0.27 0.27 0.27 0.26
0.32 0.30 0.30 0.23 0.26 0.18 0.34 0.40 0.38 0.36 0.39 0.41 0.43 0.45 0.51 0.53 0.57 0.58 0.61 0.59 0.55 0.54 0.53 0.50 0.45 0.40 0.37 0.36 0.38 0.43 0.42 0.41 0.38 0.38 0.38 0.39 0.35 0.35 0.32 0.31 0.27 0.28 0.26 0.25
0.42 0.36 0.26 0.22 0.23 0.27 0.33 0.39 0.37 0.34 0.34 0.44 0.48 0.53 0.53 0.55 0.54 0.53 0.61 0.58 0.56 0.54 0.50 0.43 0.38 0.34 0.32 0.34 0.37 0.39 0.40 0.38 0.36 0.36 0.32 0.34 0.36 0.35 0.32 0.30 0.29 0.27 0.25 0.25
0.39 0.42 0.32 0.28 0.23 0.20 0.35 0.45 0.49 0.48 0.33 0.56 0.57 0.52 0.49 0.51 0.39 0.46 0.56 0.54 0.50 0.46 0.39 0.35 0.34 0.34 0.34 0.32 0.33 0.32 0.31 0.32 0.34 0.37 0.32 0.31 0.34 0.34 0.33 0.30 0.29 0.26 0.25 0.24
0.27 0.31 0.27 0.28 0.27 0.30 0.42 0.49 0.51 0.32 0.39 0.57 0.58 0.54 0.53 0.48 0.49 0.51 0.54 0.48 0.43 0.37 0.33 0.34 0.34 0.32 0.32 0.32 0.30 0.28 0.28 0.29 0.35 0.38 0.36 0.35 0.42 0.39 0.34 0.31 0.28 0.25 0.25 0.25
0.25 0.26 0.26 0.32 0.28 0.26 0.50 0.48 0.42 0.50 0.61 0.61 0.59 0.57 0.56 0.56 0.53 0.50 0.44 0.36 0.33 0.32 0.32 0.32 0.30 0.29 0.30 0.28 0.27 0.26 0.26 0.31 0.37 0.39 0.37 0.40 0.43 0.37 0.34 0.30 0.26 0.26 0.24 0.25
0.25 0.32 0.33 0.38 0.36 0.48 0.55 0.56 0.65 0.65 0.63 0.61 0.57 0.60 0.59 0.51 0.46 0.41 0.35 0.32 0.30 0.30 0.28 0.28 0.27 0.28 0.27 0.28 0.27 0.25 0.28 0.33 0.35 0.37 0.38 0.41 0.36 0.36 0.31 0.27 0.25 0.23 0.24 0.24
0.33 0.41 0.38 0.42 0.45 0.50 0.55 0.62 0.68 0.69 0.63 0.61 0.61 0.57 0.48 0.44 0.39 0.33 0.31 0.29 0.27 0.25 0.24 0.25 0.26 0.26 0.26 0.28 0.28 0.29 0.32 0.34 0.34 0.35 0.35 0.35 0.33 0.30 0.25 0.25 0.24 0.24 0.24 0.23
0.35 0.41 0.43 0.45 0.51 0.54 0.58 0.65 0.66 0.67 0.65 0.62 0.55 0.49 0.46 0.38 0.33 0.31 0.27 0.25 0.24 0.24 0.24 0.26 0.27 0.27 0.28 0.29 0.30 0.32 0.34 0.34 0.33 0.33 0.32 0.30 0.26 0.25 0.25 0.24 0.25 0.24 0.25 0.25
0.37 0.38 0.41 0.43 0.57 0.57 0.59 0.69 0.67 0.65 0.62 0.53 0.48 0.42 0.39 0.36 0.30 0.26 0.24 0.25 0.25 0.24 0.26 0.26 0.27 0.28 0.28 0.30 0.31 0.32 0.35 0.36 0.34 0.30 0.28 0.25 0.24 0.24 0.24 0.24 0.23 0.26 0.26 0.25

GFSCGP_prec_pwat_018.txt.gz
Precipitable_Water
0.30 0.31 0.31 0.30 0.28 0.28 0.27 0.21 0.20 0.29 0.30 0.23 0.18 0.24 0.31 0.33 0.34 0.33 0.35 0.40 0.42 0.54 0.66 0.76 0.78 0.79 0.77 0.81 0.87 0.97 0.92 0.91 0.88 0.82 0.78 0.79 0.78 0.81 0.84 0.87 0.90 0.87 0.87 0.84
0.23 0.27 0.35 0.33 0.22 0.22 0.24 0.22 0.24 0.28 0.28 0.21 0.24 0.27 0.32 0.34 0.36 0.39 0.39 0.40 0.48 0.54 0.60 0.68 0.75 0.76 0.72 0.71 0.74 0.78 0.77 0.78 0.80 0.81 0.81 0.80 0.78 0.80 0.83 0.85 0.88 0.85 0.86 0.86
0.29 0.32 0.22 0.17 0.23 0.22 0.26 0.23 0.30 0.26 0.28 0.26 0.24 0.26 0.31 0.36 0.38 0.40 0.43 0.48 0.52 0.52 0.54 0.60 0.65 0.68 0.70 0.69 0.71 0.75 0.77 0.79 0.81 0.79 0.80 0.80 0.79 0.79 0.79 0.81 0.83 0.85 0.83 0.77
0.28 0.31 0.22 0.24 0.26 0.24 0.24 0.33 0.29 0.23 0.23 0.23 0.34 0.22 0.35 0.39 0.40 0.43 0.43 0.45 0.48 0.51 0.55 0.61 0.65 0.68 0.71 0.73 0.76 0.77 0.78 0.79 0.80 0.82 0.79 0.77 0.76 0.75 0.79 0.79 0.76 0.73 0.71 0.69
0.30 0.27 0.30 0.30 0.32 0.29 0.29 0.34 0.25 0.25 0.24 0.24 0.26 0.26 0.35 0.40 0.38 0.45 0.49 0.49 0.52 0.58 0.62 0.63 0.66 0.70 0.74 0.78 0.80 0.83 0.82 0.81 0.82 0.81 0.82 0.80 0.77 0.77 0.74 0.70 0.68 0.67 0.67 0.65
0.32 0.34 0.33 0.31 0.30 0.29 0.30 0.32 0.32 0.31 0.29 0.24 0.28 0.30 0.40 0.42 0.42 0.48 0.51 0.52 0.53 0.58 0.62 0.64 0.68 0.72 0.76 0.82 0.83 0.83 0.79 0.78 0.81 0.80 0.78 0.75 0.71 0.69 0.68 0.68 0.66 0.65 0.63 0.57
0.30 0.33 0.36 0.33 0.34 0.42 0.37 0.34 0.27 0.32 0.29 0.26 0.42 0.29 0.38 0.46 0.51 0.51 0.51 0.54 0.57 0.59 0.61 0.64 0.67 0.70 0.75 0.76 0.77 0.77 0.77 0.75 0.77 0.78 0.79 0.79 0.76 0.73 0.69 0.66 0.61 0.56 0.52 0.50
0.30 0.32 0.37 0.37 0.34 0.32 0.34 0.32 0.26 0.19 0.25 0.29 0.33 0.23 0.36 0.48 0.53 0.53 0.51 0.54 0.56 0.58 0.61 0.64 0.66 0.68 0.70 0.73 0.74 0.76 0.76 0.73 0.72 0.74 0.75 0.77 0.74 0.68 0.63 0.59 0.55 0.49 0.46 0.45
0.28 0.32 0.36 0.35 0.35 0.33 0.35 0.33 0.27 0.25 0.30 0.19 0.20 0.40 0.48 0.51 0.51 0.52 0.53 0.55 0.56 0.59 0.61 0.65 0.69 0.70 0.71 0.71 0.71 0.73 0.74 0.72 0.71 0.69 0.67 0.64 0.63 0.60 0.56 0.50 0.46 0.43 0.43 0.40
0.31 0.31 0.34 0.31 0.40 0.46 0.31 0.32 0.29 0.36 0.21 0.18 0.21 0.27 0.37 0.47 0.51 0.54 0.53 0.54 0.54 0.57 0.62 0.65 0.66 0.69 0.72 0.73 0.74 0.76 0.72 0.68 0.67 0.64 0.61 0.59 0.56 0.52 0.49 0.44 0.42 0.42 0.40 0.38
0.32 0.30 0.29 0.35 0.31 0.28 0.36 0.36 0.33 0.29 0.28 0.22 0.20 0.23 0.37 0.39 0.48 0.49 0.50 0.51 0.55 0.60 0.63 0.63 0.66 0.70 0.70 0.73 0.70 0.72 0.68 0.64 0.59 0.57 0.56 0.52 0.47 0.43 0.42 0.45 0.44 0.41 0.36 0.34
0.25 0.26 0.22 0.25 0.29 0.32 0.31 0.31 0.31 0.24 0.21 0.28 0.26 0.23 0.40 0.44 0.47 0.52 0.54 0.56 0.64 0.66 0.66 0.66 0.67 0.69 0.68 0.68 0.69 0.64 0.59 0.56 0.56 0.55 0.49 0.42 0.39 0.41 0.43 0.42 0.41 0.35 0.34 0.36
0.28 0.26 0.21 0.25 0.37 0.38 0.29 0.33 0.32 0.34 0.33 0.24 0.21 0.24 0.45 0.50 0.55 0.59 0.57 0.58 0.64 0.64 0.63 0.63 0.64 0.62 0.62 0.61 0.60 0.56 0.52 0.53 0.54 0.49 0.40 0.39 0.39 0.40 0.40 0.38 0.35 0.37 0.36 0.34
0.33 0.26 0.20 0.17 0.21 0.26 0.23 0.25 0.28 0.29 0.26 0.28 0.29 0.32 0.39 0.45 0.52 0.56 0.56 0.60 0.59 0.58 0.59 0.61 0.61 0.59 0.57 0.53 0.50 0.47 0.48 0.51 0.48 0.42 0.39 0.36 0.38 0.38 0.37 0.36 0.35 0.37 0.36 0.32
0.31 0.19 0.24 0.24 0.24 0.25 0.24 0.24 0.27 0.27 0.30 0.27 0.30 0.32 0.40 0.48 0.50 0.53 0.55 0.56 0.55 0.56 0.57 0.59 0.57 0.54 0.50 0.47 0.45 0.44 0.43 0.45 0.45 0.43 0.40 0.39 0.39 0.41 0.40 0.39 0.36 0.35 0.33 0.28
0.32 0.22 0.23 0.17 0.26 0.26 0.21 0.25 0.28 0.30 0.32 0.32 0.35 0.34 0.46 0.55 0.55 0.55 0.56 0.54 0.56 0.57 0.57 0.56 0.54 0.51 0.46 0.45 0.43 0.40 0.39 0.43 0.48 0.47 0.44 0.44 0.41 0.42 0.42 0.37 0.34 0.34 0.29 0.29
0.29 0.25 0.21 0.16 0.23 0.21 0.24 0.31 0.31 0.33 0.37 0.37 0.32 0.41 0.51 0.52 0.52 0.54 0.51 0.54 0.54 0.56 0.54 0.50 0.47 0.47 0.44 0.39 0.36 0.33 0.37 0.40 0.43 0.42 0.42 0.43 0.46 0.42 0.41 0.35 0.31 0.32 0.29 0.30
0.27 0.26 0.26 0.18 0.22 0.13 0.28 0.33 0.35 0.35 0.38 0.41 0.42 0.49 0.55 0.54 0.56 0.54 0.58 0.57 0.56 0.52 0.49 0.48 0.47 0.40 0.38 0.35 0.35 0.35 0.33 0.31 0.31 0.34 0.35 0.42 0.41 0.44 0.41 0.37 0.32 0.33 0.30 0.30
0.41 0.30 0.21 0.19 0.19 0.21 0.27 0.36 0.35 0.33 0.33 0.44 0.47 0.53 0.55 0.56 0.53 0.51 0.61 0.60 0.54 0.51 0.49 0.43 0.37 0.34 0.34 0.35 0.35 0.33 0.31 0.28 0.29 0.31 0.35 0.39 0.40 0.41 0.40 0.37 0.36 0.33 0.30 0.29
0.39 0.41 0.27 0.24 0.17 0.14 0.26 0.42 0.47 0.45 0.30 0.56 0.56 0.55 0.55 0.52 0.38 0.45 0.55 0.53 0.50 0.45 0.39 0.34 0.33 0.34 0.33 0.33 0.33 0.30 0.26 0.26 0.26 0.34 0.39 0.40 0.45 0.45 0.42 0.40 0.38 0.32 0.32 0.29
0.24 0.28 0.23 0.24 0.21 0.24 0.35 0.44 0.48 0.28 0.36 0.58 0.60 0.57 0.55 0.48 0.50 0.52 0.54 0.50 0.41 0.37 0.34 0.33 0.31 0.29 0.29 0.30 0.29 0.26 0.26 0.25 0.28 0.32 0.34 0.34 0.37 0.40 0.39 0.39 0.34 0.32 0.27 0.27
0.21 0.22 0.22 0.26 0.22 0.18 0.45 0.46 0.37 0.48 0.57 0.63 0.64 0.60 0.55 0.55 0.53 0.49 0.45 0.39 0.35 0.32 0.30 0.27 0.25 0.24 0.26 0.27 0.27 0.26 0.25 0.28 0.30 0.31 0.32 0.34 0.39 0.44 0.38 0.35 0.33 0.27 0.25 0.25
0.26 0.30 0.29 0.30 0.27 0.43 0.51 0.52 0.60 0.62 0.61 0.64 0.63 0.63 0.58 0.53 0.47 0.45 0.37 0.34 0.31 0.28 0.25 0.24 0.24 0.24 0.25 0.28 0.30 0.29 0.30 0.31 0.31 0.30 0.32 0.34 0.36 0.36 0.37 0.32 0.26 0.23 0.24 0.24
0.35 0.36 0.32 0.35 0.36 0.39 0.49 0.58 0.64 0.66 0.65 0.66 0.65 0.59 0.59 0.48 0.46 0.38 0.35 0.30 0.26 0.25 0.24 0.25 0.24 0.24 0.27 0.29 0.31 0.31 0.31 0.31 0.31 0.31 0.32 0.33 0.31 0.31 0.27 0.25 0.24 0.23 0.23 0.23
0.36 0.37 0.31 0.34 0.39 0.48 0.56 0.62 0.67 0.67 0.67 0.66 0.64 0.56 0.49 0.44 0.40 0.36 0.27 0.25 0.25 0.25 0.26 0.25 0.26 0.26 0.26 0.28 0.30 0.31 0.30 0.32 0.32 0.32 0.31 0.30 0.27 0.25 0.24 0.23 0.23 0.24 0.25 0.24
0.36 0.32 0.30 0.30 0.48 0.50 0.57 0.68 0.72 0.66 0.64 0.63 0.52 0.47 0.46 0.42 0.30 0.26 0.25 0.24 0.24 0.25 0.24 0.24 0.25 0.26 0.27 0.28 0.29 0.30 0.32 0.34 0.32 0.30 0.27 0.23 0.21 0.22 0.22 0.23 0.23 0.25 0.25 0.26

GFSCGP_prec_pwat_021.txt.gz
Precipitable_Water
0.37 0.32 0.29 0.29 0.31 0.32 0.29 0.26 0.26 0.29 0.31 0.27 0.22 0.26 0.34 0.40 0.39 0.37 0.35 0.40 0.48 0.54 0.67 0.77 0.82 0.86 0.91 0.96 0.91 0.86 0.80 0.84 0.84 0.82 0.81 0.80 0.81 0.85 0.84 0.88 0.86 0.85 0.86 0.85
0.35 0.28 0.37 0.35 0.30 0.24 0.27 0.25 0.28 0.29 0.31 0.27 0.21 0.25 0.32 0.37 0.39 0.41 0.44 0.48 0.51 0.57 0.64 0.73 0.79 0.82 0.84 0.84 0.82 0.81 0.80 0.80 0.79 0.80 0.81 0.82 0.80 0.80 0.82 0.83 0.85 0.86 0.84 0.82
0.26 0.31 0.30 0.23 0.29 0.21 0.27 0.26 0.26 0.25 0.28 0.24 0.25 0.26 0.31 0.36 0.43 0.49 0.51 0.56 0.55 0.56 0.60 0.66 0.68 0.71 0.73 0.72 0.74 0.72 0.75 0.76 0.77 0.79 0.80 0.79 0.77 0.77 0.77 0.80 0.83 0.84 0.80 0.73
0.29 0.33 0.29 0.22 0.22 0.23 0.23 0.33 0.30 0.25 0.19 0.15 0.31 0.22 0.30 0.35 0.39 0.45 0.50 0.55 0.55 0.58 0.61 0.64 0.68 0.67 0.69 0.72 0.75 0.75 0.77 0.78 0.81 0.83 0.78 0.74 0.72 0.70 0.75 0.76 0.75 0.71 0.69 0.67
0.25 0.27 0.28 0.27 0.29 0.31 0.24 0.30 0.24 0.23 0.20 0.22 0.26 0.25 0.34 0.40 0.38 0.44 0.52 0.55 0.58 0.61 0.61 0.62 0.65 0.67 0.73 0.76 0.77 0.79 0.81 0.84 0.81 0.78 0.76 0.73 0.70 0.71 0.71 0.69 0.68 0.67 0.66 0.63
0.32 0.38 0.31 0.31 0.29 0.31 0.32 0.31 0.31 0.34 0.30 0.20 0.33 0.32 0.35 0.39 0.45 0.49 0.53 0.58 0.62 0.64 0.63 0.62 0.65 0.69 0.71 0.76 0.78 0.80 0.78 0.77 0.79 0.80 0.79 0.76 0.73 0.70 0.68 0.66 0.63 0.58 0.55 0.50
0.30 0.32 0.35 0.34 0.31 0.39 0.34 0.30 0.24 0.24 0.30 0.29 0.40 0.37 0.45 0.50 0.49 0.51 0.54 0.59 0.64 0.63 0.63 0.64 0.65 0.69 0.73 0.74 0.74 0.75 0.75 0.72 0.76 0.75 0.75 0.73 0.71 0.68 0.64 0.61 0.56 0.50 0.43 0.41
0.29 0.28 0.36 0.35 0.35 0.31 0.31 0.31 0.22 0.17 0.22 0.25 0.31 0.31 0.41 0.53 0.58 0.62 0.65 0.66 0.66 0.64 0.66 0.66 0.65 0.65 0.69 0.72 0.74 0.76 0.75 0.71 0.72 0.70 0.68 0.67 0.65 0.61 0.58 0.56 0.51 0.42 0.39 0.40
0.33 0.30 0.38 0.31 0.29 0.35 0.32 0.29 0.29 0.26 0.28 0.19 0.31 0.40 0.50 0.56 0.57 0.61 0.62 0.64 0.66 0.66 0.65 0.65 0.70 0.70 0.72 0.73 0.74 0.75 0.72 0.71 0.69 0.68 0.66 0.64 0.61 0.56 0.53 0.48 0.42 0.39 0.41 0.41
0.38 0.28 0.32 0.33 0.43 0.41 0.31 0.30 0.25 0.27 0.17 0.15 0.22 0.31 0.35 0.45 0.49 0.56 0.58 0.59 0.61 0.63 0.65 0.68 0.70 0.73 0.73 0.73 0.74 0.72 0.70 0.67 0.66 0.65 0.63 0.59 0.53 0.48 0.42 0.40 0.39 0.40 0.40 0.40
0.36 0.34 0.25 0.34 0.29 0.26 0.31 0.31 0.28 0.26 0.24 0.18 0.16 0.21 0.36 0.42 0.51 0.53 0.52 0.57 0.60 0.63 0.66 0.69 0.71 0.72 0.71 0.70 0.67 0.64 0.62 0.60 0.58 0.57 0.56 0.51 0.43 0.37 0.39 0.38 0.38 0.38 0.37 0.31
0.28 0.29 0.22 0.26 0.31 0.30 0.27 0.28 0.28 0.20 0.19 0.28 0.27 0.23 0.38 0.45 0.50 0.55 0.57 0.61 0.64 0.67 0.67 0.69 0.69 0.67 0.63 0.63 0.60 0.59 0.56 0.55 0.55 0.52 0.48 0.41 0.41 0.41 0.42 0.39 0.37 0.38 0.36 0.33
0.28 0.21 0.18 0.22 0.33 0.32 0.25 0.31 0.29 0.31 0.30 0.22 0.21 0.22 0.38 0.49 0.51 0.58 0.58 0.60 0.62 0.63 0.65 0.64 0.64 0.62 0.60 0.56 0.50 0.49 0.48 0.47 0.46 0.43 0.41 0.42 0.43 0.45 0.43 0.41 0.41 0.42 0.41 0.33
0.35 0.22 0.20 0.17 0.20 0.23 0.20 0.22 0.24 0.26 0.23 0.24 0.26 0.29 0.34 0.45 0.50 0.54 0.56 0.59 0.61 0.62 0.62 0.61 0.63 0.61 0.55 0.50 0.47 0.45 0.44 0.43 0.40 0.40 0.42 0.42 0.44 0.46 0.44 0.45 0.44 0.47 0.43 0.34
0.28 0.19 0.21 0.22 0.21 0.21 0.21 0.20 0.22 0.23 0.25 0.24 0.27 0.31 0.41 0.47 0.51 0.56 0.59 0.60 0.60 0.61 0.59 0.58 0.56 0.53 0.49 0.46 0.44 0.41 0.36 0.36 0.37 0.39 0.40 0.40 0.42 0.45 0.44 0.46 0.48 0.45 0.41 0.35
0.26 0.19 0.20 0.14 0.24 0.23 0.17 0.22 0.27 0.26 0.29 0.30 0.33 0.34 0.49 0.53 0.55 0.54 0.56 0.59 0.57 0.57 0.56 0.54 0.48 0.46 0.45 0.41 0.38 0.36 0.35 0.34 0.35 0.34 0.34 0.37 0.41 0.45 0.46 0.46 0.48 0.49 0.41 0.35
0.27 0.21 0.17 0.13 0.22 0.19 0.19 0.25 0.25 0.27 0.32 0.32 0.29 0.38 0.48 0.47 0.49 0.53 0.56 0.57 0.55 0.53 0.51 0.46 0.45 0.45 0.42 0.36 0.36 0.34 0.34 0.34 0.33 0.32 0.33 0.34 0.36 0.38 0.41 0.44 0.48 0.44 0.38 0.33
0.26 0.23 0.21 0.14 0.18 0.09 0.25 0.30 0.30 0.28 0.33 0.37 0.42 0.46 0.49 0.51 0.54 0.58 0.60 0.56 0.53 0.50 0.47 0.45 0.44 0.39 0.35 0.35 0.34 0.33 0.32 0.31 0.30 0.29 0.28 0.30 0.32 0.34 0.36 0.37 0.44 0.43 0.38 0.34
0.35 0.24 0.17 0.14 0.15 0.18 0.22 0.30 0.29 0.28 0.29 0.41 0.42 0.48 0.53 0.57 0.58 0.54 0.59 0.58 0.52 0.48 0.43 0.39 0.37 0.33 0.31 0.30 0.30 0.29 0.28 0.27 0.25 0.27 0.29 0.31 0.33 0.32 0.33 0.34 0.37 0.42 0.34 0.33
0.38 0.37 0.22 0.20 0.13 0.10 0.23 0.35 0.41 0.39 0.24 0.47 0.49 0.50 0.52 0.52 0.41 0.46 0.55 0.52 0.50 0.43 0.39 0.35 0.30 0.28 0.28 0.27 0.27 0.26 0.24 0.23 0.26 0.29 0.31 0.34 0.33 0.34 0.35 0.37 0.33 0.33 0.34 0.31
0.25 0.28 0.21 0.20 0.17 0.19 0.28 0.38 0.40 0.22 0.25 0.51 0.54 0.54 0.54 0.49 0.53 0.56 0.55 0.51 0.44 0.39 0.35 0.31 0.28 0.26 0.26 0.25 0.24 0.24 0.25 0.27 0.31 0.32 0.32 0.31 0.34 0.35 0.38 0.40 0.39 0.34 0.29 0.26
0.20 0.19 0.19 0.24 0.20 0.14 0.36 0.38 0.28 0.35 0.48 0.54 0.56 0.58 0.55 0.58 0.56 0.54 0.48 0.44 0.38 0.35 0.31 0.28 0.26 0.25 0.24 0.24 0.26 0.26 0.27 0.30 0.32 0.31 0.29 0.30 0.32 0.34 0.36 0.36 0.32 0.27 0.25 0.24
0.23 0.25 0.23 0.25 0.22 0.36 0.44 0.43 0.49 0.49 0.50 0.57 0.60 0.61 0.60 0.55 0.53 0.47 0.44 0.39 0.35 0.32 0.27 0.26 0.25 0.24 0.25 0.27 0.28 0.27 0.30 0.31 0.30 0.28 0.29 0.30 0.31 0.32 0.31 0.26 0.24 0.23 0.24 0.23
0.35 0.40 0.32 0.33 0.39 0.43 0.49 0.52 0.53 0.57 0.59 0.64 0.65 0.63 0.60 0.55 0.48 0.43 0.39 0.34 0.30 0.26 0.26 0.25 0.24 0.23 0.24 0.27 0.29 0.30 0.30 0.30 0.29 0.28 0.29 0.30 0.29 0.28 0.26 0.25 0.24 0.22 0.21 0.21
0.28 0.35 0.31 0.34 0.41 0.44 0.49 0.51 0.55 0.61 0.65 0.67 0.66 0.62 0.51 0.47 0.42 0.38 0.32 0.27 0.26 0.23 0.22 0.23 0.22 0.22 0.24 0.26 0.28 0.30 0.31 0.30 0.29 0.29 0.30 0.27 0.24 0.22 0.21 0.22 0.22 0.22 0.23 0.23
0.35 0.32 0.30 0.29 0.41 0.40 0.45 0.56 0.64 0.65 0.66 0.63 0.59 0.51 0.48 0.42 0.36 0.30 0.26 0.24 0.22 0.21 0.22 0.21 0.22 0.23 0.25 0.27 0.29 0.30 0.32 0.32 0.31 0.29 0.28 0.25 0.20 0.21 0.23 0.22 0.21 0.24 0.24 0.25

GFSCGP_prec_pwat_024.txt.gz
Precipitable_Water
0.35 0.31 0.28 0.29 0.34 0.32 0.29 0.28 0.26 0.31 0.33 0.29 0.27 0.27 0.29 0.33 0.35 0.39 0.44 0.48 0.52 0.59 0.74 0.84 0.91 0.98 1.05 1.12 1.09 1.10 1.09 1.01 0.96 0.92 0.87 0.87 0.86 0.87 0.89 0.89 0.87 0.84 0.83 0.83
0.35 0.29 0.34 0.34 0.33 0.32 0.32 0.28 0.28 0.31 0.33 0.29 0.26 0.26 0.34 0.38 0.42 0.44 0.45 0.49 0.51 0.61 0.71 0.77 0.83 0.88 0.90 0.94 0.96 0.92 0.89 0.88 0.87 0.84 0.85 0.85 0.85 0.86 0.86 0.84 0.82 0.82 0.82 0.82
0.28 0.30 0.32 0.34 0.32 0.30 0.32 0.28 0.29 0.29 0.32 0.30 0.26 0.27 0.32 0.41 0.47 0.52 0.55 0.59 0.62 0.65 0.68 0.73 0.76 0.79 0.85 0.82 0.80 0.79 0.78 0.77 0.78 0.79 0.80 0.81 0.81 0.79 0.77 0.78 0.78 0.77 0.75 0.72
0.30 0.34 0.33 0.30 0.22 0.25 0.22 0.33 0.33 0.29 0.23 0.14 0.27 0.21 0.33 0.40 0.43 0.48 0.52 0.55 0.59 0.68 0.71 0.71 0.69 0.69 0.69 0.70 0.72 0.73 0.76 0.77 0.78 0.80 0.77 0.72 0.68 0.64 0.68 0.69 0.69 0.69 0.70 0.66
0.26 0.30 0.29 0.28 0.27 0.29 0.22 0.27 0.25 0.26 0.20 0.20 0.26 0.25 0.33 0.42 0.39 0.45 0.52 0.59 0.66 0.70 0.68 0.69 0.68 0.69 0.68 0.67 0.69 0.72 0.72 0.72 0.73 0.71 0.72 0.72 0.69 0.70 0.69 0.69 0.67 0.67 0.64 0.58
0.32 0.41 0.33 0.30 0.32 0.32 0.31 0.27 0.29 0.32 0.28 0.18 0.30 0.29 0.32 0.37 0.41 0.51 0.59 0.63 0.64 0.66 0.68 0.70 0.68 0.67 0.67 0.70 0.70 0.71 0.71 0.73 0.76 0.75 0.74 0.71 0.68 0.68 0.66 0.66 0.63 0.57 0.55 0.49
0.29 0.32 0.33 0.35 0.30 0.35 0.30 0.28 0.22 0.22 0.24 0.25 0.38 0.35 0.37 0.47 0.52 0.55 0.57 0.58 0.63 0.68 0.70 0.69 0.67 0.70 0.71 0.71 0.74 0.75 0.75 0.75 0.78 0.75 0.72 0.71 0.70 0.68 0.65 0.61 0.56 0.49 0.40 0.37
0.26 0.26 0.32 0.33 0.36 0.31 0.29 0.27 0.20 0.18 0.21 0.24 0.32 0.28 0.35 0.50 0.59 0.60 0.63 0.67 0.71 0.73 0.72 0.73 0.73 0.74 0.75 0.76 0.78 0.78 0.76 0.74 0.73 0.70 0.68 0.67 0.65 0.63 0.59 0.53 0.45 0.37 0.37 0.37
0.28 0.30 0.38 0.28 0.33 0.38 0.32 0.22 0.30 0.23 0.26 0.20 0.28 0.37 0.47 0.54 0.56 0.61 0.65 0.70 0.67 0.67 0.69 0.68 0.71 0.75 0.77 0.78 0.77 0.75 0.71 0.70 0.68 0.66 0.64 0.62 0.61 0.57 0.51 0.45 0.40 0.39 0.40 0.40
0.37 0.28 0.31 0.34 0.37 0.33 0.25 0.31 0.21 0.21 0.12 0.13 0.23 0.29 0.33 0.42 0.48 0.52 0.52 0.57 0.61 0.64 0.66 0.70 0.74 0.75 0.77 0.78 0.77 0.70 0.67 0.62 0.60 0.59 0.58 0.56 0.52 0.46 0.42 0.42 0.42 0.45 0.43 0.42
0.39 0.32 0.24 0.34 0.30 0.24 0.27 0.24 0.24 0.24 0.22 0.14 0.15 0.20 0.35 0.41 0.48 0.48 0.51 0.55 0.60 0.65 0.69 0.73 0.74 0.76 0.76 0.72 0.67 0.64 0.61 0.56 0.53 0.51 0.50 0.48 0.44 0.39 0.42 0.41 0.41 0.43 0.44 0.44
0.37 0.29 0.22 0.26 0.27 0.30 0.29 0.25 0.23 0.15 0.17 0.23 0.21 0.21 0.43 0.44 0.48 0.51 0.53 0.58 0.64 0.68 0.70 0.71 0.72 0.71 0.66 0.62 0.59 0.56 0.51 0.48 0.47 0.47 0.44 0.41 0.40 0.40 0.40 0.42 0.41 0.42 0.42 0.44
0.32 0.24 0.18 0.21 0.29 0.30 0.25 0.29 0.27 0.25 0.25 0.19 0.17 0.19 0.43 0.46 0.47 0.52 0.53 0.57 0.61 0.64 0.67 0.68 0.68 0.65 0.61 0.57 0.51 0.48 0.47 0.45 0.44 0.40 0.38 0.39 0.39 0.39 0.42 0.43 0.44 0.44 0.48 0.47
0.36 0.25 0.19 0.13 0.17 0.20 0.18 0.21 0.25 0.23 0.18 0.19 0.21 0.24 0.33 0.42 0.43 0.49 0.53 0.57 0.61 0.63 0.64 0.64 0.60 0.59 0.56 0.50 0.47 0.45 0.43 0.40 0.36 0.34 0.33 0.34 0.36 0.39 0.43 0.42 0.44 0.44 0.46 0.49
0.29 0.17 0.22 0.23 0.22 0.21 0.20 0.19 0.20 0.19 0.21 0.19 0.22 0.25 0.33 0.43 0.47 0.51 0.56 0.58 0.58 0.59 0.61 0.61 0.57 0.51 0.48 0.45 0.42 0.40 0.35 0.33 0.34 0.33 0.34 0.36 0.37 0.36 0.34 0.35 0.38 0.40 0.40 0.41
0.28 0.18 0.20 0.15 0.20 0.20 0.18 0.18 0.22 0.24 0.23 0.25 0.28 0.29 0.45 0.50 0.53 0.53 0.55 0.57 0.57 0.59 0.60 0.53 0.50 0.48 0.45 0.45 0.37 0.33 0.32 0.33 0.33 0.32 0.33 0.34 0.32 0.30 0.30 0.32 0.32 0.34 0.38 0.39
0.22 0.18 0.15 0.10 0.20 0.20 0.13 0.19 0.23 0.24 0.27 0.26 0.23 0.31 0.43 0.44 0.48 0.52 0.54 0.57 0.57 0.57 0.54 0.50 0.47 0.43 0.42 0.36 0.33 0.31 0.31 0.31 0.29 0.30 0.30 0.28 0.28 0.28 0.29 0.30 0.33 0.36 0.37 0.38
0.25 0.22 0.19 0.13 0.17 0.09 0.20 0.28 0.27 0.25 0.27 0.31 0.34 0.39 0.45 0.48 0.54 0.57 0.60 0.57 0.55 0.53 0.49 0.45 0.41 0.38 0.35 0.32 0.30 0.30 0.29 0.27 0.28 0.28 0.27 0.29 0.30 0.29 0.30 0.32 0.33 0.36 0.39 0.36
0.34 0.24 0.16 0.13 0.13 0.16 0.20 0.26 0.24 0.23 0.24 0.36 0.37 0.42 0.46 0.50 0.54 0.54 0.60 0.58 0.56 0.53 0.47 0.42 0.38 0.34 0.31 0.30 0.30 0.27 0.26 0.26 0.25 0.25 0.28 0.30 0.30 0.28 0.30 0.34 0.33 0.35 0.35 0.32
0.36 0.31 0.18 0.18 0.11 0.09 0.18 0.31 0.36 0.33 0.18 0.39 0.40 0.41 0.45 0.50 0.39 0.46 0.57 0.56 0.54 0.47 0.43 0.39 0.34 0.31 0.30 0.30 0.27 0.25 0.22 0.25 0.26 0.29 0.30 0.31 0.30 0.28 0.32 0.36 0.37 0.38 0.33 0.30
0.24 0.26 0.19 0.18 0.15 0.16 0.25 0.35 0.38 0.19 0.19 0.38 0.43 0.46 0.49 0.46 0.51 0.56 0.58 0.55 0.48 0.44 0.41 0.35 0.31 0.30 0.29 0.27 0.25 0.23 0.26 0.27 0.30 0.31 0.30 0.29 0.28 0.29 0.32 0.35 0.37 0.33 0.29 0.26
0.19 0.18 0.18 0.22 0.17 0.12 0.31 0.35 0.25 0.30 0.41 0.44 0.47 0.51 0.52 0.56 0.58 0.58 0.51 0.47 0.44 0.40 0.34 0.32 0.31 0.27 0.27 0.27 0.27 0.25 0.26 0.28 0.29 0.30 0.30 0.28 0.28 0.30 0.30 0.29 0.28 0.25 0.24 0.23
0.20 0.21 0.19 0.21 0.19 0.30 0.37 0.36 0.43 0.47 0.47 0.48 0.50 0.55 0.59 0.57 0.55 0.52 0.48 0.45 0.41 0.34 0.31 0.30 0.26 0.24 0.25 0.27 0.27 0.24 0.25 0.28 0.29 0.29 0.29 0.29 0.29 0.30 0.29 0.26 0.24 0.23 0.23 0.22
0.29 0.35 0.27 0.29 0.30 0.34 0.41 0.48 0.53 0.56 0.53 0.56 0.59 0.60 0.61 0.59 0.54 0.48 0.44 0.39 0.33 0.31 0.27 0.26 0.23 0.22 0.22 0.26 0.27 0.27 0.29 0.30 0.30 0.29 0.30 0.30 0.27 0.26 0.24 0.23 0.22 0.22 0.21 0.20
0.28 0.35 0.30 0.32 0.39 0.44 0.48 0.53 0.57 0.57 0.58 0.60 0.62 0.64 0.62 0.53 0.47 0.44 0.39 0.34 0.30 0.27 0.24 0.23 0.22 0.22 0.22 0.25 0.26 0.28 0.28 0.30 0.30 0.30 0.31 0.29 0.27 0.24 0.23 0.22 0.23 0.22 0.22 0.21
0.33 0.28 0.26 0.25 0.38 0.41 0.44 0.52 0.55 0.55 0.58 0.63 0.61 0.54 0.50 0.48 0.44 0.40 0.33 0.29 0.26 0.23 0.22 0.21 0.22 0.22 0.23 0.25 0.26 0.28 0.29 0.31 0.31 0.30 0.30 0.29 0.26 0.23 0.23 0.22 0.21 0.24 0.23 0.24

GFSCGP_prec_pwat_027.txt.gz
Precipitable_Water
0.33 0.27 0.21 0.23 0.28 0.29 0.26 0.24 0.24 0.28 0.32 0.29 0.28 0.27 0.29 0.31 0.38 0.42 0.49 0.52 0.58 0.63 0.77 0.87 0.94 1.04 1.11 1.17 1.19 1.22 1.24 1.20 1.09 1.01 0.96 0.88 0.88 0.89 0.88 0.88 0.88 0.86 0.84 0.82
0.29 0.25 0.31 0.35 0.36 0.31 0.32 0.26 0.26 0.30 0.34 0.29 0.28 0.27 0.33 0.34 0.36 0.41 0.44 0.51 0.57 0.65 0.75 0.83 0.93 1.04 1.09 1.10 1.07 1.01 1.00 0.99 0.93 0.88 0.88 0.86 0.84 0.84 0.84 0.83 0.81 0.81 0.79 0.76
0.30 0.30 0.38 0.36 0.36 0.32 0.32 0.27 0.27 0.28 0.32 0.32 0.30 0.27 0.32 0.41 0.45 0.50 0.56 0.61 0.67 0.69 0.70 0.75 0.85 0.91 0.92 0.87 0.84 0.79 0.77 0.76 0.76 0.77 0.79 0.81 0.83 0.82 0.77 0.74 0.72 0.73 0.72 0.70
0.30 0.34 0.31 0.31 0.28 0.28 0.27 0.36 0.33 0.30 0.28 0.22 0.31 0.18 0.30 0.39 0.44 0.52 0.58 0.62 0.66 0.70 0.76 0.82 0.82 0.78 0.76 0.74 0.75 0.76 0.76 0.75 0.75 0.76 0.73 0.70 0.67 0.65 0.70 0.71 0.72 0.71 0.71 0.68
0.29 0.33 0.31 0.28 0.28 0.28 0.23 0.32 0.30 0.30 0.25 0.23 0.25 0.21 0.29 0.42 0.41 0.49 0.56 0.62 0.67 0.74 0.76 0.73 0.73 0.75 0.76 0.74 0.72 0.73 0.75 0.75 0.76 0.77 0.77 0.74 0.71 0.71 0.71 0.70 0.68 0.66 0.62 0.56
0.33 0.39 0.33 0.30 0.34 0.33 0.33 0.30 0.31 0.32 0.27 0.17 0.27 0.24 0.26 0.33 0.41 0.48 0.57 0.64 0.71 0.76 0.76 0.75 0.78 0.80 0.77 0.78 0.77 0.76 0.78 0.78 0.80 0.78 0.76 0.73 0.68 0.65 0.64 0.63 0.59 0.52 0.49 0.45
0.32 0.31 0.34 0.34 0.29 0.33 0.29 0.25 0.18 0.19 0.20 0.19 0.32 0.29 0.31 0.41 0.47 0.52 0.55 0.63 0.69 0.70 0.73 0.77 0.80 0.85 0.83 0.81 0.80 0.81 0.80 0.79 0.79 0.74 0.71 0.68 0.66 0.64 0.60 0.56 0.50 0.45 0.39 0.37
0.23 0.21 0.28 0.36 0.33 0.29 0.26 0.26 0.21 0.15 0.19 0.24 0.34 0.26 0.33 0.46 0.51 0.55 0.59 0.62 0.66 0.70 0.76 0.82 0.80 0.78 0.75 0.77 0.79 0.79 0.79 0.75 0.72 0.69 0.67 0.65 0.61 0.57 0.53 0.50 0.45 0.39 0.36 0.37
0.25 0.26 0.35 0.30 0.37 0.35 0.30 0.20 0.29 0.21 0.25 0.19 0.25 0.31 0.41 0.47 0.49 0.54 0.57 0.61 0.65 0.68 0.68 0.67 0.70 0.73 0.74 0.76 0.76 0.76 0.74 0.69 0.69 0.65 0.61 0.57 0.54 0.51 0.47 0.44 0.41 0.39 0.40 0.41
0.35 0.28 0.33 0.33 0.34 0.34 0.29 0.32 0.20 0.19 0.11 0.12 0.19 0.24 0.26 0.37 0.43 0.50 0.54 0.57 0.58 0.61 0.62 0.66 0.70 0.74 0.75 0.75 0.77 0.73 0.69 0.66 0.63 0.57 0.52 0.49 0.47 0.45 0.42 0.41 0.40 0.42 0.43 0.44
0.41 0.34 0.29 0.33 0.29 0.25 0.25 0.20 0.21 0.22 0.20 0.12 0.12 0.18 0.32 0.38 0.43 0.45 0.48 0.53 0.57 0.60 0.63 0.68 0.70 0.73 0.74 0.75 0.69 0.65 0.62 0.58 0.52 0.50 0.48 0.43 0.39 0.40 0.41 0.41 0.42 0.44 0.46 0.48
0.42 0.32 0.26 0.26 0.33 0.30 0.28 0.23 0.20 0.12 0.13 0.20 0.18 0.16 0.35 0.41 0.45 0.47 0.50 0.55 0.58 0.62 0.65 0.68 0.70 0.72 0.69 0.68 0.63 0.59 0.55 0.51 0.49 0.47 0.42 0.39 0.39 0.38 0.37 0.37 0.40 0.45 0.46 0.45
0.36 0.28 0.20 0.21 0.24 0.28 0.24 0.26 0.25 0.22 0.21 0.15 0.13 0.15 0.36 0.41 0.43 0.47 0.48 0.53 0.58 0.60 0.63 0.65 0.67 0.67 0.63 0.60 0.59 0.53 0.50 0.46 0.42 0.39 0.37 0.35 0.34 0.34 0.33 0.33 0.31 0.31 0.32 0.34
0.39 0.27 0.20 0.13 0.17 0.24 0.18 0.21 0.24 0.21 0.16 0.17 0.16 0.18 0.30 0.36 0.40 0.46 0.49 0.54 0.57 0.60 0.62 0.63 0.62 0.60 0.60 0.60 0.52 0.47 0.43 0.40 0.38 0.36 0.34 0.33 0.34 0.34 0.31 0.31 0.30 0.29 0.30 0.33
0.29 0.18 0.24 0.23 0.22 0.20 0.18 0.18 0.21 0.19 0.19 0.15 0.16 0.18 0.25 0.33 0.39 0.45 0.51 0.55 0.57 0.58 0.59 0.59 0.57 0.60 0.56 0.52 0.48 0.43 0.39 0.37 0.35 0.33 0.32 0.32 0.32 0.30 0.29 0.29 0.29 0.28 0.33 0.37
0.28 0.19 0.22 0.19 0.23 0.20 0.16 0.18 0.19 0.19 0.19 0.20 0.20 0.20 0.35 0.42 0.47 0.48 0.52 0.55 0.55 0.57 0.57 0.58 0.56 0.55 0.53 0.46 0.41 0.38 0.35 0.33 0.32 0.31 0.29 0.29 0.28 0.29 0.30 0.30 0.28 0.31 0.35 0.36
0.20 0.18 0.17 0.11 0.18 0.17 0.12 0.14 0.18 0.20 0.23 0.22 0.18 0.24 0.37 0.39 0.43 0.47 0.51 0.54 0.56 0.58 0.57 0.55 0.52 0.48 0.45 0.42 0.38 0.33 0.32 0.32 0.30 0.29 0.29 0.29 0.31 0.30 0.29 0.29 0.30 0.31 0.33 0.36
0.23 0.19 0.16 0.11 0.15 0.08 0.14 0.24 0.24 0.22 0.24 0.27 0.27 0.29 0.35 0.39 0.46 0.51 0.56 0.56 0.57 0.57 0.53 0.51 0.47 0.45 0.42 0.38 0.34 0.32 0.31 0.29 0.29 0.28 0.29 0.31 0.31 0.28 0.27 0.29 0.30 0.32 0.34 0.34
0.36 0.23 0.15 0.12 0.12 0.14 0.15 0.22 0.22 0.20 0.19 0.29 0.28 0.33 0.38 0.44 0.48 0.48 0.58 0.59 0.55 0.54 0.52 0.47 0.46 0.43 0.39 0.34 0.31 0.31 0.28 0.26 0.26 0.27 0.29 0.30 0.27 0.27 0.28 0.29 0.33 0.34 0.35 0.34
0.36 0.32 0.19 0.17 0.11 0.09 0.13 0.25 0.31 0.31 0.17 0.30 0.34 0.34 0.37 0.42 0.33 0.42 0.56 0.57 0.57 0.52 0.49 0.46 0.43 0.40 0.34 0.32 0.32 0.27 0.25 0.26 0.26 0.28 0.27 0.28 0.28 0.28 0.27 0.28 0.32 0.35 0.35 0.31
0.25 0.25 0.18 0.16 0.13 0.15 0.20 0.31 0.35 0.18 0.15 0.32 0.36 0.37 0.40 0.38 0.46 0.53 0.59 0.59 0.55 0.49 0.47 0.45 0.41 0.34 0.33 0.31 0.28 0.24 0.24 0.24 0.26 0.28 0.29 0.28 0.29 0.28 0.27 0.29 0.32 0.31 0.29 0.26
0.20 0.18 0.17 0.20 0.16 0.12 0.26 0.32 0.22 0.25 0.31 0.38 0.41 0.44 0.46 0.50 0.54 0.58 0.58 0.51 0.49 0.48 0.45 0.42 0.34 0.32 0.29 0.27 0.25 0.23 0.23 0.26 0.28 0.29 0.29 0.30 0.30 0.29 0.28 0.27 0.27 0.26 0.24 0.23
0.21 0.22 0.18 0.20 0.16 0.25 0.31 0.31 0.37 0.39 0.38 0.43 0.49 0.54 0.56 0.54 0.55 0.56 0.50 0.51 0.49 0.45 0.41 0.36 0.32 0.27 0.25 0.25 0.26 0.24 0.26 0.28 0.28 0.28 0.30 0.30 0.31 0.30 0.29 0.26 0.24 0.23 0.22 0.21
0.30 0.34 0.25 0.25 0.26 0.29 0.35 0.40 0.44 0.47 0.47 0.54 0.59 0.60 0.59 0.56 0.54 0.56 0.53 0.47 0.45 0.41 0.35 0.30 0.26 0.23 0.22 0.25 0.26 0.27 0.27 0.28 0.27 0.28 0.29 0.30 0.29 0.28 0.28 0.26 0.23 0.22 0.21 0.20
0.31 0.33 0.29 0.29 0.32 0.38 0.41 0.44 0.48 0.51 0.56 0.59 0.61 0.59 0.59 0.61 0.59 0.50 0.47 0.45 0.42 0.34 0.29 0.25 0.23 0.23 0.23 0.25 0.26 0.26 0.27 0.28 0.26 0.27 0.29 0.30 0.30 0.28 0.28 0.26 0.24 0.23 0.23 0.22
0.35 0.29 0.26 0.23 0.32 0.35 0.37 0.46 0.53 0.52 0.53 0.56 0.57 0.57 0.64 0.57 0.50 0.48 0.45 0.42 0.34 0.28 0.25 0.24 0.24 0.23 0.24 0.25 0.24 0.26 0.27 0.29 0.28 0.27 0.29 0.30 0.29 0.29 0.29 0.26 0.23 0.24 0.24 0.25

GFSCGP_prec_pwat_030.txt.gz
Precipitable_Water
0.36 0.31 0.28 0.30 0.28 0.29 0.25 0.24 0.23 0.26 0.28 0.26 0.29 0.30 0.33 0.35 0.47 0.47 0.51 0.56 0.60 0.65 0.76 0.88 0.98 1.05 1.10 1.19 1.24 1.31 1.32 1.28 1.23 1.10 0.99 0.95 0.89 0.87 0.84 0.84 0.84 0.81 0.78 0.76
0.31 0.26 0.31 0.33 0.31 0.30 0.25 0.24 0.25 0.28 0.30 0.28 0.31 0.30 0.34 0.34 0.41 0.46 0.50 0.55 0.61 0.67 0.76 0.85 0.93 1.03 1.13 1.21 1.23 1.28 1.18 1.06 0.94 0.85 0.80 0.78 0.76 0.75 0.76 0.76 0.75 0.74 0.75 0.73
0.28 0.29 0.34 0.33 0.34 0.28 0.30 0.25 0.27 0.28 0.32 0.34 0.31 0.28 0.33 0.37 0.40 0.45 0.50 0.57 0.64 0.69 0.73 0.80 0.87 0.94 1.03 1.00 0.93 0.85 0.81 0.78 0.75 0.72 0.72 0.72 0.72 0.71 0.68 0.68 0.70 0.71 0.71 0.66
0.31 0.37 0.34 0.35 0.33 0.34 0.28 0.36 0.32 0.31 0.28 0.23 0.32 0.20 0.31 0.36 0.36 0.42 0.50 0.59 0.65 0.69 0.76 0.81 0.86 0.83 0.78 0.75 0.75 0.75 0.75 0.74 0.76 0.77 0.75 0.71 0.67 0.66 0.69 0.69 0.69 0.68 0.61 0.57
0.28 0.31 0.31 0.30 0.30 0.31 0.25 0.32 0.32 0.32 0.27 0.26 0.27 0.22 0.24 0.38 0.36 0.44 0.54 0.62 0.66 0.72 0.78 0.75 0.75 0.76 0.77 0.77 0.78 0.80 0.82 0.83 0.83 0.83 0.81 0.74 0.70 0.71 0.70 0.69 0.65 0.60 0.56 0.53
0.34 0.40 0.36 0.33 0.35 0.33 0.32 0.29 0.29 0.31 0.27 0.17 0.24 0.20 0.19 0.27 0.34 0.45 0.57 0.62 0.65 0.69 0.75 0.77 0.77 0.78 0.80 0.86 0.90 0.91 0.87 0.86 0.86 0.83 0.78 0.74 0.70 0.67 0.63 0.60 0.54 0.51 0.50 0.44
0.32 0.32 0.36 0.37 0.30 0.32 0.29 0.24 0.15 0.15 0.17 0.16 0.29 0.26 0.26 0.38 0.45 0.52 0.54 0.59 0.63 0.68 0.69 0.71 0.74 0.79 0.86 0.86 0.84 0.84 0.85 0.81 0.82 0.78 0.74 0.72 0.68 0.62 0.55 0.50 0.47 0.43 0.38 0.37
0.23 0.20 0.29 0.33 0.29 0.27 0.26 0.26 0.19 0.14 0.16 0.20 0.31 0.22 0.28 0.44 0.50 0.55 0.57 0.59 0.63 0.66 0.70 0.75 0.78 0.80 0.77 0.78 0.81 0.81 0.80 0.80 0.78 0.73 0.69 0.66 0.58 0.53 0.50 0.45 0.42 0.40 0.38 0.38
0.24 0.24 0.33 0.32 0.36 0.36 0.28 0.21 0.31 0.24 0.26 0.20 0.24 0.30 0.37 0.40 0.42 0.48 0.52 0.56 0.59 0.64 0.69 0.71 0.72 0.73 0.75 0.75 0.76 0.78 0.78 0.77 0.74 0.68 0.60 0.55 0.54 0.52 0.47 0.45 0.43 0.42 0.42 0.43
0.31 0.23 0.32 0.33 0.35 0.36 0.34 0.35 0.20 0.20 0.10 0.10 0.15 0.18 0.19 0.30 0.36 0.44 0.48 0.52 0.59 0.63 0.64 0.66 0.69 0.70 0.72 0.74 0.74 0.77 0.75 0.70 0.64 0.60 0.57 0.54 0.50 0.46 0.45 0.44 0.43 0.41 0.42 0.44
0.38 0.31 0.31 0.33 0.27 0.24 0.27 0.22 0.20 0.20 0.18 0.10 0.09 0.13 0.27 0.31 0.37 0.40 0.47 0.53 0.56 0.59 0.61 0.64 0.67 0.69 0.71 0.71 0.71 0.70 0.67 0.62 0.61 0.56 0.52 0.46 0.43 0.42 0.41 0.38 0.36 0.33 0.33 0.32
0.40 0.34 0.28 0.31 0.33 0.35 0.31 0.24 0.20 0.11 0.11 0.17 0.15 0.12 0.29 0.34 0.41 0.45 0.48 0.53 0.56 0.60 0.63 0.65 0.67 0.68 0.68 0.68 0.67 0.61 0.65 0.62 0.52 0.49 0.44 0.40 0.40 0.38 0.36 0.34 0.33 0.33 0.30 0.30
0.37 0.31 0.25 0.24 0.26 0.31 0.22 0.25 0.24 0.21 0.19 0.13 0.11 0.11 0.30 0.34 0.38 0.44 0.45 0.51 0.56 0.60 0.62 0.64 0.65 0.66 0.66 0.62 0.60 0.66 0.56 0.50 0.46 0.42 0.40 0.39 0.37 0.35 0.31 0.29 0.28 0.28 0.28 0.28
0.39 0.30 0.24 0.17 0.17 0.22 0.19 0.22 0.23 0.19 0.13 0.13 0.13 0.14 0.21 0.28 0.33 0.40 0.45 0.50 0.54 0.57 0.60 0.62 0.63 0.62 0.59 0.60 0.62 0.51 0.49 0.46 0.44 0.41 0.38 0.36 0.34 0.30 0.28 0.28 0.29 0.28 0.28 0.29
0.31 0.22 0.27 0.25 0.24 0.22 0.19 0.18 0.19 0.16 0.17 0.13 0.13 0.15 0.19 0.26 0.32 0.38 0.45 0.50 0.52 0.55 0.58 0.60 0.58 0.56 0.60 0.59 0.53 0.48 0.45 0.42 0.39 0.36 0.35 0.33 0.31 0.30 0.30 0.30 0.29 0.29 0.30 0.34
0.35 0.22 0.22 0.20 0.25 0.22 0.17 0.18 0.18 0.18 0.18 0.18 0.19 0.16 0.24 0.30 0.37 0.40 0.43 0.47 0.49 0.54 0.56 0.57 0.56 0.61 0.58 0.51 0.48 0.45 0.41 0.37 0.36 0.33 0.32 0.31 0.30 0.31 0.30 0.28 0.29 0.30 0.31 0.33
0.25 0.21 0.16 0.13 0.19 0.18 0.13 0.13 0.15 0.16 0.18 0.17 0.14 0.17 0.28 0.29 0.33 0.37 0.42 0.48 0.51 0.54 0.56 0.56 0.58 0.53 0.49 0.47 0.45 0.40 0.37 0.36 0.33 0.31 0.30 0.30 0.31 0.30 0.27 0.29 0.31 0.29 0.31 0.33
0.24 0.19 0.16 0.11 0.14 0.07 0.11 0.19 0.20 0.18 0.19 0.22 0.23 0.25 0.30 0.32 0.38 0.44 0.48 0.49 0.52 0.56 0.57 0.56 0.51 0.49 0.48 0.46 0.42 0.39 0.36 0.33 0.29 0.28 0.29 0.30 0.29 0.26 0.28 0.29 0.30 0.32 0.33 0.32
0.36 0.24 0.15 0.12 0.11 0.12 0.12 0.16 0.18 0.17 0.16 0.25 0.25 0.30 0.32 0.37 0.39 0.38 0.48 0.54 0.57 0.59 0.57 0.55 0.51 0.48 0.47 0.44 0.40 0.36 0.32 0.28 0.27 0.28 0.27 0.27 0.27 0.26 0.27 0.26 0.27 0.31 0.33 0.34
0.37 0.34 0.23 0.18 0.12 0.09 0.13 0.20 0.28 0.27 0.15 0.25 0.27 0.29 0.30 0.34 0.25 0.28 0.49 0.57 0.59 0.60 0.57 0.50 0.49 0.47 0.47 0.41 0.37 0.31 0.26 0.26 0.25 0.26 0.27 0.28 0.28 0.27 0.26 0.27 0.27 0.31 0.33 0.30
0.27 0.27 0.20 0.18 0.14 0.15 0.18 0.26 0.31 0.15 0.13 0.26 0.30 0.31 0.34 0.31 0.35 0.44 0.52 0.55 0.56 0.55 0.50 0.50 0.48 0.47 0.42 0.37 0.32 0.26 0.25 0.25 0.27 0.28 0.27 0.28 0.28 0.29 0.29 0.28 0.29 0.29 0.29 0.27
0.23 0.20 0.19 0.20 0.16 0.12 0.26 0.30 0.21 0.25 0.29 0.31 0.34 0.37 0.39 0.43 0.47 0.49 0.52 0.52 0.53 0.51 0.51 0.49 0.47 0.43 0.37 0.32 0.28 0.26 0.25 0.27 0.28 0.27 0.26 0.28 0.29 0.30 0.30 0.28 0.28 0.28 0.27 0.24
0.21 0.25 0.20 0.21 0.18 0.26 0.30 0.30 0.35 0.37 0.35 0.37 0.40 0.44 0.48 0.49 0.52 0.54 0.53 0.52 0.53 0.54 0.49 0.48 0.44 0.36 0.30 0.28 0.28 0.26 0.27 0.27 0.26 0.26 0.26 0.27 0.29 0.30 0.29 0.27 0.27 0.26 0.25 0.22
0.29 0.33 0.25 0.24 0.25 0.27 0.32 0.36 0.40 0.43 0.43 0.47 0.50 0.52 0.55 0.55 0.58 0.53 0.49 0.61 0.56 0.49 0.47 0.44 0.35 0.28 0.25 0.28 0.28 0.28 0.28 0.26 0.26 0.25 0.25 0.26 0.28 0.29 0.28 0.29 0.27 0.26 0.23 0.21
0.30 0.31 0.28 0.27 0.30 0.34 0.36 0.40 0.42 0.44 0.48 0.49 0.54 0.57 0.60 0.60 0.56 0.54 0.63 0.54 0.48 0.48 0.44 0.35 0.28 0.26 0.26 0.28 0.27 0.28 0.27 0.26 0.25 0.26 0.25 0.26 0.29 0.29 0.28 0.29 0.28 0.27 0.25 0.23
0.33 0.29 0.27 0.25 0.32 0.33 0.34 0.41 0.47 0.47 0.48 0.52 0.54 0.56 0.60 0.61 0.60 0.62 0.50 0.50 0.49 0.42 0.34 0.28 0.28 0.27 0.27 0.27 0.26 0.27 0.27 0.26 0.26 0.25 0.25 0.27 0.28 0.29 0.28 0.29 0.28 0.29 0.26 0.24

GFSCGP_prec_pwat_033.txt.gz
Precipitable_Water
0.40 0.31 0.23 0.25 0.27 0.25 0.24 0.27 0.24 0.26 0.28 0.27 0.29 0.28 0.34 0.41 0.49 0.48 0.49 0.53 0.58 0.63 0.75 0.88 0.96 1.03 1.07 1.15 1.19 1.26 1.28 1.37 1.31 1.17 0.98 0.90 0.90 0.84 0.78 0.76 0.76 0.75 0.74 0.74
0.34 0.28 0.33 0.35 0.32 0.31 0.29 0.27 0.26 0.29 0.30 0.28 0.30 0.30 0.37 0.36 0.41 0.48 0.52 0.55 0.61 0.68 0.77 0.86 0.95 1.03 1.10 1.16 1.24 1.35 1.27 1.09 0.98 0.89 0.83 0.78 0.73 0.73 0.73 0.73 0.72 0.73 0.72 0.66
0.27 0.29 0.36 0.34 0.31 0.30 0.28 0.27 0.27 0.27 0.31 0.33 0.30 0.27 0.32 0.38 0.41 0.46 0.54 0.59 0.65 0.70 0.74 0.84 0.92 0.95 1.02 1.07 1.08 1.03 0.92 0.83 0.81 0.80 0.80 0.79 0.80 0.75 0.71 0.71 0.70 0.72 0.66 0.61
0.35 0.39 0.33 0.33 0.32 0.34 0.26 0.33 0.29 0.28 0.26 0.21 0.29 0.17 0.26 0.34 0.35 0.38 0.45 0.54 0.62 0.68 0.75 0.80 0.85 0.85 0.83 0.84 0.86 0.84 0.80 0.81 0.86 0.88 0.84 0.80 0.74 0.71 0.73 0.74 0.72 0.66 0.62 0.57
0.32 0.34 0.33 0.32 0.32 0.34 0.32 0.37 0.33 0.31 0.26 0.25 0.25 0.21 0.23 0.34 0.29 0.34 0.43 0.55 0.64 0.73 0.77 0.77 0.77 0.75 0.77 0.79 0.81 0.85 0.87 0.88 0.89 0.88 0.86 0.80 0.75 0.74 0.73 0.70 0.63 0.58 0.56 0.54
0.32 0.40 0.37 0.34 0.36 0.36 0.38 0.31 0.29 0.29 0.26 0.17 0.23 0.21 0.18 0.22 0.27 0.38 0.52 0.61 0.66 0.71 0.73 0.70 0.73 0.75 0.75 0.82 0.84 0.87 0.85 0.86 0.87 0.85 0.84 0.80 0.75 0.70 0.63 0.57 0.53 0.50 0.46 0.44
0.29 0.32 0.37 0.38 0.31 0.36 0.31 0.22 0.14 0.13 0.15 0.13 0.26 0.23 0.22 0.33 0.41 0.47 0.52 0.60 0.65 0.67 0.66 0.68 0.69 0.73 0.78 0.81 0.82 0.80 0.81 0.81 0.83 0.82 0.81 0.77 0.69 0.62 0.55 0.51 0.47 0.46 0.45 0.44
0.22 0.20 0.31 0.35 0.30 0.26 0.26 0.25 0.14 0.10 0.13 0.18 0.29 0.20 0.25 0.41 0.45 0.56 0.61 0.61 0.61 0.62 0.66 0.67 0.72 0.75 0.76 0.77 0.76 0.78 0.79 0.79 0.80 0.80 0.74 0.67 0.63 0.58 0.54 0.52 0.51 0.49 0.47 0.46
0.24 0.23 0.34 0.34 0.37 0.34 0.28 0.20 0.30 0.23 0.25 0.19 0.22 0.26 0.34 0.39 0.39 0.46 0.51 0.53 0.55 0.61 0.64 0.69 0.72 0.74 0.74 0.74 0.76 0.77 0.76 0.75 0.77 0.72 0.65 0.64 0.61 0.57 0.53 0.51 0.49 0.46 0.43 0.38
0.30 0.22 0.32 0.33 0.36 0.37 0.32 0.35 0.21 0.21 0.11 0.09 0.13 0.14 0.14 0.24 0.29 0.38 0.44 0.47 0.54 0.61 0.65 0.68 0.69 0.71 0.74 0.75 0.74 0.75 0.74 0.72 0.69 0.67 0.68 0.61 0.55 0.52 0.48 0.44 0.40 0.36 0.33 0.32
0.32 0.29 0.27 0.35 0.28 0.23 0.28 0.25 0.23 0.21 0.17 0.09 0.08 0.09 0.23 0.23 0.30 0.34 0.41 0.47 0.52 0.58 0.61 0.63 0.67 0.71 0.72 0.71 0.70 0.70 0.71 0.71 0.65 0.67 0.58 0.52 0.48 0.45 0.41 0.38 0.36 0.31 0.30 0.30
0.35 0.31 0.26 0.32 0.36 0.36 0.30 0.25 0.20 0.13 0.11 0.15 0.13 0.10 0.23 0.27 0.32 0.38 0.43 0.48 0.53 0.58 0.60 0.62 0.66 0.69 0.69 0.68 0.69 0.72 0.65 0.64 0.64 0.54 0.49 0.46 0.43 0.40 0.37 0.33 0.30 0.32 0.31 0.30
0.34 0.29 0.24 0.27 0.31 0.34 0.27 0.26 0.23 0.20 0.19 0.12 0.10 0.09 0.24 0.28 0.30 0.37 0.42 0.48 0.53 0.56 0.58 0.62 0.65 0.66 0.66 0.67 0.67 0.62 0.65 0.60 0.51 0.47 0.44 0.41 0.39 0.37 0.32 0.32 0.33 0.33 0.30 0.30
0.37 0.29 0.26 0.21 0.22 0.25 0.22 0.24 0.23 0.20 0.14 0.12 0.12 0.12 0.16 0.23 0.26 0.33 0.41 0.48 0.53 0.55 0.58 0.61 0.63 0.64 0.65 0.64 0.62 0.63 0.58 0.51 0.47 0.43 0.41 0.38 0.35 0.33 0.33 0.34 0.33 0.30 0.31 0.32
0.32 0.23 0.27 0.28 0.28 0.25 0.21 0.20 0.22 0.19 0.17 0.11 0.11 0.13 0.15 0.20 0.25 0.33 0.41 0.47 0.49 0.51 0.55 0.59 0.60 0.62 0.62 0.62 0.64 0.56 0.49 0.46 0.43 0.41 0.38 0.35 0.35 0.35 0.35 0.33 0.29 0.30 0.31 0.32
0.36 0.23 0.24 0.22 0.27 0.25 0.20 0.21 0.19 0.20 0.19 0.17 0.17 0.15 0.22 0.25 0.29 0.32 0.37 0.43 0.45 0.49 0.54 0.57 0.59 0.59 0.59 0.62 0.50 0.49 0.46 0.43 0.42 0.38 0.33 0.35 0.34 0.35 0.33 0.29 0.29 0.30 0.31 0.32
0.29 0.24 0.21 0.15 0.20 0.19 0.15 0.17 0.17 0.17 0.17 0.16 0.13 0.16 0.24 0.24 0.28 0.30 0.35 0.41 0.44 0.49 0.54 0.56 0.57 0.58 0.55 0.50 0.50 0.47 0.45 0.43 0.38 0.33 0.33 0.33 0.33 0.31 0.28 0.28 0.29 0.29 0.30 0.32
0.24 0.22 0.21 0.14 0.15 0.08 0.12 0.19 0.18 0.16 0.16 0.19 0.19 0.22 0.26 0.30 0.33 0.35 0.40 0.41 0.44 0.49 0.53 0.56 0.58 0.54 0.54 0.51 0.49 0.47 0.45 0.39 0.33 0.32 0.32 0.32 0.30 0.28 0.28 0.27 0.27 0.27 0.30 0.32
0.33 0.23 0.17 0.13 0.12 0.13 0.13 0.15 0.16 0.16 0.14 0.20 0.19 0.25 0.30 0.35 0.36 0.33 0.41 0.45 0.48 0.53 0.57 0.58 0.54 0.53 0.48 0.48 0.48 0.47 0.39 0.33 0.31 0.29 0.29 0.29 0.29 0.28 0.27 0.26 0.26 0.27 0.28 0.31
0.37 0.34 0.25 0.20 0.14 0.11 0.14 0.20 0.28 0.26 0.13 0.23 0.25 0.28 0.31 0.33 0.22 0.25 0.40 0.47 0.52 0.56 0.57 0.54 0.50 0.49 0.50 0.49 0.49 0.40 0.33 0.29 0.28 0.29 0.29 0.29 0.29 0.27 0.27 0.27 0.27 0.28 0.31 0.31
0.28 0.28 0.22 0.20 0.17 0.17 0.21 0.24 0.31 0.14 0.14 0.25 0.28 0.29 0.31 0.28 0.33 0.39 0.46 0.50 0.54 0.54 0.53 0.50 0.49 0.50 0.49 0.49 0.42 0.32 0.29 0.28 0.30 0.30 0.29 0.27 0.27 0.27 0.28 0.28 0.27 0.28 0.28 0.29
0.23 0.21 0.20 0.21 0.17 0.13 0.26 0.28 0.20 0.25 0.30 0.30 0.33 0.35 0.35 0.39 0.43 0.47 0.51 0.53 0.53 0.51 0.50 0.50 0.54 0.50 0.49 0.43 0.33 0.28 0.29 0.31 0.31 0.29 0.26 0.26 0.26 0.27 0.27 0.27 0.27 0.27 0.27 0.27
0.21 0.25 0.21 0.21 0.18 0.26 0.30 0.29 0.34 0.36 0.34 0.36 0.39 0.43 0.45 0.46 0.49 0.52 0.51 0.53 0.53 0.50 0.58 0.57 0.51 0.49 0.41 0.34 0.31 0.30 0.30 0.31 0.28 0.26 0.25 0.25 0.26 0.26 0.27 0.27 0.27 0.26 0.26 0.25
0.29 0.33 0.25 0.24 0.25 0.27 0.32 0.36 0.39 0.41 0.41 0.45 0.48 0.49 0.51 0.50 0.54 0.53 0.54 0.56 0.58 0.60 0.53 0.54 0.49 0.39 0.31 0.33 0.33 0.31 0.30 0.28 0.26 0.24 0.25 0.26 0.25 0.25 0.28 0.28 0.28 0.27 0.27 0.26
0.30 0.32 0.28 0.27 0.30 0.33 0.35 0.39 0.42 0.43 0.46 0.47 0.51 0.53 0.55 0.57 0.55 0.57 0.57 0.58 0.61 0.53 0.56 0.48 0.38 0.31 0.32 0.33 0.30 0.29 0.28 0.27 0.25 0.25 0.26 0.27 0.27 0.26 0.27 0.28 0.28 0.28 0.29 0.28
0.34 0.30 0.28 0.26 0.34 0.36 0.37 0.45 0.50 0.49 0.51 0.55 0.55 0.55 0.57 0.59 0.58 0.58 0.60 0.57 0.55 0.54 0.46 0.36 0.34 0.33 0.31 0.29 0.27 0.26 0.27 0.27 0.26 0.25 0.26 0.27 0.27 0.27 0.27 0.28 0.28 0.31 0.30 0.28

GFSCGP_prec_pwat_036.txt.gz
Precipitable_Water
0.44 0.34 0.28 0.29 0.28 0.27 0.26 0.30 0.27 0.28 0.23 0.21 0.21 0.28 0.33 0.44 0.52 0.50 0.52 0.57 0.62 0.67 0.76 0.87 0.94 1.01 1.07 1.15 1.17 1.21 1.24 1.29 1.36 1.08 1.10 1.03 0.89 0.86 0.83 0.80 0.80 0.79 0.78 0.74
0.37 0.33 0.31 0.32 0.31 0.29 0.27 0.30 0.31 0.31 0.30 0.28 0.29 0.29 0.35 0.40 0.47 0.51 0.52 0.54 0.59 0.66 0.73 0.82 0.93 1.01 1.07 1.11 1.20 1.24 1.23 1.17 1.09 1.01 0.90 0.87 0.84 0.82 0.80 0.79 0.81 0.82 0.77 0.71
0.34 0.34 0.38 0.34 0.32 0.31 0.32 0.32 0.29 0.28 0.30 0.33 0.31 0.29 0.32 0.38 0.42 0.48 0.52 0.60 0.63 0.66 0.72 0.82 0.92 1.02 1.09 1.12 1.15 1.11 1.07 1.00 0.91 0.89 0.90 0.87 0.86 0.82 0.77 0.78 0.79 0.80 0.74 0.69
0.36 0.35 0.34 0.33 0.32 0.36 0.31 0.33 0.30 0.29 0.28 0.25 0.31 0.22 0.30 0.36 0.36 0.41 0.47 0.55 0.63 0.69 0.78 0.85 0.86 0.95 1.01 0.99 1.01 0.99 0.96 0.93 0.92 0.91 0.85 0.82 0.80 0.75 0.77 0.79 0.80 0.73 0.70 0.64
0.35 0.36 0.35 0.33 0.34 0.36 0.33 0.34 0.32 0.31 0.28 0.26 0.27 0.22 0.29 0.34 0.31 0.36 0.43 0.53 0.63 0.69 0.74 0.77 0.82 0.85 0.88 0.93 0.96 0.94 0.90 0.90 0.89 0.88 0.87 0.85 0.81 0.82 0.80 0.77 0.71 0.67 0.63 0.56
0.39 0.45 0.41 0.38 0.38 0.38 0.41 0.38 0.33 0.30 0.28 0.20 0.26 0.22 0.17 0.25 0.29 0.35 0.42 0.54 0.61 0.67 0.74 0.77 0.76 0.75 0.76 0.82 0.86 0.87 0.85 0.84 0.86 0.87 0.87 0.85 0.80 0.76 0.70 0.66 0.61 0.56 0.55 0.53
0.35 0.34 0.38 0.41 0.33 0.38 0.36 0.30 0.19 0.17 0.17 0.15 0.25 0.18 0.18 0.30 0.35 0.43 0.48 0.56 0.64 0.70 0.71 0.69 0.68 0.69 0.74 0.78 0.82 0.84 0.82 0.81 0.86 0.85 0.83 0.81 0.75 0.68 0.65 0.64 0.55 0.51 0.50 0.53
0.25 0.22 0.32 0.38 0.35 0.30 0.29 0.27 0.17 0.10 0.14 0.17 0.27 0.20 0.27 0.37 0.42 0.50 0.57 0.62 0.65 0.67 0.67 0.66 0.69 0.71 0.74 0.78 0.81 0.80 0.80 0.79 0.80 0.79 0.77 0.75 0.70 0.68 0.63 0.57 0.54 0.53 0.51 0.49
0.24 0.25 0.35 0.37 0.37 0.33 0.28 0.21 0.31 0.21 0.23 0.19 0.21 0.25 0.32 0.36 0.37 0.44 0.52 0.57 0.59 0.61 0.63 0.66 0.70 0.75 0.76 0.77 0.79 0.80 0.79 0.78 0.76 0.73 0.75 0.71 0.68 0.63 0.55 0.53 0.50 0.47 0.43 0.40
0.31 0.24 0.32 0.32 0.37 0.36 0.32 0.34 0.21 0.24 0.14 0.11 0.15 0.14 0.16 0.23 0.27 0.36 0.44 0.50 0.54 0.58 0.62 0.67 0.71 0.75 0.76 0.77 0.79 0.82 0.80 0.74 0.74 0.77 0.74 0.67 0.64 0.56 0.50 0.47 0.44 0.41 0.38 0.34
0.32 0.26 0.27 0.33 0.28 0.27 0.29 0.27 0.26 0.25 0.19 0.12 0.09 0.11 0.21 0.21 0.28 0.31 0.41 0.49 0.52 0.56 0.62 0.67 0.72 0.73 0.74 0.76 0.78 0.77 0.73 0.73 0.73 0.68 0.66 0.64 0.55 0.48 0.45 0.43 0.40 0.36 0.34 0.33
0.32 0.28 0.24 0.28 0.36 0.37 0.31 0.29 0.27 0.17 0.14 0.16 0.15 0.10 0.19 0.23 0.27 0.32 0.38 0.47 0.54 0.59 0.62 0.67 0.69 0.69 0.70 0.72 0.72 0.71 0.69 0.68 0.69 0.68 0.62 0.53 0.47 0.44 0.42 0.38 0.35 0.35 0.35 0.34
0.29 0.26 0.22 0.25 0.31 0.38 0.31 0.30 0.26 0.22 0.19 0.14 0.13 0.11 0.20 0.23 0.24 0.29 0.35 0.44 0.51 0.55 0.59 0.62 0.65 0.65 0.66 0.68 0.70 0.65 0.67 0.71 0.64 0.59 0.51 0.47 0.45 0.42 0.37 0.36 0.36 0.37 0.34 0.34
0.36 0.29 0.24 0.19 0.26 0.31 0.27 0.29 0.26 0.22 0.16 0.15 0.15 0.12 0.17 0.19 0.22 0.27 0.31 0.40 0.46 0.51 0.55 0.59 0.61 0.62 0.64 0.66 0.64 0.65 0.71 0.63 0.56 0.49 0.45 0.44 0.42 0.37 0.38 0.38 0.38 0.35 0.35 0.33
0.37 0.25 0.27 0.28 0.30 0.30 0.26 0.24 0.24 0.22 0.20 0.16 0.14 0.14 0.14 0.19 0.22 0.27 0.33 0.38 0.43 0.47 0.51 0.56 0.59 0.59 0.61 0.61 0.62 0.66 0.60 0.55 0.50 0.46 0.44 0.40 0.39 0.39 0.39 0.38 0.35 0.34 0.34 0.33
0.40 0.27 0.26 0.24 0.29 0.28 0.24 0.24 0.23 0.23 0.21 0.19 0.17 0.15 0.21 0.25 0.27 0.28 0.30 0.35 0.38 0.44 0.50 0.54 0.56 0.57 0.58 0.58 0.60 0.58 0.52 0.50 0.48 0.46 0.40 0.38 0.39 0.37 0.37 0.34 0.32 0.32 0.33 0.34
0.37 0.31 0.24 0.18 0.23 0.23 0.17 0.18 0.20 0.20 0.22 0.21 0.16 0.18 0.25 0.23 0.24 0.27 0.32 0.35 0.37 0.43 0.46 0.49 0.53 0.56 0.58 0.58 0.56 0.53 0.50 0.49 0.47 0.41 0.37 0.38 0.36 0.34 0.33 0.31 0.31 0.30 0.30 0.32
0.33 0.29 0.24 0.18 0.19 0.12 0.17 0.19 0.19 0.19 0.20 0.22 0.20 0.22 0.25 0.27 0.32 0.36 0.38 0.37 0.39 0.43 0.47 0.51 0.54 0.57 0.58 0.54 0.55 0.53 0.48 0.48 0.43 0.37 0.36 0.35 0.34 0.32 0.31 0.31 0.29 0.29 0.29 0.31
0.33 0.26 0.19 0.16 0.15 0.16 0.16 0.19 0.18 0.18 0.16 0.23 0.20 0.23 0.27 0.32 0.35 0.35 0.38 0.40 0.43 0.47 0.52 0.56 0.59 0.56 0.53 0.53 0.52 0.47 0.51 0.45 0.38 0.34 0.34 0.34 0.33 0.31 0.30 0.29 0.29 0.29 0.28 0.29
0.37 0.33 0.26 0.21 0.17 0.14 0.19 0.24 0.29 0.27 0.16 0.22 0.24 0.25 0.28 0.32 0.25 0.28 0.38 0.43 0.47 0.53 0.57 0.56 0.55 0.53 0.50 0.50 0.53 0.53 0.45 0.38 0.33 0.34 0.33 0.33 0.31 0.30 0.28 0.29 0.29 0.29 0.29 0.29
0.31 0.32 0.26 0.25 0.21 0.21 0.26 0.26 0.31 0.16 0.18 0.26 0.28 0.29 0.30 0.29 0.34 0.41 0.45 0.49 0.56 0.57 0.56 0.54 0.53 0.50 0.52 0.56 0.55 0.47 0.39 0.34 0.36 0.34 0.33 0.31 0.29 0.28 0.29 0.29 0.29 0.28 0.28 0.29
0.25 0.23 0.22 0.23 0.18 0.15 0.26 0.28 0.21 0.28 0.31 0.31 0.34 0.37 0.38 0.43 0.45 0.47 0.51 0.54 0.54 0.53 0.53 0.55 0.54 0.52 0.60 0.57 0.49 0.38 0.36 0.38 0.35 0.34 0.31 0.28 0.28 0.29 0.28 0.28 0.29 0.28 0.27 0.27
0.22 0.27 0.24 0.24 0.23 0.28 0.31 0.31 0.36 0.38 0.35 0.38 0.40 0.44 0.46 0.47 0.48 0.50 0.52 0.54 0.53 0.54 0.53 0.59 0.59 0.59 0.56 0.49 0.39 0.35 0.37 0.35 0.33 0.29 0.27 0.28 0.29 0.29 0.29 0.28 0.27 0.27 0.27 0.26
0.30 0.34 0.27 0.25 0.28 0.29 0.33 0.37 0.39 0.41 0.40 0.43 0.45 0.46 0.49 0.48 0.52 0.51 0.52 0.52 0.53 0.56 0.60 0.61 0.61 0.52 0.47 0.40 0.39 0.37 0.35 0.32 0.29 0.27 0.27 0.28 0.28 0.28 0.29 0.28 0.28 0.27 0.27 0.27
0.33 0.34 0.31 0.28 0.31 0.34 0.36 0.40 0.44 0.47 0.50 0.51 0.54 0.55 0.56 0.57 0.57 0.53 0.51 0.55 0.57 0.58 0.63 0.60 0.52 0.43 0.36 0.41 0.38 0.36 0.32 0.31 0.28 0.27 0.27 0.27 0.28 0.28 0.28 0.27 0.27 0.28 0.29 0.29
0.39 0.35 0.30 0.29 0.38 0.38 0.40 0.48 0.53 0.52 0.54 0.58 0.59 0.58 0.60 0.60 0.54 0.56 0.58 0.59 0.61 0.62 0.58 0.49 0.42 0.41 0.39 0.35 0.34 0.32 0.30 0.29 0.28 0.26 0.26 0.27 0.27 0.28 0.28 0.27 0.27 0.30 0.30 0.30

GFSCGP_prec_pwat_039.txt.gz
Precipitable_Water
0.46 0.41 0.34 0.36 0.37 0.35 0.31 0.25 0.22 0.25 0.26 0.24 0.22 0.29 0.31 0.41 0.49 0.55 0.62 0.65 0.65 0.68 0.77 0.84 0.89 0.94 0.99 1.17 1.19 1.19 1.20 1.23 1.28 1.20 1.04 0.92 1.02 1.04 0.94 0.85 0.83 0.83 0.83 0.78
0.40 0.37 0.40 0.38 0.34 0.31 0.27 0.31 0.31 0.31 0.26 0.24 0.22 0.28 0.35 0.40 0.46 0.50 0.52 0.62 0.69 0.73 0.78 0.85 0.93 0.98 1.03 1.13 1.16 1.20 1.23 1.22 1.18 0.98 1.00 1.01 0.92 0.86 0.85 0.83 0.84 0.85 0.80 0.77
0.39 0.41 0.37 0.32 0.31 0.30 0.30 0.32 0.39 0.32 0.28 0.25 0.32 0.32 0.31 0.36 0.47 0.53 0.57 0.61 0.66 0.71 0.72 0.82 0.92 0.99 1.05 1.09 1.15 1.24 1.21 1.11 1.05 1.02 0.95 0.93 0.89 0.85 0.80 0.81 0.83 0.83 0.79 0.74
0.48 0.46 0.36 0.33 0.32 0.34 0.36 0.35 0.35 0.30 0.26 0.24 0.31 0.23 0.37 0.38 0.35 0.44 0.51 0.58 0.62 0.68 0.76 0.85 0.92 0.98 1.03 1.11 1.21 1.10 1.05 1.04 1.02 0.92 0.89 0.84 0.79 0.77 0.81 0.82 0.84 0.80 0.78 0.74
0.39 0.35 0.33 0.31 0.38 0.33 0.47 0.39 0.33 0.29 0.25 0.34 0.34 0.21 0.32 0.49 0.37 0.39 0.44 0.54 0.62 0.70 0.79 0.85 0.92 0.98 1.04 1.04 1.02 1.04 1.04 0.98 0.92 0.90 0.87 0.84 0.84 0.87 0.87 0.82 0.81 0.78 0.75 0.69
0.48 0.47 0.40 0.47 0.38 0.38 0.41 0.36 0.37 0.34 0.29 0.25 0.27 0.29 0.27 0.37 0.41 0.45 0.44 0.50 0.61 0.72 0.79 0.81 0.88 0.91 0.92 0.99 0.99 0.96 0.92 0.89 0.89 0.87 0.88 0.87 0.85 0.79 0.77 0.76 0.71 0.68 0.62 0.58
0.41 0.40 0.44 0.43 0.36 0.39 0.37 0.35 0.27 0.29 0.24 0.21 0.32 0.25 0.22 0.32 0.39 0.40 0.41 0.50 0.62 0.70 0.71 0.70 0.73 0.78 0.82 0.86 0.88 0.88 0.84 0.81 0.85 0.87 0.88 0.86 0.83 0.77 0.73 0.72 0.66 0.61 0.56 0.54
0.31 0.31 0.34 0.37 0.36 0.41 0.35 0.34 0.29 0.18 0.17 0.19 0.32 0.17 0.30 0.38 0.37 0.43 0.52 0.60 0.67 0.67 0.70 0.68 0.69 0.72 0.76 0.80 0.83 0.82 0.82 0.81 0.86 0.85 0.82 0.81 0.75 0.75 0.76 0.68 0.64 0.55 0.53 0.48
0.34 0.36 0.43 0.37 0.39 0.35 0.35 0.24 0.34 0.27 0.25 0.17 0.14 0.27 0.34 0.33 0.34 0.42 0.50 0.58 0.62 0.66 0.67 0.65 0.68 0.72 0.75 0.79 0.82 0.82 0.82 0.81 0.82 0.80 0.78 0.77 0.76 0.72 0.65 0.62 0.56 0.52 0.47 0.43
0.40 0.34 0.38 0.35 0.38 0.36 0.30 0.39 0.23 0.23 0.16 0.14 0.19 0.18 0.24 0.28 0.26 0.34 0.44 0.51 0.58 0.64 0.64 0.64 0.68 0.72 0.76 0.81 0.84 0.85 0.84 0.80 0.79 0.77 0.76 0.73 0.73 0.72 0.62 0.54 0.50 0.45 0.43 0.41
0.35 0.30 0.38 0.35 0.28 0.27 0.35 0.25 0.25 0.27 0.27 0.19 0.13 0.18 0.26 0.21 0.28 0.29 0.40 0.50 0.56 0.58 0.60 0.64 0.68 0.74 0.79 0.83 0.82 0.82 0.79 0.75 0.75 0.74 0.72 0.71 0.73 0.60 0.53 0.49 0.45 0.42 0.42 0.40
0.38 0.34 0.27 0.30 0.38 0.35 0.33 0.32 0.31 0.22 0.20 0.22 0.21 0.15 0.24 0.22 0.26 0.31 0.37 0.46 0.53 0.55 0.58 0.63 0.68 0.73 0.77 0.78 0.77 0.75 0.73 0.74 0.72 0.72 0.73 0.76 0.63 0.52 0.48 0.45 0.43 0.42 0.40 0.38
0.39 0.24 0.20 0.26 0.30 0.30 0.26 0.29 0.29 0.30 0.28 0.20 0.16 0.16 0.27 0.25 0.22 0.26 0.30 0.40 0.48 0.51 0.56 0.61 0.66 0.69 0.71 0.71 0.71 0.69 0.70 0.69 0.71 0.72 0.69 0.60 0.54 0.50 0.46 0.43 0.43 0.42 0.39 0.37
0.35 0.22 0.25 0.21 0.26 0.35 0.33 0.32 0.33 0.29 0.21 0.18 0.17 0.20 0.24 0.25 0.24 0.25 0.30 0.35 0.44 0.49 0.54 0.59 0.63 0.65 0.67 0.67 0.67 0.66 0.65 0.70 0.71 0.65 0.59 0.50 0.50 0.48 0.43 0.42 0.42 0.41 0.38 0.37
0.36 0.26 0.28 0.28 0.33 0.32 0.32 0.30 0.30 0.28 0.26 0.20 0.20 0.22 0.20 0.20 0.22 0.26 0.30 0.35 0.40 0.44 0.48 0.53 0.58 0.61 0.64 0.62 0.64 0.62 0.66 0.68 0.66 0.60 0.50 0.48 0.48 0.45 0.43 0.43 0.42 0.39 0.38 0.38
0.40 0.30 0.31 0.27 0.30 0.28 0.25 0.28 0.28 0.25 0.25 0.23 0.22 0.20 0.24 0.28 0.26 0.27 0.26 0.33 0.36 0.45 0.48 0.51 0.55 0.60 0.60 0.58 0.60 0.62 0.63 0.62 0.59 0.53 0.52 0.50 0.43 0.42 0.42 0.42 0.39 0.37 0.36 0.36
0.42 0.36 0.30 0.22 0.26 0.24 0.19 0.21 0.23 0.24 0.25 0.25 0.21 0.24 0.29 0.30 0.29 0.28 0.29 0.35 0.36 0.41 0.47 0.50 0.55 0.58 0.59 0.57 0.58 0.60 0.58 0.56 0.57 0.54 0.50 0.44 0.42 0.40 0.41 0.37 0.36 0.35 0.34 0.35
0.39 0.36 0.35 0.25 0.22 0.14 0.20 0.25 0.22 0.20 0.22 0.25 0.26 0.25 0.27 0.27 0.33 0.35 0.36 0.38 0.41 0.41 0.47 0.51 0.54 0.58 0.59 0.60 0.59 0.56 0.56 0.56 0.55 0.51 0.45 0.39 0.42 0.41 0.38 0.36 0.35 0.34 0.35 0.34
0.41 0.36 0.27 0.22 0.19 0.21 0.21 0.21 0.22 0.20 0.19 0.26 0.25 0.25 0.26 0.31 0.31 0.32 0.43 0.41 0.41 0.45 0.50 0.54 0.59 0.60 0.59 0.55 0.53 0.54 0.54 0.50 0.53 0.47 0.39 0.43 0.41 0.38 0.35 0.33 0.32 0.35 0.33 0.31
0.36 0.37 0.27 0.22 0.18 0.16 0.25 0.27 0.29 0.27 0.19 0.29 0.28 0.26 0.26 0.29 0.24 0.33 0.44 0.44 0.43 0.48 0.53 0.57 0.60 0.58 0.54 0.53 0.54 0.53 0.55 0.54 0.47 0.40 0.44 0.40 0.37 0.35 0.32 0.31 0.32 0.34 0.32 0.31
0.33 0.33 0.27 0.27 0.25 0.27 0.32 0.31 0.31 0.18 0.25 0.33 0.29 0.29 0.32 0.30 0.39 0.45 0.44 0.48 0.51 0.55 0.58 0.61 0.58 0.54 0.54 0.54 0.55 0.59 0.56 0.50 0.44 0.48 0.41 0.39 0.36 0.32 0.32 0.32 0.32 0.32 0.31 0.31
0.28 0.27 0.25 0.31 0.24 0.17 0.30 0.29 0.22 0.36 0.33 0.36 0.36 0.37 0.39 0.43 0.48 0.46 0.48 0.52 0.55 0.59 0.60 0.57 0.55 0.51 0.51 0.62 0.62 0.56 0.48 0.43 0.48 0.41 0.39 0.35 0.32 0.32 0.31 0.31 0.31 0.31 0.31 0.29
0.27 0.32 0.30 0.28 0.29 0.37 0.32 0.32 0.37 0.38 0.36 0.37 0.40 0.43 0.45 0.45 0.47 0.51 0.51 0.55 0.57 0.57 0.53 0.51 0.50 0.59 0.61 0.62 0.58 0.47 0.44 0.48 0.41 0.38 0.33 0.31 0.32 0.33 0.33 0.31 0.29 0.28 0.28 0.28
0.34 0.37 0.29 0.27 0.31 0.33 0.35 0.40 0.41 0.44 0.44 0.46 0.48 0.48 0.49 0.49 0.54 0.58 0.57 0.56 0.52 0.50 0.50 0.58 0.63 0.64 0.61 0.57 0.47 0.44 0.49 0.43 0.38 0.33 0.31 0.32 0.32 0.31 0.32 0.32 0.30 0.28 0.27 0.27
0.38 0.36 0.32 0.32 0.35 0.37 0.40 0.46 0.49 0.49 0.53 0.54 0.56 0.58 0.57 0.59 0.60 0.60 0.53 0.51 0.53 0.57 0.63 0.65 0.62 0.57 0.49 0.47 0.49 0.45 0.43 0.39 0.33 0.32 0.32 0.31 0.31 0.31 0.31 0.29 0.29 0.29 0.29 0.29
0.39 0.38 0.34 0.32 0.42 0.41 0.44 0.55 0.55 0.53 0.53 0.56 0.58 0.58 0.57 0.59 0.57 0.57 0.56 0.60 0.63 0.63 0.63 0.58 0.52 0.49 0.49 0.45 0.43 0.41 0.38 0.35 0.33 0.31 0.30 0.30 0.29 0.29 0.29 0.28 0.27 0.30 0.30 0.30

GFSCGP_prec_pwat_042.txt.gz
Precipitable_Water
0.49 0.41 0.36 0.40 0.40 0.43 0.38 0.34 0.32 0.29 0.31 0.27 0.27 0.31 0.30 0.39 0.53 0.61 0.60 0.57 0.56 0.55 0.62 0.72 0.76 0.81 0.97 1.12 1.14 1.17 1.17 1.16 1.16 1.17 1.12 1.01 0.91 0.94 0.93 0.95 0.87 0.82 0.81 0.77
0.47 0.35 0.44 0.49 0.44 0.38 0.32 0.32 0.30 0.27 0.26 0.21 0.25 0.25 0.31 0.30 0.40 0.54 0.60 0.59 0.60 0.62 0.63 0.74 0.81 0.86 1.01 1.06 1.13 1.17 1.15 1.21 1.22 1.18 1.06 0.94 0.95 0.92 0.85 0.81 0.82 0.85 0.80 0.76
0.48 0.41 0.50 0.41 0.35 0.31 0.32 0.39 0.36 0.37 0.29 0.20 0.26 0.20 0.29 0.34 0.40 0.48 0.55 0.63 0.69 0.69 0.69 0.76 0.82 0.87 0.93 1.08 1.13 1.15 1.18 1.21 1.16 1.02 1.03 0.98 0.86 0.82 0.80 0.81 0.82 0.84 0.81 0.77
0.48 0.50 0.44 0.38 0.34 0.35 0.35 0.48 0.38 0.40 0.32 0.19 0.34 0.27 0.31 0.41 0.40 0.43 0.48 0.50 0.59 0.68 0.79 0.81 0.87 0.92 1.01 1.12 1.18 1.17 1.21 1.09 1.09 1.03 0.89 0.83 0.77 0.75 0.79 0.82 0.86 0.84 0.83 0.78
0.41 0.44 0.40 0.37 0.38 0.40 0.34 0.42 0.41 0.35 0.29 0.31 0.35 0.32 0.39 0.41 0.40 0.43 0.52 0.55 0.59 0.67 0.76 0.80 0.87 0.97 1.04 1.11 1.10 1.17 1.11 1.04 1.02 0.89 0.88 0.82 0.81 0.82 0.84 0.86 0.86 0.86 0.85 0.79
0.47 0.57 0.52 0.41 0.41 0.37 0.42 0.34 0.35 0.31 0.30 0.29 0.37 0.38 0.36 0.41 0.49 0.58 0.63 0.57 0.58 0.66 0.74 0.86 0.98 1.05 1.03 1.09 1.09 1.06 1.00 1.04 0.97 0.88 0.87 0.84 0.83 0.81 0.81 0.81 0.80 0.79 0.75 0.68
0.39 0.38 0.47 0.43 0.34 0.36 0.34 0.32 0.28 0.34 0.31 0.21 0.28 0.28 0.31 0.46 0.51 0.51 0.53 0.59 0.62 0.67 0.75 0.83 0.92 0.95 0.93 0.93 0.96 1.03 0.98 0.91 0.90 0.87 0.87 0.87 0.86 0.84 0.77 0.74 0.73 0.71 0.65 0.61
0.32 0.34 0.39 0.37 0.35 0.39 0.38 0.32 0.28 0.27 0.29 0.28 0.35 0.27 0.27 0.38 0.41 0.41 0.49 0.53 0.63 0.72 0.76 0.78 0.83 0.83 0.87 0.94 0.93 0.90 0.88 0.86 0.86 0.86 0.86 0.85 0.83 0.78 0.74 0.76 0.72 0.70 0.60 0.52
0.35 0.38 0.54 0.45 0.39 0.37 0.43 0.32 0.39 0.31 0.31 0.20 0.16 0.16 0.36 0.43 0.36 0.35 0.43 0.52 0.61 0.67 0.71 0.72 0.77 0.79 0.83 0.85 0.84 0.82 0.82 0.82 0.83 0.83 0.82 0.79 0.77 0.73 0.72 0.69 0.72 0.64 0.55 0.48
0.43 0.38 0.53 0.47 0.39 0.31 0.27 0.33 0.27 0.26 0.15 0.13 0.18 0.22 0.32 0.42 0.37 0.32 0.42 0.49 0.57 0.62 0.66 0.67 0.67 0.69 0.74 0.79 0.82 0.84 0.86 0.82 0.82 0.80 0.80 0.79 0.74 0.73 0.71 0.72 0.64 0.57 0.52 0.44
0.41 0.40 0.48 0.48 0.32 0.22 0.35 0.33 0.26 0.23 0.29 0.22 0.16 0.24 0.30 0.31 0.31 0.27 0.39 0.50 0.55 0.57 0.61 0.62 0.62 0.67 0.73 0.78 0.82 0.84 0.85 0.82 0.78 0.77 0.78 0.74 0.73 0.73 0.70 0.65 0.60 0.56 0.46 0.41
0.33 0.38 0.36 0.37 0.40 0.36 0.34 0.35 0.35 0.26 0.20 0.25 0.21 0.19 0.33 0.28 0.26 0.29 0.35 0.48 0.57 0.60 0.61 0.62 0.63 0.67 0.71 0.75 0.80 0.82 0.85 0.81 0.77 0.76 0.74 0.73 0.72 0.72 0.64 0.61 0.57 0.49 0.44 0.44
0.38 0.30 0.24 0.26 0.33 0.37 0.28 0.23 0.26 0.29 0.34 0.23 0.23 0.19 0.32 0.29 0.28 0.30 0.29 0.39 0.51 0.58 0.62 0.63 0.67 0.67 0.70 0.73 0.78 0.81 0.80 0.76 0.74 0.72 0.72 0.71 0.69 0.65 0.58 0.59 0.51 0.46 0.46 0.43
0.42 0.34 0.25 0.19 0.21 0.36 0.35 0.37 0.31 0.31 0.26 0.23 0.22 0.21 0.27 0.29 0.30 0.30 0.31 0.33 0.39 0.53 0.57 0.61 0.68 0.72 0.74 0.75 0.76 0.77 0.74 0.73 0.68 0.71 0.70 0.64 0.62 0.62 0.57 0.53 0.48 0.46 0.44 0.41
0.32 0.22 0.21 0.23 0.29 0.34 0.32 0.35 0.34 0.31 0.32 0.27 0.26 0.25 0.26 0.29 0.29 0.30 0.32 0.34 0.36 0.39 0.52 0.57 0.67 0.71 0.75 0.73 0.74 0.71 0.69 0.65 0.69 0.68 0.62 0.61 0.58 0.57 0.58 0.50 0.45 0.45 0.45 0.42
0.33 0.23 0.30 0.30 0.35 0.32 0.27 0.27 0.28 0.27 0.29 0.27 0.28 0.27 0.33 0.31 0.35 0.32 0.32 0.31 0.30 0.37 0.47 0.57 0.60 0.64 0.69 0.71 0.69 0.67 0.63 0.64 0.66 0.61 0.57 0.57 0.58 0.57 0.51 0.44 0.46 0.47 0.43 0.40
0.36 0.31 0.32 0.24 0.30 0.26 0.19 0.20 0.22 0.23 0.27 0.28 0.24 0.28 0.33 0.31 0.31 0.33 0.33 0.34 0.34 0.38 0.42 0.55 0.59 0.60 0.65 0.68 0.66 0.62 0.63 0.62 0.57 0.55 0.57 0.57 0.57 0.50 0.44 0.47 0.47 0.41 0.40 0.39
0.46 0.42 0.39 0.27 0.26 0.16 0.22 0.28 0.25 0.23 0.23 0.24 0.27 0.29 0.29 0.32 0.34 0.35 0.36 0.34 0.37 0.44 0.44 0.49 0.57 0.59 0.64 0.68 0.66 0.64 0.60 0.56 0.55 0.56 0.56 0.55 0.53 0.47 0.48 0.46 0.41 0.39 0.40 0.38
0.52 0.44 0.31 0.25 0.23 0.24 0.26 0.27 0.23 0.22 0.23 0.28 0.26 0.28 0.29 0.32 0.28 0.35 0.42 0.44 0.43 0.44 0.46 0.49 0.56 0.61 0.65 0.65 0.63 0.59 0.56 0.56 0.53 0.53 0.57 0.51 0.48 0.48 0.46 0.40 0.37 0.38 0.37 0.37
0.42 0.43 0.31 0.25 0.21 0.16 0.29 0.32 0.31 0.27 0.20 0.33 0.32 0.31 0.30 0.29 0.24 0.36 0.46 0.48 0.46 0.46 0.49 0.53 0.59 0.63 0.63 0.61 0.59 0.56 0.54 0.52 0.56 0.52 0.52 0.53 0.49 0.42 0.38 0.39 0.36 0.36 0.36 0.34
0.32 0.31 0.26 0.27 0.24 0.28 0.37 0.36 0.35 0.20 0.27 0.40 0.38 0.33 0.33 0.32 0.41 0.47 0.50 0.48 0.52 0.52 0.58 0.62 0.64 0.63 0.61 0.58 0.55 0.54 0.57 0.59 0.59 0.56 0.54 0.48 0.46 0.43 0.39 0.37 0.36 0.34 0.32 0.32
0.29 0.29 0.29 0.33 0.29 0.21 0.37 0.32 0.24 0.38 0.41 0.36 0.35 0.38 0.39 0.42 0.43 0.50 0.50 0.48 0.53 0.58 0.60 0.62 0.57 0.56 0.58 0.60 0.61 0.59 0.59 0.57 0.55 0.56 0.51 0.47 0.43 0.40 0.38 0.37 0.34 0.33 0.32 0.31
0.29 0.33 0.31 0.30 0.31 0.39 0.36 0.33 0.39 0.40 0.37 0.41 0.42 0.43 0.44 0.43 0.45 0.50 0.56 0.57 0.58 0.55 0.54 0.54 0.55 0.57 0.61 0.63 0.62 0.59 0.56 0.54 0.54 0.50 0.45 0.41 0.39 0.38 0.35 0.33 0.31 0.31 0.30 0.28
0.37 0.42 0.32 0.31 0.31 0.36 0.39 0.42 0.48 0.49 0.47 0.47 0.50 0.53 0.53 0.51 0.55 0.57 0.58 0.56 0.53 0.54 0.55 0.59 0.60 0.60 0.61 0.62 0.57 0.54 0.53 0.53 0.48 0.43 0.39 0.37 0.34 0.32 0.31 0.31 0.31 0.31 0.30 0.29
0.40 0.39 0.31 0.31 0.36 0.39 0.46 0.52 0.51 0.52 0.54 0.52 0.56 0.55 0.52 0.55 0.57 0.55 0.52 0.53 0.57 0.58 0.59 0.60 0.60 0.58 0.54 0.54 0.55 0.53 0.50 0.46 0.40 0.35 0.32 0.31 0.29 0.28 0.29 0.30 0.30 0.29 0.30 0.30
0.41 0.37 0.31 0.32 0.45 0.45 0.50 0.53 0.53 0.48 0.47 0.50 0.52 0.50 0.53 0.53 0.51 0.55 0.56 0.59 0.59 0.59 0.61 0.59 0.57 0.55 0.54 0.50 0.44 0.42 0.39 0.34 0.30 0.27 0.25 0.25 0.26 0.27 0.27 0.27 0.27 0.30 0.30 0.30

GFSCGP_prec_pwat_045.txt.gz
Precipitable_Water
0.59 0.42 0.35 0.42 0.44 0.41 0.40 0.36 0.35 0.35 0.41 0.36 0.37 0.35 0.37 0.41 0.54 0.57 0.56 0.54 0.53 0.51 0.61 0.68 0.77 0.87 0.95 1.01 1.06 1.13 1.16 1.19 1.12 1.08 1.10 1.11 1.06 1.01 0.97 0.94 0.92 0.88 0.82 0.74
0.45 0.40 0.52 0.46 0.43 0.40 0.38 0.36 0.37 0.38 0.37 0.29 0.28 0.29 0.36 0.41 0.47 0.55 0.55 0.51 0.49 0.50 0.55 0.62 0.73 0.87 0.90 0.97 1.07 1.11 1.18 1.15 1.09 1.12 1.10 1.04 0.93 0.89 0.88 0.87 0.85 0.80 0.76 0.73
0.40 0.45 0.50 0.47 0.43 0.38 0.40 0.36 0.36 0.33 0.34 0.26 0.24 0.24 0.28 0.35 0.41 0.53 0.55 0.54 0.52 0.51 0.53 0.58 0.66 0.82 0.92 0.96 1.04 1.09 1.14 1.11 1.10 1.16 1.09 0.97 0.92 0.88 0.80 0.75 0.74 0.79 0.78 0.76
0.45 0.48 0.47 0.45 0.43 0.43 0.36 0.43 0.41 0.36 0.28 0.19 0.30 0.21 0.31 0.34 0.38 0.50 0.57 0.56 0.61 0.66 0.69 0.66 0.69 0.84 0.92 0.99 1.12 1.18 1.16 1.14 1.13 1.14 0.97 0.91 0.79 0.67 0.70 0.74 0.79 0.79 0.81 0.79
0.40 0.39 0.41 0.40 0.41 0.47 0.36 0.38 0.40 0.41 0.40 0.36 0.34 0.27 0.30 0.41 0.39 0.44 0.50 0.58 0.64 0.68 0.71 0.74 0.79 0.87 1.01 1.08 1.09 1.16 1.15 1.14 1.14 1.03 0.99 0.84 0.75 0.77 0.78 0.78 0.79 0.83 0.80 0.79
0.39 0.49 0.47 0.46 0.48 0.41 0.41 0.31 0.37 0.42 0.39 0.29 0.31 0.30 0.33 0.35 0.40 0.46 0.48 0.61 0.67 0.74 0.76 0.85 0.93 1.01 1.03 1.04 1.09 1.13 1.09 1.04 1.04 1.01 0.92 0.85 0.79 0.76 0.76 0.80 0.81 0.81 0.81 0.77
0.39 0.37 0.51 0.53 0.42 0.44 0.35 0.33 0.27 0.25 0.25 0.22 0.36 0.36 0.35 0.42 0.41 0.42 0.45 0.51 0.64 0.74 0.81 0.85 0.89 0.94 0.97 0.99 1.04 1.05 1.08 1.01 1.00 0.93 0.87 0.85 0.81 0.80 0.80 0.81 0.81 0.75 0.71 0.67
0.33 0.32 0.45 0.51 0.43 0.37 0.40 0.35 0.29 0.23 0.25 0.28 0.39 0.33 0.32 0.44 0.51 0.49 0.51 0.53 0.56 0.66 0.77 0.82 0.87 0.92 0.94 0.97 1.01 0.98 0.98 0.92 0.95 0.90 0.87 0.86 0.81 0.79 0.80 0.80 0.78 0.73 0.72 0.70
0.32 0.35 0.52 0.52 0.49 0.46 0.33 0.34 0.44 0.32 0.35 0.28 0.25 0.28 0.42 0.42 0.46 0.46 0.43 0.50 0.59 0.61 0.66 0.74 0.83 0.88 0.91 0.93 0.88 0.91 0.95 0.93 0.88 0.88 0.87 0.83 0.82 0.82 0.80 0.78 0.74 0.75 0.73 0.67
0.36 0.33 0.49 0.53 0.54 0.43 0.35 0.37 0.32 0.30 0.18 0.14 0.17 0.24 0.32 0.39 0.46 0.48 0.43 0.44 0.50 0.59 0.65 0.72 0.77 0.80 0.83 0.83 0.88 0.90 0.89 0.86 0.87 0.88 0.86 0.82 0.80 0.80 0.78 0.73 0.71 0.74 0.70 0.62
0.38 0.34 0.38 0.47 0.43 0.30 0.34 0.31 0.31 0.28 0.24 0.20 0.18 0.21 0.37 0.37 0.36 0.35 0.40 0.43 0.47 0.52 0.57 0.62 0.67 0.73 0.78 0.82 0.85 0.86 0.85 0.83 0.83 0.83 0.83 0.83 0.82 0.80 0.77 0.72 0.69 0.69 0.69 0.60
0.42 0.36 0.34 0.39 0.49 0.47 0.35 0.33 0.36 0.26 0.21 0.25 0.21 0.17 0.34 0.36 0.36 0.37 0.41 0.47 0.53 0.55 0.59 0.63 0.64 0.67 0.69 0.70 0.72 0.76 0.80 0.81 0.83 0.83 0.82 0.81 0.81 0.79 0.73 0.70 0.69 0.68 0.62 0.49
0.42 0.32 0.29 0.33 0.44 0.45 0.34 0.35 0.29 0.31 0.33 0.25 0.21 0.20 0.33 0.32 0.33 0.37 0.37 0.43 0.54 0.59 0.63 0.66 0.67 0.67 0.68 0.72 0.81 0.84 0.82 0.81 0.80 0.81 0.81 0.82 0.78 0.73 0.69 0.66 0.68 0.62 0.55 0.49
0.40 0.34 0.27 0.20 0.24 0.24 0.32 0.35 0.35 0.30 0.22 0.21 0.23 0.25 0.29 0.30 0.31 0.34 0.34 0.37 0.49 0.55 0.60 0.65 0.68 0.69 0.73 0.84 0.93 0.93 0.85 0.85 0.82 0.79 0.77 0.74 0.70 0.69 0.64 0.65 0.59 0.59 0.55 0.47
0.38 0.25 0.31 0.29 0.25 0.27 0.31 0.32 0.35 0.36 0.33 0.29 0.30 0.30 0.31 0.32 0.35 0.35 0.38 0.38 0.39 0.44 0.57 0.62 0.66 0.72 0.81 0.85 0.89 0.90 0.87 0.82 0.78 0.72 0.71 0.68 0.66 0.64 0.61 0.60 0.63 0.57 0.50 0.48
0.36 0.24 0.23 0.21 0.26 0.28 0.26 0.30 0.29 0.33 0.31 0.29 0.29 0.29 0.37 0.38 0.39 0.37 0.37 0.37 0.37 0.42 0.45 0.53 0.64 0.73 0.74 0.78 0.79 0.80 0.75 0.73 0.72 0.70 0.67 0.61 0.59 0.58 0.60 0.64 0.56 0.52 0.50 0.48
0.25 0.21 0.20 0.17 0.25 0.26 0.22 0.21 0.22 0.21 0.24 0.26 0.22 0.30 0.35 0.34 0.35 0.37 0.37 0.38 0.38 0.38 0.40 0.48 0.60 0.67 0.73 0.74 0.73 0.68 0.69 0.71 0.69 0.65 0.60 0.59 0.58 0.60 0.63 0.56 0.52 0.50 0.48 0.44
0.33 0.30 0.31 0.24 0.29 0.18 0.23 0.28 0.26 0.25 0.27 0.29 0.29 0.31 0.33 0.34 0.38 0.39 0.40 0.37 0.37 0.41 0.43 0.46 0.53 0.60 0.66 0.67 0.66 0.67 0.68 0.66 0.64 0.61 0.59 0.57 0.58 0.61 0.57 0.54 0.52 0.47 0.46 0.44
0.50 0.43 0.36 0.29 0.25 0.26 0.26 0.28 0.25 0.23 0.24 0.30 0.27 0.29 0.33 0.34 0.36 0.36 0.42 0.42 0.42 0.44 0.46 0.49 0.52 0.56 0.60 0.62 0.64 0.64 0.63 0.62 0.60 0.58 0.57 0.60 0.60 0.56 0.55 0.49 0.48 0.46 0.43 0.41
0.46 0.48 0.38 0.33 0.22 0.16 0.27 0.32 0.33 0.30 0.22 0.35 0.33 0.32 0.32 0.33 0.25 0.34 0.44 0.47 0.48 0.50 0.52 0.50 0.51 0.54 0.56 0.59 0.61 0.60 0.58 0.58 0.58 0.60 0.62 0.62 0.60 0.55 0.50 0.48 0.44 0.43 0.39 0.35
0.32 0.36 0.30 0.28 0.22 0.25 0.35 0.37 0.36 0.22 0.26 0.40 0.40 0.37 0.34 0.30 0.37 0.46 0.50 0.52 0.53 0.51 0.52 0.54 0.56 0.57 0.59 0.61 0.62 0.62 0.62 0.61 0.64 0.67 0.65 0.61 0.57 0.52 0.47 0.43 0.40 0.35 0.33 0.32
0.31 0.27 0.27 0.32 0.25 0.19 0.39 0.36 0.28 0.37 0.41 0.40 0.39 0.38 0.36 0.39 0.42 0.47 0.51 0.49 0.47 0.49 0.55 0.59 0.59 0.59 0.61 0.63 0.62 0.60 0.60 0.63 0.63 0.64 0.60 0.56 0.50 0.45 0.40 0.35 0.32 0.32 0.30 0.28
0.27 0.31 0.28 0.31 0.30 0.39 0.38 0.40 0.44 0.44 0.41 0.43 0.42 0.44 0.42 0.43 0.47 0.49 0.47 0.50 0.52 0.54 0.56 0.59 0.59 0.60 0.61 0.62 0.62 0.60 0.60 0.61 0.60 0.56 0.49 0.43 0.38 0.33 0.31 0.29 0.28 0.27 0.28 0.27
0.39 0.45 0.36 0.34 0.38 0.38 0.43 0.46 0.46 0.46 0.45 0.48 0.47 0.46 0.48 0.47 0.49 0.50 0.53 0.53 0.53 0.55 0.56 0.59 0.58 0.56 0.56 0.58 0.58 0.56 0.55 0.52 0.46 0.41 0.36 0.31 0.27 0.26 0.27 0.26 0.26 0.26 0.27 0.26
0.40 0.41 0.37 0.35 0.40 0.43 0.46 0.49 0.49 0.50 0.51 0.49 0.49 0.49 0.50 0.50 0.50 0.52 0.53 0.54 0.55 0.55 0.55 0.56 0.55 0.55 0.52 0.52 0.49 0.48 0.43 0.37 0.32 0.28 0.24 0.23 0.23 0.23 0.23 0.25 0.26 0.27 0.29 0.29
0.43 0.37 0.29 0.28 0.40 0.40 0.43 0.49 0.52 0.50 0.50 0.49 0.48 0.48 0.52 0.52 0.50 0.52 0.53 0.54 0.55 0.55 0.56 0.55 0.52 0.49 0.46 0.42 0.36 0.32 0.30 0.26 0.22 0.21 0.21 0.20 0.21 0.22 0.24 0.24 0.25 0.30 0.30 0.30

GFSCGP_prec_pwat_048.txt.gz
Precipitable_Water
0.50 0.37 0.35 0.44 0.46 0.44 0.38 0.35 0.35 0.38 0.44 0.40 0.39 0.40 0.41 0.52 0.65 0.62 0.64 0.67 0.67 0.74 0.77 0.82 0.84 0.89 0.89 0.94 0.95 0.91 0.96 1.07 1.12 1.08 1.03 1.05 1.01 1.04 0.99 0.98 0.96 0.92 0.89 0.85
0.43 0.35 0.46 0.50 0.47 0.44 0.41 0.37 0.37 0.39 0.42 0.39 0.40 0.34 0.37 0.48 0.56 0.61 0.59 0.64 0.60 0.67 0.72 0.77 0.81 0.83 0.86 0.90 0.96 1.00 1.00 1.08 1.12 1.07 1.09 1.09 1.07 1.05 1.00 0.95 0.90 0.85 0.81 0.77
0.39 0.41 0.47 0.47 0.43 0.41 0.40 0.36 0.38 0.35 0.37 0.35 0.30 0.29 0.35 0.42 0.53 0.62 0.64 0.61 0.62 0.58 0.64 0.70 0.76 0.80 0.86 0.87 0.91 0.98 1.06 1.11 1.14 1.12 1.09 1.07 1.08 0.97 0.86 0.83 0.80 0.84 0.76 0.72
0.40 0.45 0.42 0.45 0.42 0.43 0.35 0.40 0.41 0.37 0.29 0.23 0.32 0.18 0.24 0.33 0.40 0.53 0.59 0.62 0.57 0.58 0.68 0.72 0.76 0.81 0.86 0.90 0.99 1.04 1.10 1.11 1.17 1.11 1.04 1.02 0.90 0.78 0.80 0.79 0.77 0.75 0.75 0.76
0.36 0.38 0.42 0.40 0.41 0.45 0.38 0.42 0.40 0.37 0.33 0.31 0.27 0.24 0.26 0.31 0.34 0.45 0.54 0.59 0.58 0.58 0.63 0.71 0.79 0.83 0.92 1.00 1.05 1.12 1.17 1.13 1.14 1.10 1.09 1.00 0.84 0.85 0.80 0.73 0.73 0.78 0.79 0.78
0.40 0.48 0.47 0.44 0.47 0.49 0.48 0.40 0.39 0.39 0.36 0.28 0.32 0.31 0.29 0.34 0.35 0.37 0.47 0.55 0.59 0.63 0.68 0.75 0.86 0.92 0.97 1.06 1.10 1.15 1.12 1.09 1.14 1.11 1.07 0.91 0.82 0.77 0.72 0.73 0.76 0.78 0.79 0.78
0.40 0.41 0.47 0.51 0.43 0.45 0.43 0.34 0.26 0.27 0.27 0.25 0.37 0.33 0.33 0.40 0.41 0.40 0.40 0.51 0.60 0.66 0.67 0.73 0.81 0.89 0.96 0.98 1.09 1.11 1.09 1.05 1.09 1.06 0.96 0.89 0.81 0.78 0.76 0.78 0.80 0.79 0.75 0.79
0.32 0.29 0.41 0.50 0.48 0.44 0.44 0.37 0.25 0.21 0.22 0.24 0.35 0.26 0.34 0.43 0.47 0.48 0.47 0.49 0.54 0.60 0.67 0.72 0.83 0.88 0.91 1.03 1.15 1.10 1.07 1.00 1.00 0.99 0.95 0.93 0.86 0.83 0.84 0.84 0.83 0.83 0.79 0.76
0.29 0.31 0.48 0.48 0.53 0.50 0.41 0.34 0.42 0.33 0.34 0.27 0.26 0.27 0.40 0.44 0.41 0.45 0.45 0.45 0.46 0.51 0.60 0.68 0.79 0.86 0.94 1.04 1.05 1.10 1.05 1.02 0.99 0.98 0.91 0.87 0.87 0.85 0.87 0.85 0.86 0.80 0.82 0.77
0.32 0.28 0.42 0.45 0.48 0.49 0.43 0.43 0.31 0.34 0.22 0.19 0.21 0.25 0.30 0.39 0.40 0.42 0.37 0.36 0.44 0.54 0.62 0.72 0.80 0.82 0.92 0.98 1.03 1.04 1.00 0.93 0.94 0.93 0.90 0.87 0.88 0.90 0.88 0.86 0.83 0.79 0.81 0.74
0.33 0.32 0.34 0.42 0.37 0.33 0.35 0.30 0.32 0.29 0.27 0.21 0.18 0.21 0.35 0.38 0.35 0.34 0.37 0.40 0.42 0.50 0.59 0.65 0.74 0.83 0.91 0.94 0.91 0.86 0.87 0.89 0.92 0.93 0.93 0.90 0.89 0.88 0.87 0.85 0.77 0.81 0.80 0.77
0.37 0.34 0.29 0.31 0.43 0.49 0.43 0.35 0.37 0.30 0.28 0.27 0.22 0.19 0.32 0.36 0.39 0.41 0.42 0.48 0.51 0.51 0.53 0.56 0.59 0.63 0.68 0.72 0.75 0.77 0.84 0.88 0.91 0.89 0.88 0.82 0.82 0.86 0.84 0.83 0.82 0.81 0.77 0.74
0.41 0.36 0.29 0.30 0.36 0.43 0.39 0.37 0.38 0.35 0.33 0.25 0.22 0.21 0.31 0.32 0.36 0.39 0.41 0.45 0.52 0.54 0.57 0.62 0.68 0.69 0.72 0.75 0.81 0.85 0.88 0.94 0.94 0.93 0.86 0.82 0.87 0.83 0.90 0.75 0.70 0.79 0.71 0.66
0.41 0.38 0.31 0.24 0.27 0.38 0.34 0.35 0.37 0.34 0.25 0.25 0.24 0.24 0.29 0.32 0.33 0.35 0.39 0.43 0.49 0.54 0.60 0.64 0.68 0.73 0.83 0.87 0.94 0.92 0.91 0.96 0.93 0.89 0.92 0.86 0.82 0.83 0.69 0.70 0.75 0.67 0.61 0.59
0.43 0.32 0.34 0.33 0.31 0.31 0.31 0.29 0.32 0.31 0.34 0.29 0.29 0.30 0.33 0.36 0.36 0.36 0.38 0.39 0.42 0.53 0.60 0.64 0.67 0.74 0.80 0.84 0.86 0.87 0.89 0.92 0.93 0.90 0.84 0.80 0.78 0.71 0.70 0.69 0.66 0.67 0.62 0.60
0.42 0.30 0.31 0.29 0.34 0.33 0.27 0.26 0.29 0.28 0.31 0.32 0.33 0.30 0.37 0.37 0.38 0.37 0.37 0.39 0.40 0.44 0.47 0.56 0.68 0.71 0.72 0.77 0.80 0.85 0.88 0.90 0.88 0.81 0.73 0.73 0.71 0.67 0.68 0.67 0.67 0.64 0.62 0.56
0.36 0.32 0.27 0.21 0.26 0.23 0.18 0.19 0.21 0.25 0.28 0.27 0.24 0.33 0.38 0.37 0.37 0.39 0.41 0.42 0.43 0.45 0.48 0.50 0.53 0.60 0.69 0.74 0.79 0.81 0.84 0.82 0.72 0.68 0.70 0.68 0.66 0.65 0.64 0.64 0.62 0.61 0.57 0.56
0.34 0.29 0.24 0.16 0.18 0.10 0.19 0.26 0.25 0.22 0.24 0.27 0.27 0.31 0.33 0.35 0.41 0.43 0.45 0.42 0.42 0.44 0.45 0.48 0.53 0.58 0.64 0.68 0.67 0.67 0.67 0.65 0.66 0.65 0.63 0.62 0.62 0.63 0.64 0.64 0.61 0.62 0.57 0.49
0.43 0.36 0.25 0.20 0.17 0.23 0.25 0.27 0.25 0.23 0.26 0.32 0.30 0.34 0.38 0.41 0.41 0.41 0.47 0.47 0.45 0.46 0.47 0.48 0.50 0.53 0.56 0.59 0.63 0.63 0.63 0.64 0.63 0.63 0.63 0.64 0.66 0.63 0.63 0.65 0.61 0.53 0.48 0.43
0.53 0.51 0.37 0.33 0.25 0.22 0.29 0.32 0.35 0.33 0.23 0.36 0.35 0.35 0.34 0.34 0.26 0.36 0.48 0.48 0.46 0.46 0.48 0.48 0.50 0.50 0.53 0.58 0.62 0.62 0.61 0.62 0.61 0.63 0.65 0.65 0.67 0.69 0.63 0.55 0.49 0.43 0.38 0.33
0.37 0.40 0.32 0.29 0.27 0.27 0.34 0.35 0.37 0.21 0.23 0.39 0.40 0.40 0.39 0.34 0.38 0.43 0.45 0.44 0.47 0.47 0.47 0.50 0.53 0.55 0.58 0.60 0.61 0.60 0.60 0.60 0.64 0.67 0.68 0.71 0.67 0.57 0.50 0.43 0.38 0.34 0.29 0.26
0.31 0.27 0.28 0.31 0.26 0.22 0.41 0.35 0.27 0.35 0.44 0.45 0.43 0.42 0.39 0.39 0.41 0.41 0.42 0.43 0.45 0.48 0.51 0.55 0.55 0.56 0.58 0.59 0.59 0.60 0.63 0.67 0.69 0.69 0.63 0.59 0.53 0.46 0.39 0.31 0.25 0.25 0.24 0.23
0.26 0.30 0.29 0.33 0.30 0.41 0.42 0.40 0.46 0.46 0.41 0.41 0.43 0.46 0.42 0.39 0.39 0.42 0.45 0.48 0.50 0.52 0.54 0.55 0.55 0.56 0.58 0.59 0.61 0.57 0.59 0.60 0.58 0.53 0.48 0.42 0.36 0.30 0.25 0.22 0.22 0.22 0.23 0.23
0.39 0.44 0.34 0.34 0.42 0.41 0.43 0.46 0.47 0.47 0.46 0.48 0.48 0.47 0.46 0.42 0.44 0.45 0.48 0.50 0.51 0.53 0.53 0.56 0.55 0.53 0.53 0.55 0.55 0.55 0.53 0.50 0.44 0.38 0.33 0.27 0.21 0.20 0.21 0.22 0.22 0.22 0.22 0.22
0.38 0.40 0.35 0.37 0.44 0.44 0.45 0.45 0.46 0.46 0.49 0.50 0.51 0.49 0.47 0.46 0.46 0.48 0.48 0.49 0.50 0.51 0.53 0.54 0.53 0.52 0.52 0.53 0.49 0.45 0.41 0.36 0.28 0.23 0.20 0.19 0.19 0.19 0.19 0.20 0.22 0.23 0.25 0.26
0.41 0.35 0.32 0.30 0.44 0.42 0.42 0.48 0.52 0.50 0.50 0.52 0.50 0.49 0.49 0.50 0.49 0.49 0.49 0.51 0.52 0.53 0.53 0.51 0.50 0.47 0.45 0.41 0.36 0.32 0.28 0.26 0.22 0.20 0.20 0.21 0.21 0.22 0.22 0.23 0.23 0.27 0.29 0.31

GFSCGP_prec_pwat_051.txt.gz
Precipitable_Water
0.49 0.37 0.31 0.36 0.39 0.39 0.39 0.36 0.33 0.37 0.40 0.40 0.40 0.39 0.43 0.60 0.64 0.54 0.58 0.64 0.69 0.72 0.83 0.93 0.96 0.96 1.00 1.00 1.05 1.01 0.94 0.98 1.02 1.04 1.04 1.09 1.07 1.10 1.09 1.07 1.01 0.97 0.97 0.92
0.41 0.33 0.40 0.46 0.43 0.39 0.38 0.35 0.34 0.41 0.44 0.41 0.37 0.37 0.43 0.51 0.56 0.61 0.61 0.67 0.67 0.71 0.78 0.84 0.89 0.91 0.92 0.93 0.99 1.05 1.01 0.98 1.05 1.10 1.09 1.09 1.07 1.08 1.06 1.02 0.99 0.97 0.92 0.82
0.36 0.40 0.46 0.43 0.41 0.39 0.38 0.37 0.37 0.38 0.41 0.39 0.35 0.30 0.36 0.44 0.58 0.65 0.68 0.70 0.72 0.67 0.68 0.76 0.77 0.82 0.86 0.87 0.91 0.96 1.00 1.03 1.05 1.11 1.12 1.07 1.07 1.07 1.01 0.96 0.93 0.92 0.84 0.79
0.37 0.45 0.42 0.41 0.38 0.42 0.35 0.44 0.41 0.39 0.36 0.25 0.34 0.19 0.26 0.34 0.41 0.58 0.64 0.69 0.69 0.68 0.71 0.73 0.77 0.82 0.84 0.89 0.97 1.01 1.03 1.08 1.11 1.13 1.11 1.04 0.98 0.96 0.96 0.93 0.89 0.84 0.80 0.72
0.33 0.38 0.38 0.38 0.39 0.44 0.39 0.45 0.42 0.38 0.35 0.34 0.30 0.24 0.23 0.28 0.33 0.44 0.58 0.65 0.68 0.68 0.69 0.70 0.76 0.81 0.89 0.97 0.98 1.05 1.10 1.15 1.18 1.15 1.16 1.10 1.00 1.02 0.95 0.89 0.82 0.80 0.74 0.72
0.38 0.48 0.44 0.43 0.45 0.45 0.46 0.41 0.41 0.41 0.37 0.26 0.30 0.29 0.23 0.29 0.32 0.39 0.49 0.60 0.67 0.67 0.70 0.76 0.80 0.85 0.90 1.00 1.04 1.07 1.11 1.17 1.18 1.14 1.17 1.08 0.99 0.98 0.86 0.81 0.75 0.73 0.72 0.74
0.32 0.39 0.45 0.50 0.41 0.45 0.42 0.36 0.25 0.23 0.24 0.23 0.34 0.30 0.29 0.35 0.40 0.40 0.41 0.46 0.58 0.66 0.69 0.70 0.74 0.81 0.88 0.95 1.01 1.04 1.10 1.16 1.21 1.15 1.12 1.05 1.02 0.87 0.83 0.78 0.73 0.74 0.76 0.80
0.25 0.27 0.39 0.47 0.43 0.38 0.39 0.37 0.27 0.18 0.19 0.23 0.33 0.25 0.28 0.41 0.43 0.46 0.44 0.44 0.48 0.56 0.63 0.67 0.73 0.80 0.86 0.95 1.00 1.07 1.11 1.16 1.17 1.09 1.06 1.04 0.95 0.87 0.85 0.81 0.82 0.88 0.85 0.84
0.26 0.29 0.45 0.48 0.49 0.45 0.38 0.34 0.42 0.32 0.33 0.26 0.27 0.28 0.33 0.39 0.40 0.46 0.45 0.46 0.46 0.53 0.58 0.62 0.71 0.79 0.84 0.90 0.97 1.04 1.18 1.15 1.10 1.06 1.02 1.00 0.99 0.93 0.89 0.94 0.94 0.91 0.87 0.85
0.29 0.26 0.40 0.46 0.49 0.47 0.41 0.45 0.32 0.32 0.22 0.20 0.23 0.22 0.24 0.35 0.39 0.42 0.36 0.38 0.42 0.51 0.57 0.62 0.69 0.75 0.82 0.89 0.96 1.10 1.12 1.06 1.06 1.00 0.99 1.00 0.98 0.97 0.94 0.90 0.93 0.88 0.91 0.87
0.33 0.27 0.31 0.40 0.36 0.33 0.38 0.36 0.37 0.32 0.29 0.20 0.20 0.22 0.31 0.35 0.33 0.29 0.31 0.37 0.40 0.44 0.52 0.57 0.64 0.70 0.73 0.84 0.93 1.00 1.01 0.99 0.94 0.92 0.94 1.00 0.98 0.96 0.94 0.89 0.86 0.86 0.85 0.90
0.32 0.28 0.25 0.28 0.37 0.44 0.41 0.37 0.36 0.26 0.26 0.28 0.27 0.22 0.31 0.33 0.38 0.39 0.36 0.39 0.46 0.49 0.50 0.48 0.52 0.63 0.72 0.79 0.85 0.89 0.91 0.90 0.94 1.04 1.06 1.01 0.97 0.92 0.88 0.85 0.85 0.81 0.89 0.86
0.33 0.28 0.22 0.26 0.33 0.42 0.38 0.42 0.39 0.36 0.33 0.27 0.23 0.23 0.33 0.32 0.30 0.34 0.38 0.41 0.45 0.54 0.57 0.59 0.63 0.64 0.69 0.76 0.84 0.92 0.98 0.98 1.01 1.03 0.99 0.94 0.90 0.92 0.89 0.84 0.83 0.92 0.78 0.75
0.38 0.31 0.26 0.22 0.27 0.33 0.32 0.37 0.38 0.37 0.29 0.27 0.24 0.23 0.28 0.31 0.32 0.33 0.37 0.40 0.46 0.51 0.56 0.60 0.67 0.72 0.80 0.87 0.91 0.96 1.00 1.03 1.05 1.00 0.95 0.92 0.92 0.89 0.81 0.85 0.86 0.78 0.74 0.68
0.37 0.28 0.30 0.32 0.34 0.32 0.31 0.38 0.37 0.34 0.33 0.27 0.27 0.27 0.32 0.35 0.37 0.39 0.36 0.36 0.41 0.45 0.53 0.60 0.66 0.74 0.80 0.87 0.88 0.91 0.95 0.96 0.96 0.94 0.93 0.91 0.89 0.82 0.84 0.79 0.75 0.69 0.68 0.70
0.40 0.32 0.33 0.32 0.37 0.35 0.28 0.31 0.32 0.33 0.33 0.29 0.27 0.27 0.36 0.38 0.37 0.36 0.36 0.38 0.41 0.45 0.49 0.56 0.64 0.70 0.71 0.78 0.83 0.83 0.84 0.89 0.92 0.92 0.91 0.86 0.79 0.77 0.74 0.73 0.69 0.69 0.67 0.63
0.38 0.35 0.33 0.31 0.36 0.33 0.28 0.29 0.30 0.30 0.28 0.24 0.20 0.26 0.34 0.34 0.38 0.39 0.41 0.42 0.43 0.47 0.50 0.52 0.53 0.56 0.64 0.71 0.78 0.79 0.81 0.82 0.83 0.81 0.77 0.75 0.74 0.70 0.68 0.66 0.64 0.64 0.66 0.67
0.36 0.36 0.34 0.28 0.31 0.19 0.24 0.32 0.28 0.23 0.21 0.22 0.23 0.25 0.29 0.32 0.38 0.45 0.48 0.45 0.45 0.47 0.46 0.49 0.54 0.57 0.60 0.63 0.63 0.63 0.67 0.69 0.68 0.67 0.68 0.70 0.67 0.65 0.64 0.66 0.68 0.70 0.69 0.62
0.42 0.36 0.31 0.25 0.22 0.22 0.22 0.23 0.21 0.20 0.22 0.29 0.28 0.32 0.35 0.38 0.40 0.39 0.45 0.46 0.45 0.46 0.48 0.50 0.53 0.55 0.57 0.60 0.63 0.63 0.65 0.68 0.68 0.65 0.64 0.64 0.64 0.67 0.69 0.68 0.68 0.66 0.56 0.48
0.44 0.43 0.34 0.28 0.20 0.16 0.24 0.31 0.36 0.34 0.22 0.34 0.35 0.34 0.34 0.37 0.27 0.32 0.44 0.47 0.47 0.48 0.48 0.47 0.49 0.49 0.52 0.54 0.60 0.62 0.62 0.61 0.59 0.60 0.62 0.67 0.72 0.71 0.69 0.65 0.57 0.51 0.43 0.35
0.37 0.39 0.33 0.30 0.31 0.32 0.41 0.37 0.41 0.23 0.20 0.35 0.40 0.40 0.39 0.34 0.37 0.45 0.48 0.46 0.45 0.45 0.45 0.48 0.50 0.49 0.52 0.56 0.58 0.57 0.57 0.58 0.62 0.66 0.71 0.73 0.72 0.65 0.60 0.54 0.45 0.38 0.29 0.24
0.32 0.34 0.35 0.38 0.29 0.24 0.39 0.36 0.28 0.32 0.38 0.40 0.43 0.44 0.44 0.46 0.45 0.43 0.42 0.42 0.43 0.45 0.47 0.49 0.49 0.51 0.53 0.54 0.56 0.56 0.58 0.68 0.71 0.68 0.65 0.63 0.58 0.52 0.45 0.38 0.30 0.25 0.23 0.22
0.31 0.41 0.39 0.41 0.36 0.42 0.43 0.39 0.43 0.44 0.42 0.46 0.48 0.49 0.45 0.40 0.40 0.42 0.42 0.44 0.45 0.46 0.48 0.51 0.51 0.51 0.53 0.57 0.58 0.57 0.60 0.59 0.57 0.55 0.51 0.46 0.41 0.36 0.30 0.24 0.22 0.21 0.21 0.19
0.46 0.50 0.41 0.42 0.41 0.41 0.44 0.46 0.48 0.49 0.48 0.49 0.48 0.46 0.43 0.40 0.43 0.43 0.45 0.45 0.47 0.50 0.50 0.50 0.50 0.51 0.52 0.54 0.54 0.53 0.52 0.50 0.47 0.41 0.37 0.32 0.27 0.23 0.22 0.21 0.21 0.20 0.19 0.20
0.51 0.51 0.46 0.39 0.39 0.39 0.42 0.44 0.46 0.47 0.48 0.48 0.50 0.48 0.48 0.48 0.46 0.47 0.45 0.47 0.49 0.50 0.50 0.50 0.51 0.52 0.51 0.51 0.49 0.48 0.45 0.41 0.36 0.31 0.26 0.24 0.23 0.22 0.22 0.22 0.23 0.23 0.24 0.26
0.59 0.47 0.40 0.27 0.36 0.34 0.38 0.46 0.49 0.45 0.45 0.48 0.48 0.50 0.52 0.52 0.49 0.49 0.47 0.49 0.50 0.49 0.51 0.51 0.51 0.48 0.46 0.45 0.42 0.41 0.39 0.34 0.28 0.24 0.23 0.23 0.23 0.23 0.23 0.23 0.22 0.26 0.27 0.28

GFSCGP_prec_pwat_054.txt.gz
Precipitable_Water
0.47 0.37 0.29 0.32 0.37 0.38 0.36 0.31 0.32 0.36 0.42 0.41 0.39 0.40 0.45 0.59 0.67 0.61 0.62 0.65 0.64 0.68 0.80 0.87 0.87 0.90 0.93 0.98 0.99 0.98 1.03 1.02 0.93 0.86 0.94 1.02 1.03 1.13 1.16 1.17 1.16 1.10 1.04 0.94
0.38 0.33 0.39 0.43 0.40 0.38 0.36 0.34 0.33 0.38 0.42 0.41 0.39 0.38 0.42 0.53 0.57 0.61 0.61 0.62 0.59 0.66 0.76 0.81 0.85 0.86 0.87 0.90 0.98 1.00 0.99 1.02 1.00 0.97 0.99 1.05 1.06 1.12 1.15 1.18 1.11 1.06 0.99 0.96
0.34 0.37 0.43 0.42 0.41 0.38 0.37 0.35 0.35 0.37 0.42 0.42 0.36 0.31 0.34 0.45 0.58 0.64 0.67 0.67 0.65 0.62 0.64 0.73 0.77 0.78 0.84 0.83 0.89 0.96 1.02 1.01 1.00 1.01 1.02 1.06 1.12 1.13 1.06 1.06 1.03 1.02 0.99 0.94
0.34 0.41 0.39 0.40 0.37 0.39 0.33 0.42 0.42 0.40 0.37 0.30 0.37 0.21 0.23 0.32 0.37 0.51 0.56 0.59 0.63 0.67 0.71 0.78 0.82 0.83 0.83 0.85 0.98 1.03 1.04 1.07 1.07 1.06 0.99 0.99 0.99 0.97 1.01 1.07 1.02 0.99 0.97 0.88
0.29 0.35 0.37 0.35 0.36 0.41 0.36 0.44 0.42 0.42 0.36 0.35 0.33 0.27 0.26 0.28 0.27 0.38 0.52 0.60 0.66 0.71 0.75 0.78 0.82 0.87 0.94 0.97 0.99 1.05 1.08 1.10 1.13 1.13 1.05 1.02 1.09 1.13 1.13 1.13 1.01 0.96 0.90 0.84
0.32 0.44 0.42 0.41 0.45 0.44 0.45 0.41 0.42 0.41 0.37 0.26 0.30 0.29 0.24 0.27 0.26 0.35 0.45 0.58 0.65 0.69 0.74 0.82 0.90 0.95 0.93 1.00 1.04 1.07 1.06 1.09 1.15 1.19 1.14 1.09 1.13 1.14 1.10 1.05 0.95 0.92 0.85 0.81
0.29 0.32 0.42 0.46 0.40 0.44 0.40 0.35 0.27 0.24 0.25 0.23 0.34 0.30 0.28 0.35 0.40 0.41 0.41 0.50 0.59 0.69 0.70 0.75 0.79 0.84 0.86 0.89 0.96 1.02 1.06 1.00 1.13 1.18 1.21 1.16 1.16 1.12 1.06 1.00 0.93 0.87 0.83 0.79
0.21 0.20 0.35 0.45 0.41 0.37 0.37 0.35 0.27 0.19 0.19 0.21 0.31 0.23 0.25 0.38 0.44 0.45 0.47 0.44 0.47 0.54 0.62 0.67 0.72 0.77 0.81 0.86 0.95 0.99 0.96 0.99 1.10 1.21 1.21 1.17 1.16 1.11 1.03 0.97 0.91 0.87 0.82 0.84
0.23 0.22 0.40 0.45 0.47 0.45 0.38 0.31 0.40 0.32 0.34 0.27 0.25 0.27 0.28 0.36 0.41 0.46 0.48 0.48 0.45 0.45 0.49 0.57 0.70 0.75 0.78 0.83 0.85 0.87 0.91 0.96 1.12 1.20 1.19 1.13 1.11 1.03 0.97 0.92 0.91 0.88 0.89 0.87
0.29 0.22 0.36 0.43 0.48 0.47 0.42 0.44 0.32 0.33 0.22 0.19 0.22 0.23 0.22 0.27 0.38 0.39 0.36 0.36 0.37 0.46 0.46 0.55 0.66 0.72 0.76 0.80 0.85 0.89 0.91 0.93 1.07 1.12 1.11 1.12 1.05 1.01 1.03 0.93 0.90 0.91 0.90 0.89
0.33 0.27 0.28 0.39 0.36 0.34 0.36 0.34 0.36 0.36 0.31 0.22 0.19 0.20 0.30 0.31 0.37 0.34 0.35 0.38 0.39 0.40 0.48 0.55 0.60 0.66 0.70 0.73 0.76 0.81 0.90 0.95 1.02 1.06 1.08 1.08 1.05 1.03 1.06 1.05 1.00 0.98 0.96 0.91
0.33 0.29 0.23 0.25 0.39 0.42 0.38 0.33 0.35 0.28 0.28 0.30 0.25 0.22 0.36 0.33 0.33 0.36 0.39 0.38 0.41 0.46 0.49 0.51 0.54 0.57 0.60 0.67 0.75 0.78 0.85 0.93 1.05 1.11 1.12 1.09 1.12 1.13 1.10 1.05 1.04 0.96 0.92 0.93
0.33 0.27 0.21 0.21 0.28 0.37 0.32 0.35 0.37 0.37 0.36 0.27 0.23 0.23 0.37 0.37 0.33 0.34 0.33 0.37 0.42 0.46 0.51 0.55 0.59 0.59 0.62 0.69 0.75 0.84 0.93 1.03 1.08 1.10 1.10 1.08 1.08 1.07 1.04 1.02 0.95 0.92 0.88 0.88
0.38 0.30 0.24 0.18 0.19 0.25 0.27 0.32 0.36 0.36 0.31 0.29 0.26 0.25 0.31 0.32 0.33 0.35 0.36 0.37 0.37 0.44 0.50 0.53 0.58 0.62 0.71 0.79 0.87 0.93 0.98 1.04 1.04 1.07 1.07 1.05 1.04 1.03 0.98 0.95 0.90 0.86 0.83 0.80
0.36 0.27 0.29 0.28 0.29 0.29 0.31 0.31 0.33 0.33 0.35 0.29 0.29 0.29 0.32 0.34 0.34 0.37 0.40 0.40 0.39 0.40 0.47 0.54 0.60 0.70 0.79 0.86 0.92 0.93 0.96 0.96 1.00 0.93 0.91 0.95 0.98 0.96 0.91 0.86 0.82 0.79 0.82 0.77
0.40 0.29 0.31 0.28 0.33 0.33 0.31 0.33 0.33 0.32 0.36 0.35 0.33 0.30 0.37 0.35 0.34 0.37 0.37 0.39 0.42 0.47 0.51 0.55 0.62 0.69 0.75 0.79 0.81 0.85 0.86 0.84 0.87 0.86 0.85 0.85 0.84 0.84 0.80 0.74 0.75 0.76 0.70 0.66
0.35 0.32 0.30 0.25 0.32 0.32 0.28 0.30 0.31 0.31 0.32 0.29 0.25 0.30 0.34 0.31 0.31 0.33 0.39 0.43 0.45 0.49 0.52 0.53 0.55 0.59 0.63 0.67 0.71 0.72 0.78 0.82 0.78 0.74 0.73 0.72 0.74 0.78 0.71 0.72 0.70 0.64 0.65 0.70
0.37 0.34 0.33 0.28 0.31 0.21 0.28 0.38 0.36 0.32 0.31 0.31 0.30 0.29 0.30 0.30 0.33 0.38 0.42 0.42 0.43 0.47 0.50 0.52 0.56 0.57 0.59 0.62 0.61 0.62 0.63 0.64 0.65 0.67 0.71 0.74 0.71 0.66 0.66 0.67 0.69 0.71 0.72 0.70
0.45 0.38 0.31 0.28 0.26 0.28 0.28 0.28 0.26 0.20 0.16 0.22 0.22 0.27 0.33 0.38 0.40 0.39 0.46 0.47 0.46 0.47 0.49 0.50 0.53 0.54 0.55 0.55 0.57 0.60 0.60 0.63 0.67 0.67 0.66 0.64 0.65 0.66 0.69 0.70 0.70 0.71 0.69 0.62
0.46 0.45 0.35 0.31 0.24 0.19 0.26 0.30 0.30 0.30 0.16 0.29 0.33 0.33 0.35 0.39 0.27 0.33 0.44 0.45 0.46 0.49 0.51 0.49 0.49 0.48 0.49 0.51 0.56 0.58 0.59 0.61 0.60 0.61 0.63 0.67 0.69 0.71 0.70 0.69 0.66 0.63 0.57 0.48
0.38 0.38 0.33 0.31 0.27 0.30 0.40 0.38 0.40 0.25 0.21 0.32 0.35 0.35 0.37 0.35 0.37 0.42 0.46 0.47 0.49 0.48 0.46 0.46 0.48 0.48 0.51 0.54 0.56 0.56 0.57 0.57 0.60 0.62 0.65 0.70 0.70 0.66 0.62 0.58 0.53 0.49 0.41 0.33
0.33 0.33 0.33 0.34 0.29 0.23 0.45 0.45 0.34 0.32 0.34 0.36 0.39 0.39 0.40 0.43 0.43 0.45 0.47 0.46 0.44 0.42 0.43 0.45 0.46 0.48 0.52 0.53 0.54 0.53 0.55 0.61 0.63 0.63 0.61 0.57 0.55 0.52 0.48 0.43 0.37 0.31 0.26 0.22
0.38 0.38 0.35 0.36 0.32 0.44 0.49 0.48 0.48 0.39 0.36 0.39 0.41 0.44 0.44 0.43 0.45 0.46 0.42 0.42 0.41 0.43 0.44 0.46 0.47 0.49 0.51 0.52 0.54 0.53 0.56 0.57 0.54 0.51 0.48 0.46 0.43 0.39 0.35 0.29 0.24 0.22 0.22 0.21
0.50 0.53 0.42 0.41 0.45 0.48 0.54 0.56 0.51 0.45 0.42 0.45 0.48 0.48 0.48 0.44 0.42 0.41 0.42 0.42 0.42 0.44 0.45 0.47 0.48 0.48 0.47 0.52 0.53 0.53 0.53 0.52 0.48 0.44 0.40 0.37 0.33 0.29 0.27 0.26 0.25 0.24 0.23 0.22
0.51 0.53 0.47 0.46 0.52 0.53 0.53 0.54 0.46 0.44 0.47 0.48 0.50 0.48 0.45 0.43 0.42 0.44 0.44 0.44 0.45 0.46 0.48 0.50 0.49 0.48 0.48 0.52 0.53 0.52 0.49 0.45 0.39 0.35 0.31 0.27 0.25 0.23 0.22 0.21 0.21 0.20 0.20 0.21
0.56 0.50 0.44 0.40 0.53 0.52 0.49 0.50 0.47 0.43 0.45 0.47 0.45 0.45 0.47 0.47 0.46 0.48 0.47 0.49 0.49 0.49 0.51 0.50 0.50 0.50 0.51 0.50 0.46 0.43 0.39 0.35 0.29 0.26 0.24 0.21 0.18 0.16 0.15 0.15 0.15 0.16 0.16 0.16

GFSCGP_prec_pwat_057.txt.gz
Precipitable_Water
0.42 0.34 0.28 0.29 0.35 0.33 0.34 0.32 0.31 0.36 0.40 0.44 0.41 0.42 0.44 0.59 0.66 0.64 0.60 0.57 0.58 0.64 0.82 0.85 0.86 0.91 0.90 0.93 0.94 0.97 0.95 0.99 0.99 0.87 0.83 0.86 0.90 0.95 1.06 1.19 1.25 1.26 1.16 1.09
0.36 0.30 0.39 0.39 0.41 0.36 0.34 0.33 0.32 0.38 0.43 0.41 0.39 0.37 0.43 0.53 0.56 0.62 0.61 0.56 0.56 0.63 0.71 0.79 0.81 0.87 0.88 0.87 0.90 0.97 0.98 1.01 1.04 0.95 0.87 0.88 0.91 1.01 1.12 1.22 1.25 1.24 1.13 1.06
0.30 0.35 0.41 0.42 0.40 0.36 0.32 0.31 0.34 0.35 0.40 0.42 0.38 0.32 0.34 0.44 0.55 0.64 0.63 0.65 0.61 0.61 0.65 0.73 0.75 0.78 0.85 0.86 0.86 0.90 0.95 1.00 1.09 1.07 0.95 0.91 1.02 1.08 1.09 1.13 1.19 1.16 1.13 1.03
0.33 0.39 0.37 0.37 0.35 0.38 0.31 0.38 0.38 0.37 0.36 0.30 0.39 0.27 0.30 0.30 0.39 0.49 0.57 0.61 0.66 0.62 0.65 0.74 0.76 0.77 0.79 0.82 0.91 0.94 1.00 1.01 1.05 1.10 1.01 0.90 0.90 0.93 1.05 1.14 1.21 1.21 1.15 1.03
0.27 0.32 0.33 0.34 0.35 0.39 0.34 0.42 0.40 0.41 0.37 0.35 0.34 0.29 0.28 0.30 0.25 0.31 0.45 0.55 0.62 0.70 0.67 0.68 0.75 0.84 0.88 0.93 0.95 1.01 1.03 1.06 1.11 1.13 1.12 1.01 0.97 1.05 1.13 1.21 1.20 1.20 1.18 1.07
0.31 0.41 0.39 0.37 0.43 0.43 0.44 0.42 0.41 0.41 0.38 0.28 0.31 0.29 0.27 0.28 0.30 0.29 0.41 0.53 0.63 0.68 0.75 0.79 0.85 0.93 0.92 0.98 1.00 1.05 1.04 1.06 1.12 1.17 1.20 1.14 1.08 1.07 1.09 1.15 1.15 1.14 1.10 1.00
0.29 0.31 0.39 0.43 0.39 0.44 0.43 0.36 0.27 0.25 0.25 0.23 0.34 0.30 0.29 0.34 0.38 0.39 0.41 0.46 0.56 0.65 0.71 0.74 0.82 0.87 0.93 0.96 1.00 1.00 0.99 1.03 1.11 1.15 1.19 1.22 1.20 1.16 1.11 1.13 1.11 1.05 1.03 0.98
0.21 0.20 0.30 0.39 0.39 0.36 0.37 0.35 0.27 0.19 0.20 0.22 0.31 0.23 0.26 0.36 0.40 0.46 0.47 0.48 0.49 0.56 0.64 0.71 0.73 0.82 0.89 0.93 0.96 0.97 0.99 1.02 1.05 1.09 1.15 1.22 1.23 1.19 1.14 1.09 1.10 1.12 1.06 0.99
0.22 0.21 0.34 0.40 0.45 0.44 0.37 0.33 0.40 0.30 0.32 0.25 0.27 0.29 0.31 0.33 0.36 0.46 0.46 0.49 0.50 0.48 0.53 0.60 0.72 0.79 0.84 0.87 0.90 0.94 0.97 0.96 0.98 1.01 1.12 1.21 1.24 1.20 1.14 1.12 1.18 1.11 1.01 0.97
0.28 0.21 0.33 0.38 0.46 0.47 0.41 0.44 0.31 0.33 0.22 0.20 0.24 0.24 0.24 0.29 0.37 0.35 0.38 0.39 0.41 0.46 0.50 0.50 0.56 0.65 0.77 0.86 0.90 0.93 0.94 0.93 0.97 1.00 1.07 1.13 1.18 1.16 1.13 1.17 1.11 1.04 0.97 0.98
0.31 0.27 0.27 0.36 0.34 0.34 0.37 0.36 0.36 0.35 0.31 0.23 0.21 0.23 0.31 0.33 0.35 0.37 0.41 0.42 0.43 0.40 0.46 0.50 0.53 0.60 0.68 0.78 0.82 0.81 0.82 0.86 0.92 0.98 1.02 1.12 1.16 1.16 1.20 1.17 1.09 1.07 1.06 1.05
0.32 0.29 0.23 0.25 0.37 0.43 0.39 0.34 0.34 0.27 0.25 0.29 0.27 0.26 0.37 0.36 0.38 0.38 0.38 0.42 0.43 0.46 0.44 0.48 0.52 0.57 0.60 0.63 0.67 0.70 0.79 0.85 0.93 0.99 1.06 1.12 1.17 1.18 1.19 1.17 1.13 1.13 1.07 1.05
0.33 0.28 0.21 0.23 0.28 0.37 0.34 0.35 0.34 0.34 0.34 0.27 0.24 0.27 0.37 0.40 0.38 0.39 0.37 0.39 0.41 0.44 0.49 0.48 0.49 0.53 0.60 0.67 0.73 0.78 0.86 0.90 0.98 1.02 1.06 1.08 1.12 1.14 1.12 1.09 1.13 1.10 1.09 0.99
0.37 0.29 0.24 0.19 0.21 0.25 0.24 0.28 0.32 0.31 0.27 0.26 0.27 0.30 0.33 0.35 0.35 0.36 0.38 0.38 0.39 0.39 0.44 0.53 0.57 0.58 0.64 0.74 0.81 0.88 0.96 1.02 1.00 1.01 1.01 1.03 1.03 1.03 1.04 1.09 1.08 1.00 0.96 0.89
0.35 0.26 0.28 0.28 0.28 0.28 0.26 0.24 0.28 0.28 0.27 0.26 0.28 0.32 0.35 0.38 0.38 0.36 0.36 0.38 0.40 0.44 0.43 0.49 0.57 0.66 0.75 0.81 0.89 0.97 1.01 1.01 0.99 0.96 0.92 0.89 0.91 0.93 0.94 0.95 0.91 0.85 0.81 0.79
0.39 0.29 0.31 0.27 0.31 0.30 0.27 0.28 0.31 0.33 0.32 0.30 0.31 0.29 0.42 0.42 0.40 0.38 0.38 0.38 0.40 0.47 0.49 0.53 0.59 0.67 0.73 0.80 0.85 0.89 0.90 0.90 0.91 0.85 0.84 0.85 0.84 0.84 0.77 0.76 0.71 0.78 0.73 0.75
0.38 0.33 0.29 0.24 0.31 0.30 0.24 0.27 0.30 0.33 0.34 0.32 0.25 0.28 0.36 0.34 0.36 0.37 0.40 0.42 0.40 0.43 0.49 0.52 0.55 0.60 0.66 0.70 0.74 0.74 0.76 0.78 0.75 0.74 0.72 0.69 0.68 0.67 0.67 0.73 0.74 0.66 0.67 0.68
0.40 0.35 0.32 0.27 0.30 0.20 0.27 0.36 0.36 0.34 0.34 0.34 0.33 0.30 0.30 0.33 0.36 0.38 0.40 0.41 0.42 0.45 0.47 0.50 0.53 0.56 0.60 0.63 0.64 0.65 0.64 0.62 0.61 0.61 0.62 0.64 0.64 0.67 0.68 0.66 0.68 0.70 0.70 0.71
0.47 0.38 0.31 0.27 0.26 0.29 0.29 0.31 0.33 0.31 0.25 0.31 0.25 0.26 0.29 0.34 0.38 0.38 0.45 0.47 0.46 0.47 0.49 0.51 0.54 0.56 0.57 0.58 0.59 0.57 0.55 0.56 0.57 0.58 0.61 0.64 0.66 0.66 0.66 0.66 0.67 0.70 0.69 0.67
0.48 0.46 0.36 0.32 0.25 0.20 0.27 0.34 0.39 0.37 0.20 0.27 0.31 0.30 0.33 0.36 0.28 0.34 0.45 0.47 0.46 0.49 0.51 0.50 0.51 0.52 0.53 0.51 0.54 0.53 0.53 0.55 0.57 0.60 0.61 0.63 0.63 0.66 0.67 0.68 0.65 0.62 0.56 0.49
0.37 0.38 0.32 0.31 0.28 0.30 0.37 0.40 0.40 0.26 0.23 0.34 0.34 0.32 0.34 0.32 0.36 0.43 0.47 0.46 0.49 0.49 0.49 0.52 0.52 0.49 0.49 0.52 0.54 0.53 0.54 0.54 0.59 0.62 0.63 0.62 0.63 0.61 0.58 0.53 0.49 0.45 0.40 0.34
0.36 0.34 0.32 0.34 0.29 0.24 0.44 0.42 0.32 0.35 0.42 0.44 0.40 0.37 0.37 0.40 0.42 0.43 0.45 0.47 0.48 0.48 0.48 0.48 0.47 0.47 0.51 0.54 0.55 0.53 0.52 0.56 0.57 0.58 0.58 0.55 0.51 0.48 0.45 0.40 0.35 0.31 0.28 0.25
0.39 0.41 0.36 0.36 0.33 0.45 0.47 0.44 0.45 0.45 0.47 0.47 0.41 0.41 0.42 0.41 0.42 0.44 0.45 0.48 0.48 0.46 0.45 0.46 0.46 0.48 0.51 0.52 0.52 0.50 0.52 0.54 0.53 0.51 0.48 0.46 0.43 0.38 0.35 0.31 0.28 0.25 0.25 0.23
0.53 0.57 0.46 0.44 0.45 0.47 0.49 0.51 0.53 0.52 0.51 0.51 0.47 0.44 0.45 0.44 0.46 0.46 0.48 0.46 0.44 0.45 0.45 0.47 0.47 0.48 0.49 0.51 0.52 0.50 0.51 0.52 0.49 0.44 0.39 0.35 0.31 0.28 0.26 0.24 0.22 0.19 0.17 0.16
0.47 0.53 0.49 0.47 0.52 0.53 0.54 0.57 0.59 0.58 0.58 0.52 0.48 0.46 0.46 0.46 0.45 0.46 0.44 0.44 0.45 0.47 0.47 0.48 0.48 0.49 0.49 0.49 0.49 0.50 0.49 0.46 0.39 0.34 0.30 0.26 0.24 0.22 0.20 0.19 0.18 0.17 0.18 0.18
0.46 0.45 0.43 0.40 0.53 0.53 0.52 0.60 0.62 0.59 0.57 0.53 0.46 0.46 0.48 0.49 0.45 0.45 0.44 0.47 0.48 0.49 0.50 0.49 0.50 0.49 0.49 0.48 0.46 0.44 0.40 0.35 0.29 0.25 0.23 0.22 0.22 0.21 0.19 0.17 0.17 0.19 0.17 0.17

GFSCGP_prec_pwat_060.txt.gz
Precipitable_Water
0.39 0.32 0.30 0.32 0.31 0.34 0.31 0.30 0.30 0.35 0.40 0.45 0.43 0.43 0.42 0.56 0.61 0.66 0.62 0.59 0.71 0.74 0.77 0.79 0.77 0.84 0.83 0.80 0.84 0.86 0.84 0.90 0.97 0.93 0.79 0.77 0.80 0.90 0.97 1.10 1.21 1.22 1.28 1.29
0.34 0.28 0.37 0.37 0.38 0.35 0.33 0.29 0.29 0.35 0.40 0.41 0.40 0.38 0.40 0.48 0.58 0.65 0.67 0.62 0.61 0.69 0.77 0.77 0.82 0.87 0.87 0.84 0.86 0.90 0.94 0.97 0.96 0.93 0.84 0.81 0.81 0.92 0.99 1.10 1.13 1.24 1.29 1.29
0.28 0.34 0.39 0.39 0.39 0.36 0.34 0.34 0.34 0.34 0.38 0.40 0.38 0.33 0.35 0.41 0.50 0.59 0.67 0.68 0.62 0.62 0.67 0.75 0.79 0.84 0.88 0.86 0.89 0.92 0.97 1.01 1.01 1.07 1.00 0.92 0.91 0.96 0.95 1.02 1.10 1.25 1.32 1.28
0.31 0.39 0.37 0.38 0.37 0.39 0.32 0.39 0.38 0.37 0.35 0.31 0.39 0.29 0.32 0.35 0.38 0.45 0.55 0.60 0.59 0.59 0.64 0.71 0.75 0.76 0.83 0.88 0.94 0.94 0.98 1.03 1.06 1.09 1.03 0.96 0.85 0.83 0.94 1.03 1.14 1.24 1.30 1.26
0.27 0.32 0.33 0.32 0.35 0.40 0.36 0.42 0.41 0.41 0.38 0.37 0.34 0.29 0.33 0.32 0.26 0.31 0.42 0.53 0.61 0.64 0.61 0.64 0.71 0.78 0.83 0.90 0.94 0.97 0.98 1.01 1.06 1.07 1.10 1.07 0.97 0.91 0.99 1.11 1.16 1.24 1.28 1.26
0.34 0.40 0.38 0.37 0.40 0.41 0.44 0.40 0.41 0.42 0.39 0.30 0.35 0.31 0.29 0.31 0.32 0.32 0.34 0.47 0.55 0.65 0.71 0.69 0.73 0.85 0.86 0.94 0.98 1.03 1.05 1.05 1.09 1.11 1.11 1.11 1.11 1.08 1.08 1.06 1.11 1.17 1.23 1.22
0.31 0.31 0.37 0.39 0.37 0.43 0.41 0.36 0.31 0.29 0.28 0.27 0.35 0.31 0.32 0.35 0.37 0.37 0.39 0.44 0.53 0.64 0.71 0.76 0.76 0.80 0.88 0.91 0.97 1.01 1.05 1.03 1.09 1.15 1.18 1.20 1.23 1.23 1.19 1.15 1.15 1.13 1.10 1.11
0.23 0.21 0.31 0.38 0.36 0.38 0.37 0.37 0.29 0.22 0.24 0.26 0.33 0.25 0.30 0.37 0.38 0.42 0.46 0.48 0.49 0.53 0.67 0.73 0.79 0.85 0.88 0.95 0.99 1.00 1.00 1.02 1.07 1.15 1.14 1.19 1.23 1.26 1.21 1.16 1.16 1.18 1.14 1.12
0.23 0.23 0.34 0.37 0.41 0.43 0.39 0.32 0.41 0.33 0.32 0.26 0.27 0.31 0.33 0.34 0.34 0.41 0.43 0.48 0.53 0.54 0.58 0.65 0.73 0.83 0.93 0.99 1.02 1.03 1.04 1.06 1.09 1.11 1.13 1.13 1.14 1.18 1.16 1.21 1.20 1.21 1.18 1.16
0.28 0.23 0.31 0.37 0.42 0.45 0.43 0.45 0.32 0.34 0.24 0.22 0.27 0.27 0.26 0.31 0.37 0.33 0.37 0.40 0.42 0.49 0.56 0.59 0.66 0.75 0.85 0.95 1.03 1.10 1.12 1.09 1.12 1.13 1.12 1.12 1.13 1.14 1.18 1.21 1.20 1.18 1.19 1.22
0.32 0.28 0.30 0.35 0.32 0.33 0.38 0.36 0.38 0.37 0.33 0.26 0.23 0.26 0.35 0.33 0.35 0.38 0.40 0.43 0.45 0.47 0.50 0.51 0.59 0.64 0.72 0.85 0.93 0.99 1.04 1.04 1.04 1.03 1.04 1.04 1.08 1.10 1.17 1.18 1.19 1.21 1.21 1.17
0.33 0.29 0.25 0.28 0.39 0.41 0.42 0.39 0.38 0.30 0.29 0.30 0.29 0.25 0.37 0.39 0.38 0.40 0.41 0.43 0.45 0.50 0.51 0.53 0.58 0.62 0.66 0.73 0.80 0.84 0.88 0.88 0.91 0.97 1.01 1.01 1.07 1.10 1.13 1.14 1.17 1.20 1.13 1.10
0.34 0.27 0.23 0.25 0.31 0.37 0.33 0.38 0.37 0.37 0.33 0.27 0.25 0.26 0.39 0.39 0.38 0.41 0.41 0.43 0.44 0.45 0.48 0.51 0.51 0.55 0.62 0.67 0.71 0.76 0.81 0.84 0.92 0.98 1.00 1.02 1.05 1.04 1.05 1.08 1.10 1.10 1.11 1.10
0.37 0.28 0.25 0.22 0.25 0.29 0.28 0.31 0.35 0.33 0.28 0.26 0.29 0.29 0.34 0.40 0.39 0.38 0.39 0.39 0.41 0.41 0.44 0.56 0.57 0.56 0.62 0.68 0.73 0.80 0.87 0.95 1.00 1.03 1.01 0.96 0.97 0.97 0.96 0.97 0.95 0.96 0.98 0.92
0.36 0.27 0.29 0.29 0.29 0.28 0.27 0.25 0.28 0.26 0.26 0.23 0.27 0.27 0.35 0.42 0.43 0.43 0.44 0.42 0.41 0.42 0.43 0.48 0.59 0.68 0.69 0.75 0.83 0.87 0.90 0.96 1.00 1.01 0.97 0.95 0.95 0.92 0.90 0.87 0.89 0.90 0.88 0.82
0.41 0.30 0.32 0.27 0.30 0.29 0.26 0.28 0.29 0.30 0.29 0.32 0.30 0.28 0.34 0.38 0.42 0.43 0.46 0.45 0.42 0.42 0.46 0.51 0.58 0.67 0.77 0.83 0.86 0.91 0.94 0.96 0.98 0.94 0.92 0.91 0.88 0.86 0.84 0.81 0.79 0.77 0.75 0.73
0.37 0.34 0.30 0.25 0.31 0.30 0.24 0.27 0.29 0.30 0.31 0.32 0.29 0.34 0.38 0.35 0.36 0.41 0.44 0.46 0.44 0.46 0.48 0.52 0.62 0.68 0.73 0.79 0.84 0.83 0.86 0.89 0.86 0.81 0.80 0.77 0.73 0.68 0.66 0.66 0.66 0.68 0.69 0.69
0.42 0.35 0.34 0.27 0.30 0.20 0.27 0.36 0.34 0.31 0.32 0.37 0.35 0.34 0.34 0.36 0.38 0.38 0.44 0.44 0.43 0.45 0.48 0.52 0.56 0.58 0.64 0.67 0.67 0.68 0.69 0.68 0.67 0.64 0.63 0.63 0.61 0.61 0.63 0.66 0.66 0.67 0.66 0.66
0.54 0.42 0.31 0.27 0.25 0.28 0.29 0.32 0.32 0.30 0.27 0.36 0.34 0.35 0.34 0.35 0.34 0.34 0.44 0.48 0.48 0.49 0.51 0.53 0.57 0.59 0.61 0.61 0.63 0.62 0.60 0.60 0.57 0.55 0.57 0.60 0.64 0.61 0.61 0.61 0.63 0.66 0.66 0.66
0.54 0.51 0.39 0.32 0.25 0.20 0.27 0.35 0.40 0.40 0.23 0.38 0.37 0.33 0.33 0.34 0.25 0.31 0.42 0.47 0.48 0.51 0.53 0.54 0.56 0.57 0.57 0.58 0.59 0.56 0.53 0.54 0.54 0.57 0.59 0.61 0.61 0.59 0.60 0.61 0.60 0.58 0.53 0.47
0.44 0.42 0.35 0.33 0.28 0.29 0.37 0.39 0.42 0.27 0.22 0.42 0.39 0.39 0.39 0.33 0.36 0.43 0.45 0.46 0.50 0.52 0.53 0.55 0.55 0.54 0.56 0.57 0.55 0.52 0.53 0.53 0.56 0.58 0.58 0.58 0.59 0.58 0.55 0.51 0.48 0.43 0.37 0.33
0.40 0.37 0.34 0.37 0.30 0.25 0.44 0.41 0.33 0.37 0.46 0.43 0.41 0.44 0.44 0.46 0.44 0.44 0.46 0.47 0.50 0.50 0.51 0.53 0.54 0.54 0.54 0.55 0.55 0.53 0.53 0.55 0.56 0.55 0.55 0.53 0.50 0.47 0.45 0.40 0.36 0.33 0.31 0.30
0.40 0.43 0.39 0.38 0.35 0.47 0.48 0.45 0.47 0.49 0.47 0.46 0.46 0.51 0.53 0.48 0.43 0.45 0.46 0.48 0.49 0.50 0.51 0.55 0.54 0.51 0.52 0.53 0.52 0.49 0.51 0.53 0.52 0.51 0.49 0.46 0.43 0.38 0.34 0.31 0.28 0.27 0.26 0.23
0.37 0.48 0.44 0.47 0.47 0.46 0.51 0.52 0.54 0.53 0.51 0.53 0.53 0.56 0.55 0.47 0.45 0.45 0.46 0.47 0.49 0.50 0.52 0.52 0.49 0.47 0.48 0.51 0.51 0.51 0.51 0.52 0.50 0.46 0.42 0.37 0.32 0.29 0.26 0.25 0.24 0.23 0.22 0.21
0.36 0.42 0.37 0.44 0.53 0.55 0.55 0.57 0.58 0.58 0.59 0.59 0.60 0.60 0.57 0.51 0.47 0.46 0.47 0.48 0.48 0.50 0.50 0.50 0.49 0.49 0.49 0.51 0.50 0.50 0.51 0.49 0.43 0.37 0.32 0.29 0.27 0.25 0.24 0.24 0.23 0.21 0.23 0.20
0.41 0.37 0.35 0.34 0.48 0.51 0.54 0.60 0.61 0.58 0.58 0.60 0.59 0.59 0.60 0.55 0.48 0.49 0.48 0.49 0.49 0.47 0.49 0.50 0.51 0.51 0.50 0.49 0.48 0.47 0.45 0.40 0.34 0.30 0.28 0.26 0.26 0.26 0.24 0.22 0.21 0.23 0.20 0.20

GFSCGP_prec_pwat_066.txt.gz
Precipitable_Water
0.39 0.33 0.28 0.32 0.40 0.43 0.34 0.29 0.32 0.38 0.44 0.42 0.34 0.38 0.55 0.67 0.78 0.76 0.71 0.69 0.75 0.75 0.86 0.90 0.90 0.80 0.81 0.87 0.86 0.87 0.90 0.93 0.98 0.88 0.87 0.84 0.83 0.84 0.85 0.89 0.98 1.08 1.15 1.16
0.39 0.33 0.34 0.40 0.41 0.36 0.31 0.26 0.28 0.35 0.42 0.35 0.29 0.36 0.55 0.56 0.56 0.61 0.66 0.65 0.72 0.74 0.79 0.79 0.76 0.76 0.76 0.81 0.83 0.83 0.84 0.85 0.86 0.83 0.79 0.80 0.83 0.86 0.87 0.94 0.97 1.17 1.21 1.23
0.36 0.40 0.47 0.38 0.38 0.31 0.28 0.23 0.34 0.36 0.41 0.37 0.34 0.33 0.41 0.49 0.58 0.57 0.67 0.69 0.75 0.73 0.72 0.76 0.73 0.77 0.84 0.82 0.82 0.79 0.76 0.75 0.80 0.87 0.84 0.83 0.86 0.87 0.87 0.90 0.96 1.12 1.16 1.14
0.40 0.44 0.45 0.39 0.34 0.34 0.29 0.33 0.35 0.36 0.34 0.28 0.43 0.30 0.44 0.46 0.45 0.48 0.52 0.64 0.60 0.69 0.72 0.72 0.74 0.72 0.75 0.77 0.82 0.84 0.85 0.82 0.86 0.94 0.97 0.87 0.76 0.71 0.83 0.87 0.97 1.05 1.15 1.14
0.37 0.40 0.40 0.36 0.32 0.37 0.36 0.42 0.42 0.35 0.31 0.32 0.37 0.39 0.42 0.41 0.40 0.42 0.51 0.53 0.55 0.56 0.67 0.71 0.69 0.72 0.75 0.79 0.80 0.84 0.90 0.91 0.92 0.92 0.95 0.95 0.82 0.81 0.81 0.90 0.96 1.10 1.22 1.20
0.40 0.48 0.42 0.38 0.37 0.40 0.41 0.36 0.37 0.37 0.33 0.26 0.34 0.37 0.39 0.39 0.41 0.37 0.47 0.56 0.59 0.60 0.66 0.77 0.83 0.83 0.83 0.88 0.88 0.85 0.85 0.88 0.96 1.03 1.02 0.98 0.96 0.90 0.84 0.91 0.97 1.09 1.20 1.23
0.40 0.41 0.43 0.39 0.34 0.37 0.37 0.32 0.25 0.25 0.26 0.25 0.40 0.36 0.39 0.44 0.45 0.45 0.40 0.53 0.61 0.66 0.67 0.71 0.79 0.83 0.86 0.87 0.89 0.91 0.87 0.87 0.94 1.02 1.07 1.02 1.05 1.05 0.99 0.96 0.98 1.06 1.16 1.16
0.36 0.30 0.37 0.40 0.35 0.33 0.33 0.31 0.25 0.25 0.32 0.36 0.44 0.28 0.31 0.43 0.46 0.42 0.41 0.42 0.53 0.65 0.70 0.70 0.73 0.84 0.87 0.87 0.89 0.93 0.93 0.92 0.97 1.01 1.07 1.15 1.11 1.13 1.12 1.07 1.06 1.07 1.09 1.08
0.35 0.31 0.39 0.41 0.38 0.36 0.40 0.35 0.34 0.41 0.46 0.42 0.35 0.34 0.33 0.39 0.37 0.36 0.40 0.46 0.48 0.51 0.60 0.72 0.74 0.79 0.89 0.89 0.90 0.93 0.94 0.96 1.00 1.00 1.05 1.05 1.09 1.13 1.23 1.24 1.14 1.15 1.21 1.19
0.37 0.33 0.37 0.39 0.41 0.34 0.36 0.45 0.31 0.37 0.33 0.27 0.24 0.25 0.32 0.36 0.36 0.40 0.35 0.40 0.46 0.56 0.60 0.60 0.76 0.83 0.85 0.92 0.94 0.98 1.01 1.00 1.04 1.04 1.04 1.05 1.11 1.17 1.19 1.25 1.21 1.29 1.30 1.23
0.41 0.39 0.34 0.39 0.34 0.31 0.30 0.36 0.41 0.37 0.33 0.27 0.23 0.31 0.48 0.42 0.41 0.35 0.38 0.40 0.44 0.48 0.52 0.56 0.70 0.85 0.91 0.96 1.01 1.04 1.07 1.08 1.10 1.11 1.13 1.11 1.17 1.22 1.28 1.31 1.28 1.19 1.25 1.23
0.40 0.39 0.35 0.36 0.39 0.39 0.36 0.30 0.40 0.31 0.33 0.33 0.33 0.35 0.48 0.46 0.41 0.40 0.40 0.44 0.46 0.47 0.51 0.57 0.57 0.63 0.86 0.98 1.02 1.15 1.16 1.14 1.18 1.19 1.26 1.29 1.36 1.38 1.25 1.16 1.17 1.20 1.17 1.19
0.39 0.36 0.33 0.39 0.41 0.40 0.28 0.38 0.37 0.36 0.35 0.31 0.32 0.32 0.42 0.43 0.42 0.42 0.40 0.41 0.46 0.48 0.50 0.57 0.58 0.56 0.58 0.78 0.97 1.11 1.23 1.22 1.23 1.24 1.28 1.28 1.28 1.20 1.09 1.07 1.09 1.11 1.08 1.05
0.47 0.38 0.36 0.30 0.37 0.35 0.31 0.32 0.43 0.41 0.31 0.33 0.32 0.34 0.42 0.42 0.44 0.43 0.43 0.45 0.46 0.50 0.49 0.51 0.60 0.62 0.64 0.65 0.74 0.94 1.04 1.08 1.08 1.10 1.10 1.05 1.02 1.04 0.99 1.00 1.03 1.05 1.03 1.02
0.47 0.37 0.38 0.36 0.39 0.37 0.35 0.31 0.29 0.29 0.35 0.33 0.35 0.30 0.33 0.38 0.40 0.43 0.49 0.50 0.51 0.51 0.49 0.46 0.56 0.73 0.76 0.78 0.78 0.81 0.86 0.90 0.93 0.95 0.94 0.91 0.94 0.97 1.02 1.05 1.04 1.04 1.02 0.97
0.45 0.41 0.39 0.36 0.36 0.39 0.38 0.35 0.33 0.31 0.30 0.33 0.35 0.34 0.39 0.39 0.37 0.41 0.45 0.46 0.49 0.55 0.56 0.53 0.54 0.78 0.88 0.84 0.77 0.83 0.87 0.90 0.93 0.91 0.90 0.95 0.97 1.03 1.01 0.99 0.99 0.95 0.90 0.85
0.39 0.39 0.36 0.31 0.35 0.35 0.30 0.34 0.32 0.33 0.34 0.31 0.27 0.31 0.34 0.33 0.38 0.40 0.42 0.46 0.45 0.51 0.52 0.56 0.64 0.88 0.88 0.83 0.80 0.79 0.82 0.88 0.87 0.89 0.93 0.96 0.98 0.95 0.93 0.93 0.84 0.75 0.69 0.67
0.39 0.42 0.38 0.35 0.34 0.24 0.34 0.37 0.37 0.33 0.33 0.34 0.33 0.34 0.36 0.36 0.39 0.45 0.48 0.50 0.52 0.52 0.51 0.57 0.73 0.81 0.81 0.82 0.77 0.77 0.81 0.86 0.87 0.87 0.88 0.88 0.82 0.74 0.71 0.69 0.67 0.64 0.63 0.63
0.51 0.48 0.39 0.34 0.34 0.34 0.35 0.38 0.36 0.33 0.31 0.36 0.35 0.35 0.37 0.38 0.42 0.45 0.49 0.50 0.52 0.50 0.57 0.60 0.65 0.71 0.74 0.71 0.76 0.77 0.77 0.76 0.73 0.68 0.66 0.66 0.66 0.63 0.63 0.59 0.56 0.57 0.58 0.59
0.52 0.56 0.46 0.36 0.30 0.29 0.37 0.41 0.44 0.41 0.30 0.37 0.37 0.39 0.37 0.41 0.37 0.42 0.52 0.51 0.50 0.54 0.56 0.60 0.64 0.66 0.66 0.69 0.69 0.64 0.62 0.62 0.61 0.63 0.64 0.65 0.65 0.59 0.54 0.55 0.56 0.58 0.57 0.56
0.45 0.47 0.40 0.39 0.35 0.38 0.43 0.42 0.44 0.30 0.31 0.39 0.44 0.45 0.42 0.42 0.45 0.51 0.51 0.50 0.55 0.56 0.57 0.61 0.62 0.61 0.62 0.63 0.63 0.59 0.60 0.59 0.62 0.64 0.64 0.60 0.57 0.56 0.57 0.57 0.56 0.55 0.49 0.47
0.44 0.41 0.39 0.41 0.37 0.32 0.50 0.43 0.35 0.37 0.42 0.46 0.45 0.47 0.46 0.50 0.50 0.48 0.49 0.50 0.53 0.54 0.58 0.62 0.60 0.60 0.62 0.62 0.61 0.59 0.59 0.63 0.65 0.63 0.56 0.54 0.53 0.52 0.51 0.48 0.46 0.43 0.43 0.41
0.36 0.47 0.43 0.43 0.43 0.53 0.53 0.51 0.53 0.51 0.51 0.52 0.59 0.58 0.56 0.55 0.52 0.53 0.53 0.54 0.56 0.57 0.59 0.61 0.58 0.59 0.62 0.63 0.63 0.58 0.62 0.64 0.62 0.55 0.50 0.48 0.47 0.47 0.47 0.46 0.42 0.39 0.37 0.34
0.47 0.58 0.55 0.56 0.52 0.58 0.62 0.62 0.57 0.58 0.55 0.57 0.61 0.62 0.60 0.57 0.58 0.58 0.58 0.58 0.60 0.63 0.63 0.63 0.62 0.60 0.60 0.62 0.62 0.62 0.61 0.61 0.57 0.51 0.49 0.47 0.46 0.44 0.41 0.37 0.34 0.35 0.33 0.31
0.31 0.49 0.51 0.50 0.59 0.65 0.66 0.63 0.64 0.63 0.63 0.61 0.63 0.61 0.61 0.65 0.62 0.62 0.60 0.60 0.62 0.64 0.65 0.64 0.63 0.62 0.61 0.60 0.58 0.59 0.59 0.58 0.53 0.51 0.49 0.47 0.44 0.41 0.37 0.36 0.33 0.33 0.32 0.29
0.36 0.31 0.30 0.33 0.39 0.42 0.45 0.54 0.60 0.59 0.57 0.65 0.62 0.64 0.65 0.69 0.67 0.65 0.62 0.63 0.63 0.64 0.66 0.65 0.65 0.62 0.58 0.55 0.54 0.56 0.58 0.55 0.50 0.48 0.48 0.47 0.44 0.40 0.36 0.34 0.32 0.33 0.33 0.31

GFSCGP_prec_pwat_069.txt.gz
Precipitable_Water
0.43 0.34 0.28 0.25 0.26 0.31 0.37 0.36 0.33 0.32 0.40 0.41 0.43 0.36 0.44 0.58 0.66 0.67 0.70 0.81 0.79 0.72 0.83 0.82 0.74 0.81 0.84 0.88 0.90 0.91 0.85 0.89 0.93 0.88 0.81 0.78 0.78 0.89 0.91 0.91 0.96 0.96 0.94 0.95
0.40 0.34 0.30 0.31 0.35 0.38 0.37 0.34 0.30 0.38 0.40 0.39 0.35 0.29 0.42 0.56 0.58 0.67 0.67 0.76 0.78 0.78 0.76 0.80 0.74 0.71 0.71 0.71 0.74 0.79 0.79 0.79 0.85 0.81 0.89 0.96 0.90 0.89 0.91 0.90 0.94 0.91 0.91 0.99
0.37 0.36 0.34 0.37 0.37 0.35 0.37 0.32 0.25 0.30 0.36 0.42 0.36 0.30 0.44 0.51 0.60 0.68 0.74 0.79 0.76 0.76 0.70 0.75 0.72 0.64 0.62 0.61 0.63 0.68 0.76 0.85 0.88 0.88 0.92 0.88 0.89 0.83 0.78 0.79 0.81 0.89 0.98 1.06
0.42 0.41 0.40 0.45 0.40 0.37 0.31 0.33 0.30 0.33 0.34 0.27 0.37 0.26 0.39 0.45 0.50 0.56 0.65 0.68 0.70 0.73 0.71 0.73 0.69 0.64 0.65 0.65 0.69 0.71 0.73 0.76 0.84 0.82 0.73 0.71 0.71 0.71 0.77 0.76 0.85 0.93 1.06 1.11
0.39 0.41 0.39 0.42 0.42 0.43 0.31 0.42 0.40 0.38 0.34 0.29 0.29 0.30 0.40 0.48 0.42 0.48 0.56 0.64 0.68 0.66 0.64 0.66 0.68 0.69 0.68 0.72 0.74 0.75 0.79 0.82 0.79 0.79 0.79 0.75 0.72 0.71 0.78 0.82 0.83 0.93 1.06 1.13
0.39 0.44 0.42 0.45 0.45 0.43 0.37 0.39 0.38 0.37 0.35 0.25 0.26 0.33 0.39 0.42 0.40 0.47 0.50 0.60 0.65 0.67 0.65 0.71 0.78 0.82 0.73 0.75 0.78 0.79 0.78 0.77 0.77 0.76 0.86 0.90 0.86 0.85 0.83 0.85 0.87 0.95 1.04 1.14
0.37 0.38 0.42 0.47 0.39 0.41 0.37 0.34 0.24 0.23 0.23 0.20 0.40 0.38 0.39 0.45 0.48 0.47 0.44 0.53 0.60 0.65 0.67 0.70 0.74 0.77 0.80 0.76 0.78 0.82 0.80 0.79 0.86 0.91 0.93 0.95 0.99 0.97 0.92 0.92 0.87 0.95 1.01 1.06
0.31 0.29 0.40 0.46 0.41 0.34 0.35 0.32 0.24 0.19 0.21 0.27 0.39 0.33 0.34 0.41 0.45 0.46 0.44 0.52 0.58 0.62 0.68 0.70 0.74 0.77 0.82 0.83 0.84 0.81 0.82 0.84 0.89 0.89 0.93 1.00 1.02 1.03 0.99 1.01 0.98 0.96 0.96 1.03
0.30 0.32 0.43 0.44 0.45 0.38 0.34 0.32 0.36 0.32 0.38 0.34 0.39 0.39 0.42 0.43 0.40 0.41 0.43 0.50 0.55 0.62 0.68 0.74 0.79 0.80 0.84 0.90 0.89 0.87 0.82 0.85 0.88 0.92 0.98 1.01 1.04 1.06 1.04 1.02 1.07 1.09 1.12 1.12
0.35 0.31 0.40 0.43 0.43 0.43 0.38 0.44 0.36 0.40 0.27 0.27 0.32 0.37 0.33 0.37 0.38 0.37 0.39 0.39 0.46 0.55 0.67 0.71 0.74 0.80 0.87 0.90 0.93 0.96 0.92 0.87 0.88 0.93 0.95 0.99 1.03 1.11 1.18 1.14 1.14 1.21 1.26 1.32
0.40 0.38 0.39 0.42 0.37 0.34 0.33 0.33 0.40 0.45 0.40 0.27 0.27 0.32 0.44 0.40 0.46 0.41 0.39 0.41 0.44 0.49 0.56 0.65 0.73 0.80 0.84 0.89 0.92 0.94 1.02 0.99 1.00 1.00 0.97 1.00 1.06 1.11 1.18 1.24 1.33 1.35 1.38 1.30
0.41 0.42 0.37 0.38 0.44 0.42 0.40 0.30 0.35 0.33 0.32 0.36 0.35 0.32 0.46 0.46 0.44 0.42 0.43 0.43 0.43 0.45 0.46 0.46 0.58 0.75 0.85 0.89 0.92 0.94 1.02 1.01 0.99 1.07 1.11 1.19 1.23 1.25 1.33 1.44 1.36 1.23 1.19 1.23
0.44 0.41 0.37 0.36 0.41 0.43 0.37 0.36 0.34 0.34 0.44 0.35 0.30 0.30 0.47 0.47 0.45 0.43 0.41 0.44 0.45 0.45 0.50 0.49 0.49 0.49 0.69 0.80 0.89 1.01 1.14 1.22 1.33 1.24 1.31 1.37 1.27 1.37 1.20 1.16 1.22 1.24 1.18 1.14
0.51 0.47 0.43 0.32 0.37 0.44 0.36 0.36 0.36 0.35 0.32 0.33 0.33 0.35 0.43 0.45 0.44 0.44 0.43 0.44 0.46 0.48 0.50 0.55 0.57 0.52 0.55 0.70 0.90 0.98 1.08 1.19 0.93 0.93 1.02 1.14 1.11 1.14 1.16 1.17 1.10 1.08 1.08 1.08
0.45 0.38 0.43 0.43 0.44 0.49 0.44 0.38 0.32 0.31 0.36 0.33 0.35 0.36 0.41 0.42 0.42 0.43 0.46 0.46 0.47 0.48 0.51 0.53 0.59 0.66 0.64 0.57 0.67 0.75 0.83 0.84 0.90 0.87 0.95 0.94 0.98 1.00 1.01 0.99 1.01 1.04 1.07 1.04
0.46 0.37 0.43 0.40 0.46 0.46 0.46 0.43 0.35 0.33 0.35 0.37 0.40 0.39 0.44 0.42 0.42 0.43 0.44 0.46 0.47 0.51 0.53 0.53 0.62 0.72 0.71 0.72 0.68 0.77 0.81 0.85 0.89 0.87 0.86 0.89 0.90 0.92 0.91 0.93 1.00 1.02 1.00 0.97
0.42 0.39 0.39 0.34 0.44 0.43 0.38 0.41 0.39 0.40 0.37 0.33 0.27 0.33 0.39 0.41 0.39 0.39 0.42 0.45 0.48 0.49 0.52 0.56 0.63 0.73 0.78 0.77 0.79 0.80 0.80 0.82 0.84 0.85 0.87 0.88 0.88 0.86 0.90 0.95 0.92 0.90 0.86 0.81
0.39 0.38 0.40 0.37 0.41 0.28 0.37 0.45 0.48 0.42 0.38 0.40 0.37 0.37 0.37 0.37 0.39 0.40 0.42 0.46 0.50 0.53 0.57 0.63 0.61 0.61 0.71 0.81 0.83 0.81 0.79 0.78 0.79 0.76 0.79 0.81 0.83 0.86 0.85 0.81 0.74 0.70 0.68 0.66
0.47 0.42 0.36 0.37 0.34 0.36 0.38 0.39 0.42 0.40 0.35 0.39 0.36 0.37 0.38 0.39 0.42 0.41 0.47 0.51 0.54 0.58 0.61 0.64 0.68 0.68 0.71 0.77 0.79 0.79 0.73 0.69 0.70 0.73 0.78 0.82 0.79 0.72 0.67 0.65 0.65 0.64 0.63 0.58
0.53 0.46 0.40 0.38 0.30 0.25 0.35 0.40 0.46 0.46 0.32 0.42 0.39 0.37 0.37 0.41 0.35 0.39 0.52 0.55 0.59 0.64 0.65 0.63 0.62 0.65 0.66 0.69 0.71 0.64 0.65 0.69 0.70 0.69 0.65 0.65 0.66 0.65 0.63 0.61 0.59 0.57 0.55 0.55
0.37 0.38 0.34 0.38 0.35 0.36 0.45 0.42 0.47 0.31 0.33 0.41 0.40 0.41 0.43 0.40 0.42 0.49 0.56 0.57 0.59 0.61 0.63 0.66 0.64 0.63 0.66 0.70 0.68 0.64 0.61 0.58 0.60 0.62 0.63 0.64 0.64 0.63 0.62 0.58 0.55 0.54 0.54 0.53
0.30 0.31 0.35 0.38 0.36 0.32 0.55 0.47 0.36 0.43 0.46 0.44 0.46 0.49 0.48 0.50 0.53 0.54 0.55 0.56 0.55 0.54 0.58 0.62 0.62 0.64 0.68 0.70 0.68 0.60 0.58 0.61 0.63 0.63 0.63 0.63 0.64 0.63 0.59 0.54 0.54 0.52 0.51 0.49
0.30 0.35 0.34 0.40 0.42 0.56 0.56 0.59 0.57 0.56 0.52 0.54 0.51 0.57 0.56 0.55 0.55 0.57 0.55 0.56 0.58 0.60 0.62 0.66 0.66 0.66 0.69 0.70 0.68 0.62 0.63 0.65 0.64 0.63 0.63 0.62 0.61 0.58 0.52 0.48 0.47 0.48 0.48 0.43
0.42 0.47 0.42 0.45 0.51 0.60 0.64 0.69 0.71 0.62 0.61 0.63 0.62 0.58 0.61 0.62 0.64 0.62 0.62 0.60 0.61 0.65 0.65 0.68 0.69 0.68 0.69 0.71 0.69 0.68 0.68 0.67 0.65 0.61 0.58 0.56 0.55 0.51 0.48 0.48 0.48 0.46 0.42 0.38
0.33 0.41 0.39 0.45 0.51 0.62 0.65 0.76 0.70 0.68 0.68 0.65 0.67 0.64 0.62 0.62 0.63 0.64 0.63 0.64 0.65 0.67 0.70 0.71 0.70 0.71 0.71 0.72 0.71 0.72 0.70 0.68 0.62 0.57 0.55 0.53 0.51 0.49 0.48 0.49 0.46 0.41 0.40 0.40
0.31 0.31 0.35 0.40 0.53 0.54 0.50 0.58 0.54 0.58 0.67 0.66 0.63 0.63 0.66 0.67 0.64 0.66 0.66 0.69 0.68 0.68 0.72 0.72 0.74 0.72 0.71 0.71 0.70 0.70 0.68 0.65 0.59 0.54 0.52 0.51 0.50 0.48 0.46 0.43 0.41 0.40 0.37 0.36

GFSCGP_prec_pwat_072.txt.gz
Precipitable_Water
0.48 0.39 0.34 0.33 0.29 0.26 0.27 0.32 0.32 0.35 0.40 0.40 0.39 0.42 0.44 0.49 0.60 0.64 0.63 0.66 0.63 0.65 0.80 0.87 0.82 0.84 0.89 0.96 1.08 1.16 1.17 1.18 1.20 1.10 1.11 1.07 0.99 1.04 1.03 1.07 1.06 1.07 1.06 1.01
0.39 0.33 0.39 0.38 0.29 0.27 0.26 0.33 0.32 0.35 0.40 0.38 0.39 0.35 0.41 0.47 0.55 0.64 0.64 0.64 0.62 0.66 0.73 0.77 0.76 0.70 0.79 0.88 0.93 0.98 0.99 1.01 1.02 0.98 0.95 0.96 0.94 0.96 0.94 0.93 0.93 0.94 0.93 0.91
0.34 0.40 0.40 0.37 0.26 0.26 0.34 0.33 0.30 0.30 0.33 0.39 0.38 0.35 0.37 0.48 0.57 0.66 0.63 0.65 0.65 0.66 0.69 0.70 0.69 0.65 0.68 0.75 0.81 0.80 0.82 0.83 0.86 0.88 0.85 0.87 0.89 0.87 0.83 0.82 0.84 0.88 0.90 0.92
0.34 0.42 0.39 0.35 0.31 0.34 0.34 0.38 0.36 0.32 0.30 0.27 0.37 0.24 0.35 0.43 0.50 0.58 0.56 0.61 0.60 0.63 0.71 0.71 0.66 0.65 0.62 0.66 0.73 0.74 0.73 0.75 0.78 0.81 0.72 0.71 0.68 0.68 0.75 0.81 0.84 0.87 0.93 0.89
0.30 0.39 0.37 0.35 0.38 0.44 0.38 0.42 0.39 0.37 0.34 0.31 0.30 0.27 0.30 0.42 0.42 0.45 0.52 0.60 0.65 0.67 0.68 0.66 0.63 0.67 0.61 0.62 0.61 0.64 0.66 0.68 0.73 0.77 0.74 0.77 0.78 0.79 0.79 0.79 0.79 0.83 0.87 0.94
0.31 0.42 0.43 0.36 0.42 0.48 0.48 0.40 0.39 0.39 0.35 0.23 0.29 0.29 0.24 0.30 0.40 0.43 0.52 0.60 0.62 0.68 0.71 0.74 0.73 0.74 0.67 0.63 0.62 0.64 0.64 0.67 0.73 0.75 0.75 0.76 0.75 0.75 0.74 0.74 0.74 0.78 0.83 0.91
0.31 0.34 0.41 0.44 0.40 0.47 0.45 0.37 0.27 0.24 0.24 0.20 0.34 0.32 0.29 0.39 0.44 0.46 0.45 0.55 0.62 0.70 0.73 0.72 0.70 0.71 0.70 0.65 0.65 0.69 0.71 0.68 0.71 0.75 0.78 0.76 0.76 0.72 0.68 0.72 0.75 0.77 0.83 0.92
0.24 0.24 0.35 0.42 0.41 0.40 0.39 0.35 0.26 0.20 0.19 0.21 0.35 0.26 0.29 0.43 0.47 0.50 0.50 0.55 0.61 0.68 0.74 0.72 0.71 0.70 0.72 0.75 0.70 0.70 0.71 0.71 0.74 0.76 0.77 0.78 0.84 0.82 0.89 0.93 0.94 0.94 0.92 0.93
0.24 0.24 0.37 0.39 0.45 0.44 0.39 0.34 0.37 0.30 0.34 0.27 0.29 0.37 0.41 0.43 0.41 0.45 0.45 0.50 0.55 0.63 0.69 0.71 0.75 0.78 0.80 0.84 0.85 0.75 0.70 0.71 0.74 0.75 0.82 0.84 0.90 0.98 1.01 1.03 1.03 1.03 1.08 1.10
0.31 0.25 0.33 0.40 0.46 0.46 0.42 0.42 0.32 0.34 0.25 0.20 0.25 0.33 0.31 0.36 0.37 0.39 0.41 0.46 0.51 0.59 0.66 0.70 0.76 0.80 0.83 0.87 0.94 0.99 0.95 0.84 0.77 0.77 0.81 0.87 0.92 0.98 1.07 1.13 1.13 1.13 1.12 1.16
0.37 0.30 0.32 0.38 0.39 0.39 0.40 0.37 0.39 0.40 0.37 0.25 0.24 0.28 0.41 0.39 0.39 0.37 0.41 0.45 0.48 0.56 0.59 0.67 0.74 0.83 0.86 0.89 0.94 0.96 1.02 1.03 1.00 0.99 0.96 0.97 0.95 0.96 1.03 1.10 1.16 1.24 1.33 1.33
0.38 0.37 0.28 0.32 0.42 0.48 0.45 0.38 0.38 0.33 0.32 0.39 0.41 0.31 0.47 0.44 0.42 0.43 0.43 0.45 0.46 0.51 0.56 0.63 0.69 0.74 0.78 0.82 0.88 0.92 1.01 1.04 1.11 1.17 1.20 1.23 1.26 1.30 1.27 1.23 1.30 1.35 1.28 1.23
0.40 0.35 0.29 0.30 0.38 0.45 0.40 0.40 0.41 0.38 0.39 0.36 0.34 0.30 0.46 0.45 0.43 0.43 0.42 0.43 0.45 0.45 0.48 0.51 0.55 0.57 0.63 0.73 0.79 0.87 0.92 1.03 1.14 1.20 1.23 1.15 1.15 1.29 1.29 1.36 1.32 1.31 1.17 1.02
0.44 0.37 0.32 0.26 0.31 0.43 0.40 0.39 0.40 0.38 0.30 0.31 0.34 0.39 0.47 0.44 0.42 0.43 0.44 0.45 0.47 0.48 0.48 0.49 0.57 0.58 0.60 0.61 0.68 0.76 0.85 0.99 1.07 1.17 1.12 0.89 0.97 1.11 1.27 1.24 1.24 1.18 1.11 1.06
0.41 0.32 0.34 0.36 0.41 0.44 0.44 0.41 0.42 0.38 0.35 0.30 0.30 0.39 0.44 0.45 0.45 0.47 0.47 0.47 0.46 0.48 0.52 0.52 0.57 0.63 0.66 0.66 0.68 0.74 0.81 0.90 0.97 0.96 0.86 0.84 0.91 0.95 1.07 1.05 1.07 1.06 1.02 1.06
0.47 0.34 0.37 0.36 0.43 0.46 0.43 0.45 0.45 0.44 0.42 0.38 0.36 0.38 0.47 0.46 0.47 0.49 0.49 0.45 0.42 0.45 0.49 0.54 0.61 0.67 0.66 0.66 0.69 0.74 0.79 0.86 0.95 0.94 0.88 0.83 0.85 0.91 0.93 0.95 0.96 0.96 0.98 1.03
0.46 0.40 0.34 0.29 0.43 0.46 0.36 0.43 0.45 0.47 0.47 0.42 0.33 0.38 0.46 0.44 0.45 0.46 0.43 0.46 0.43 0.47 0.51 0.54 0.58 0.66 0.70 0.71 0.71 0.72 0.80 0.88 0.90 0.85 0.80 0.80 0.84 0.86 0.89 0.91 0.91 0.91 0.95 0.97
0.48 0.43 0.39 0.33 0.38 0.29 0.41 0.50 0.53 0.49 0.49 0.45 0.42 0.42 0.41 0.41 0.43 0.44 0.46 0.44 0.46 0.50 0.54 0.56 0.61 0.67 0.72 0.74 0.72 0.76 0.81 0.85 0.84 0.79 0.79 0.82 0.82 0.84 0.88 0.89 0.87 0.91 0.91 0.83
0.55 0.50 0.39 0.33 0.31 0.36 0.42 0.45 0.47 0.46 0.43 0.48 0.44 0.40 0.43 0.41 0.42 0.40 0.44 0.46 0.47 0.52 0.57 0.60 0.65 0.67 0.70 0.70 0.70 0.75 0.79 0.84 0.83 0.82 0.78 0.77 0.82 0.83 0.83 0.84 0.79 0.74 0.71 0.69
0.54 0.54 0.40 0.35 0.26 0.23 0.38 0.47 0.54 0.53 0.37 0.52 0.49 0.43 0.42 0.43 0.34 0.38 0.46 0.49 0.52 0.57 0.62 0.63 0.67 0.71 0.70 0.72 0.75 0.74 0.76 0.81 0.79 0.73 0.74 0.81 0.82 0.80 0.71 0.68 0.69 0.69 0.67 0.63
0.38 0.42 0.35 0.35 0.30 0.36 0.48 0.52 0.51 0.36 0.36 0.49 0.53 0.49 0.46 0.42 0.43 0.45 0.53 0.53 0.58 0.61 0.62 0.67 0.69 0.67 0.71 0.75 0.76 0.73 0.72 0.68 0.71 0.76 0.77 0.72 0.71 0.69 0.69 0.67 0.66 0.64 0.61 0.58
0.35 0.38 0.35 0.37 0.31 0.28 0.53 0.52 0.42 0.49 0.54 0.55 0.55 0.51 0.48 0.48 0.50 0.50 0.55 0.56 0.59 0.59 0.64 0.70 0.67 0.67 0.72 0.75 0.73 0.68 0.66 0.71 0.74 0.71 0.68 0.67 0.67 0.66 0.66 0.64 0.63 0.62 0.59 0.54
0.32 0.37 0.38 0.39 0.37 0.49 0.56 0.55 0.65 0.63 0.58 0.60 0.58 0.60 0.58 0.50 0.49 0.54 0.52 0.56 0.62 0.65 0.68 0.70 0.68 0.69 0.74 0.76 0.75 0.70 0.72 0.73 0.70 0.67 0.65 0.66 0.67 0.65 0.65 0.63 0.61 0.60 0.58 0.52
0.42 0.49 0.39 0.38 0.41 0.43 0.52 0.60 0.63 0.67 0.63 0.64 0.63 0.62 0.64 0.60 0.61 0.58 0.60 0.62 0.68 0.72 0.71 0.73 0.72 0.71 0.71 0.77 0.77 0.75 0.74 0.74 0.71 0.67 0.66 0.66 0.64 0.62 0.61 0.61 0.61 0.58 0.56 0.53
0.30 0.38 0.39 0.39 0.44 0.47 0.49 0.57 0.63 0.64 0.70 0.67 0.67 0.65 0.63 0.65 0.64 0.67 0.66 0.67 0.72 0.74 0.78 0.78 0.74 0.72 0.72 0.76 0.76 0.77 0.76 0.74 0.70 0.67 0.65 0.64 0.63 0.60 0.57 0.56 0.55 0.54 0.55 0.53
0.36 0.36 0.34 0.31 0.39 0.42 0.48 0.53 0.58 0.50 0.65 0.73 0.67 0.68 0.69 0.68 0.67 0.70 0.68 0.72 0.74 0.75 0.78 0.75 0.74 0.73 0.73 0.75 0.76 0.76 0.76 0.75 0.70 0.64 0.61 0.60 0.59 0.57 0.55 0.53 0.52 0.53 0.50 0.47

GFSCGP_prec_pwat_075.txt.gz
Precipitable_Water
0.44 0.36 0.34 0.39 0.42 0.37 0.29 0.25 0.25 0.29 0.39 0.37 0.35 0.35 0.41 0.48 0.49 0.53 0.65 0.65 0.67 0.73 0.83 0.85 0.84 0.78 0.84 1.03 1.20 1.26 1.28 1.32 1.31 1.28 1.24 1.25 1.19 1.19 1.13 1.09 1.13 1.10 1.05 0.99
0.35 0.32 0.42 0.44 0.41 0.36 0.31 0.25 0.25 0.32 0.40 0.37 0.35 0.35 0.39 0.45 0.44 0.50 0.59 0.59 0.66 0.74 0.77 0.77 0.76 0.73 0.78 0.88 1.01 1.13 1.19 1.25 1.27 1.25 1.25 1.23 1.18 1.18 1.13 1.14 1.09 1.06 1.04 1.01
0.30 0.37 0.43 0.40 0.36 0.32 0.31 0.25 0.23 0.29 0.37 0.36 0.33 0.31 0.37 0.44 0.46 0.51 0.60 0.61 0.65 0.65 0.66 0.72 0.68 0.68 0.70 0.79 0.85 0.93 0.99 1.06 1.17 1.19 1.17 1.13 1.10 1.09 1.04 1.01 1.00 1.03 1.03 1.04
0.32 0.38 0.39 0.38 0.35 0.34 0.26 0.27 0.35 0.35 0.33 0.23 0.34 0.23 0.31 0.37 0.41 0.49 0.54 0.54 0.55 0.60 0.65 0.68 0.65 0.63 0.60 0.73 0.82 0.84 0.89 0.92 1.00 1.00 0.94 0.92 0.88 0.86 0.87 0.87 0.89 0.90 0.96 0.96
0.28 0.32 0.33 0.35 0.38 0.38 0.30 0.33 0.39 0.39 0.34 0.32 0.31 0.26 0.27 0.35 0.35 0.40 0.45 0.47 0.54 0.57 0.60 0.59 0.59 0.63 0.65 0.67 0.72 0.77 0.81 0.84 0.90 0.91 0.86 0.82 0.80 0.81 0.83 0.83 0.80 0.83 0.88 0.90
0.29 0.36 0.36 0.34 0.38 0.38 0.37 0.41 0.42 0.42 0.36 0.24 0.29 0.28 0.23 0.28 0.32 0.35 0.42 0.45 0.50 0.57 0.61 0.69 0.73 0.75 0.70 0.67 0.67 0.68 0.69 0.71 0.77 0.79 0.80 0.78 0.76 0.75 0.73 0.72 0.73 0.78 0.86 0.88
0.28 0.27 0.34 0.40 0.37 0.41 0.42 0.39 0.29 0.27 0.26 0.20 0.32 0.30 0.26 0.33 0.40 0.43 0.43 0.45 0.50 0.57 0.63 0.65 0.68 0.70 0.72 0.70 0.66 0.67 0.66 0.65 0.69 0.72 0.73 0.74 0.72 0.73 0.69 0.71 0.76 0.79 0.81 0.84
0.19 0.18 0.28 0.35 0.35 0.35 0.39 0.38 0.31 0.24 0.23 0.22 0.33 0.24 0.23 0.39 0.47 0.49 0.48 0.46 0.49 0.55 0.63 0.66 0.70 0.70 0.68 0.71 0.70 0.66 0.66 0.65 0.68 0.70 0.71 0.75 0.73 0.73 0.78 0.80 0.82 0.82 0.81 0.82
0.21 0.21 0.31 0.34 0.39 0.39 0.36 0.32 0.42 0.35 0.37 0.25 0.27 0.29 0.30 0.35 0.39 0.41 0.42 0.46 0.48 0.55 0.59 0.64 0.72 0.75 0.74 0.73 0.73 0.72 0.66 0.66 0.68 0.69 0.72 0.75 0.76 0.78 0.81 0.86 0.85 0.82 0.86 0.93
0.29 0.22 0.30 0.34 0.39 0.40 0.38 0.45 0.35 0.37 0.25 0.20 0.25 0.22 0.22 0.30 0.37 0.39 0.40 0.42 0.48 0.55 0.60 0.66 0.74 0.78 0.81 0.81 0.84 0.89 0.88 0.76 0.71 0.74 0.77 0.79 0.82 0.85 0.88 0.89 0.89 0.93 1.04 1.13
0.31 0.30 0.29 0.34 0.33 0.32 0.38 0.36 0.40 0.39 0.34 0.25 0.21 0.23 0.33 0.37 0.41 0.38 0.39 0.42 0.45 0.46 0.52 0.62 0.70 0.78 0.83 0.88 0.90 0.91 0.92 0.94 0.96 0.94 0.94 0.94 0.94 0.95 0.97 0.98 1.01 1.09 1.20 1.25
0.31 0.28 0.25 0.31 0.39 0.42 0.42 0.38 0.39 0.33 0.33 0.35 0.29 0.25 0.43 0.45 0.46 0.43 0.40 0.44 0.51 0.48 0.51 0.58 0.63 0.71 0.77 0.81 0.86 0.89 0.93 0.97 1.05 1.14 1.16 1.18 1.14 1.04 1.07 1.08 1.13 1.14 1.15 1.24
0.42 0.29 0.23 0.25 0.32 0.37 0.38 0.41 0.41 0.42 0.42 0.32 0.28 0.26 0.49 0.50 0.45 0.46 0.41 0.43 0.48 0.50 0.54 0.57 0.61 0.63 0.66 0.72 0.75 0.78 0.84 0.89 0.98 1.09 1.12 1.11 1.10 1.06 0.98 1.03 1.14 1.21 1.23 1.31
0.53 0.35 0.26 0.20 0.26 0.32 0.34 0.39 0.43 0.41 0.34 0.34 0.34 0.30 0.42 0.45 0.46 0.46 0.46 0.45 0.47 0.50 0.51 0.54 0.57 0.57 0.61 0.65 0.66 0.67 0.74 0.81 0.85 0.92 1.00 1.01 1.13 1.01 1.00 1.02 1.13 1.23 1.21 1.19
0.50 0.35 0.34 0.32 0.35 0.39 0.37 0.39 0.42 0.41 0.39 0.32 0.36 0.33 0.38 0.43 0.45 0.47 0.47 0.47 0.46 0.49 0.51 0.53 0.54 0.57 0.61 0.63 0.65 0.65 0.70 0.75 0.83 0.87 0.95 0.98 1.03 1.08 1.07 1.03 1.04 1.10 1.10 1.09
0.57 0.38 0.39 0.34 0.39 0.40 0.39 0.41 0.44 0.45 0.44 0.39 0.40 0.36 0.41 0.43 0.50 0.51 0.50 0.49 0.47 0.49 0.50 0.53 0.58 0.59 0.60 0.63 0.65 0.69 0.71 0.71 0.78 0.84 0.92 1.01 1.06 1.05 1.00 0.96 0.97 1.00 1.02 1.04
0.53 0.44 0.37 0.30 0.38 0.40 0.34 0.38 0.43 0.46 0.47 0.46 0.36 0.41 0.44 0.43 0.45 0.48 0.49 0.48 0.50 0.52 0.51 0.52 0.57 0.57 0.61 0.65 0.70 0.70 0.75 0.79 0.81 0.86 0.90 0.96 0.95 0.91 0.90 0.92 0.90 0.92 0.95 1.00
0.52 0.49 0.44 0.34 0.39 0.26 0.36 0.46 0.48 0.47 0.48 0.50 0.49 0.49 0.47 0.46 0.47 0.50 0.50 0.48 0.50 0.50 0.48 0.48 0.56 0.60 0.68 0.72 0.74 0.77 0.78 0.75 0.80 0.85 0.88 0.92 0.89 0.88 0.87 0.82 0.85 0.89 0.93 0.93
0.53 0.49 0.42 0.36 0.32 0.33 0.36 0.43 0.47 0.46 0.44 0.53 0.51 0.51 0.50 0.46 0.44 0.40 0.45 0.47 0.46 0.48 0.49 0.53 0.59 0.67 0.72 0.74 0.77 0.77 0.76 0.77 0.76 0.81 0.88 0.92 0.90 0.87 0.79 0.81 0.86 0.90 0.90 0.91
0.42 0.49 0.42 0.36 0.31 0.25 0.35 0.43 0.52 0.58 0.37 0.55 0.54 0.52 0.50 0.46 0.35 0.39 0.43 0.45 0.44 0.47 0.54 0.58 0.65 0.70 0.71 0.75 0.78 0.76 0.74 0.73 0.74 0.82 0.88 0.91 0.85 0.81 0.84 0.87 0.87 0.85 0.79 0.75
0.32 0.35 0.30 0.33 0.35 0.38 0.45 0.48 0.51 0.39 0.39 0.60 0.62 0.55 0.53 0.48 0.47 0.48 0.50 0.49 0.51 0.54 0.59 0.70 0.72 0.69 0.70 0.74 0.75 0.72 0.73 0.74 0.81 0.85 0.84 0.80 0.80 0.83 0.82 0.79 0.77 0.74 0.71 0.69
0.28 0.27 0.27 0.32 0.32 0.30 0.54 0.51 0.42 0.51 0.59 0.63 0.62 0.59 0.56 0.58 0.57 0.54 0.53 0.54 0.54 0.56 0.65 0.71 0.68 0.68 0.74 0.79 0.80 0.75 0.76 0.83 0.83 0.80 0.77 0.79 0.79 0.77 0.75 0.73 0.71 0.70 0.68 0.64
0.25 0.29 0.25 0.30 0.36 0.51 0.58 0.53 0.59 0.62 0.67 0.64 0.62 0.63 0.64 0.62 0.59 0.57 0.56 0.57 0.61 0.65 0.65 0.70 0.71 0.74 0.79 0.82 0.81 0.75 0.76 0.80 0.80 0.80 0.79 0.76 0.75 0.73 0.73 0.70 0.68 0.66 0.65 0.63
0.29 0.34 0.36 0.39 0.46 0.51 0.53 0.59 0.60 0.59 0.63 0.70 0.67 0.65 0.64 0.61 0.64 0.61 0.61 0.66 0.66 0.69 0.69 0.75 0.78 0.78 0.79 0.83 0.81 0.80 0.81 0.83 0.81 0.77 0.74 0.72 0.70 0.69 0.69 0.69 0.68 0.65 0.63 0.61
0.28 0.33 0.33 0.39 0.48 0.52 0.51 0.52 0.49 0.52 0.55 0.62 0.67 0.65 0.66 0.67 0.65 0.68 0.69 0.70 0.74 0.76 0.78 0.81 0.79 0.78 0.80 0.84 0.84 0.85 0.85 0.83 0.78 0.76 0.74 0.72 0.71 0.69 0.67 0.67 0.65 0.64 0.64 0.63
0.36 0.35 0.32 0.28 0.34 0.38 0.41 0.45 0.46 0.45 0.50 0.57 0.59 0.63 0.67 0.68 0.68 0.71 0.72 0.76 0.79 0.80 0.83 0.82 0.81 0.80 0.79 0.81 0.80 0.82 0.84 0.81 0.78 0.76 0.75 0.73 0.71 0.69 0.66 0.63 0.60 0.61 0.61 0.60

GFSCGP_prec_pwat_078.txt.gz
Precipitable_Water
0.46 0.36 0.31 0.37 0.40 0.39 0.36 0.33 0.27 0.29 0.29 0.32 0.36 0.35 0.35 0.40 0.46 0.47 0.54 0.65 0.70 0.72 0.81 0.84 0.88 0.87 0.84 0.96 1.17 1.26 1.26 1.32 1.31 1.29 1.30 1.29 1.23 1.30 1.30 1.24 1.15 1.18 1.09 1.02
0.34 0.28 0.37 0.40 0.41 0.40 0.38 0.34 0.29 0.28 0.29 0.32 0.36 0.33 0.33 0.38 0.40 0.47 0.52 0.62 0.70 0.75 0.78 0.81 0.80 0.77 0.78 0.89 1.08 1.24 1.27 1.31 1.34 1.34 1.33 1.34 1.28 1.26 1.25 1.22 1.19 1.21 1.05 1.01
0.27 0.29 0.36 0.36 0.37 0.36 0.37 0.34 0.31 0.25 0.27 0.36 0.37 0.31 0.28 0.36 0.42 0.48 0.50 0.62 0.69 0.69 0.70 0.71 0.74 0.70 0.72 0.81 0.94 1.09 1.19 1.26 1.31 1.30 1.31 1.29 1.30 1.25 1.16 1.19 1.19 1.15 1.10 1.05
0.31 0.33 0.33 0.34 0.33 0.38 0.31 0.38 0.33 0.26 0.26 0.23 0.36 0.25 0.25 0.31 0.34 0.41 0.47 0.55 0.57 0.62 0.70 0.70 0.73 0.67 0.63 0.71 0.83 0.95 1.04 1.10 1.20 1.27 1.23 1.21 1.15 1.09 1.13 1.11 1.06 1.03 1.05 1.05
0.24 0.29 0.31 0.30 0.35 0.40 0.35 0.39 0.32 0.28 0.28 0.31 0.33 0.29 0.23 0.28 0.29 0.33 0.39 0.47 0.52 0.59 0.61 0.63 0.68 0.71 0.68 0.67 0.75 0.81 0.89 0.98 1.05 1.08 1.10 1.07 1.04 1.01 1.02 0.99 0.95 0.97 0.98 1.00
0.21 0.32 0.33 0.33 0.38 0.41 0.42 0.37 0.32 0.31 0.33 0.26 0.34 0.32 0.22 0.23 0.29 0.32 0.36 0.41 0.44 0.54 0.60 0.68 0.73 0.77 0.70 0.64 0.70 0.74 0.77 0.81 0.91 0.94 0.94 0.90 0.87 0.86 0.86 0.87 0.85 0.85 0.89 0.92
0.22 0.23 0.30 0.36 0.32 0.37 0.37 0.32 0.23 0.23 0.25 0.23 0.36 0.32 0.24 0.29 0.33 0.35 0.41 0.41 0.44 0.51 0.57 0.63 0.70 0.70 0.72 0.68 0.63 0.67 0.70 0.72 0.80 0.84 0.85 0.82 0.81 0.80 0.79 0.80 0.79 0.78 0.80 0.83
0.13 0.13 0.21 0.31 0.32 0.32 0.34 0.32 0.25 0.21 0.22 0.26 0.38 0.28 0.24 0.31 0.36 0.42 0.45 0.46 0.48 0.51 0.56 0.60 0.68 0.73 0.72 0.70 0.67 0.65 0.66 0.68 0.72 0.76 0.79 0.82 0.83 0.83 0.84 0.83 0.82 0.80 0.79 0.81
0.14 0.14 0.23 0.25 0.30 0.34 0.35 0.30 0.36 0.32 0.35 0.27 0.31 0.36 0.36 0.30 0.30 0.37 0.42 0.45 0.44 0.49 0.54 0.58 0.67 0.74 0.76 0.73 0.72 0.69 0.63 0.66 0.69 0.70 0.77 0.78 0.81 0.85 0.84 0.86 0.87 0.84 0.84 0.86
0.25 0.17 0.26 0.30 0.32 0.32 0.32 0.40 0.31 0.34 0.23 0.21 0.27 0.31 0.26 0.22 0.26 0.35 0.38 0.40 0.43 0.48 0.53 0.59 0.66 0.72 0.79 0.83 0.83 0.85 0.85 0.74 0.68 0.70 0.73 0.76 0.78 0.82 0.83 0.84 0.81 0.81 0.84 0.88
0.31 0.27 0.24 0.28 0.27 0.26 0.30 0.30 0.36 0.37 0.32 0.23 0.23 0.26 0.36 0.29 0.35 0.38 0.40 0.44 0.46 0.48 0.50 0.58 0.65 0.72 0.80 0.87 0.88 0.86 0.89 0.90 0.87 0.81 0.75 0.75 0.78 0.81 0.81 0.80 0.78 0.78 0.85 0.89
0.37 0.25 0.20 0.22 0.34 0.38 0.34 0.32 0.35 0.31 0.29 0.33 0.30 0.27 0.43 0.41 0.43 0.43 0.42 0.42 0.45 0.49 0.47 0.54 0.62 0.68 0.73 0.79 0.85 0.89 0.91 0.91 0.93 0.95 0.97 0.97 0.94 0.96 0.90 0.89 0.90 0.93 0.93 1.00
0.48 0.29 0.18 0.19 0.25 0.34 0.33 0.37 0.38 0.39 0.40 0.32 0.27 0.28 0.45 0.41 0.45 0.48 0.47 0.44 0.44 0.50 0.51 0.53 0.59 0.60 0.61 0.68 0.72 0.79 0.84 0.88 0.94 0.97 0.98 1.03 1.05 1.08 1.03 1.00 0.95 1.00 1.04 1.15
0.55 0.41 0.29 0.16 0.20 0.27 0.29 0.33 0.38 0.38 0.32 0.32 0.30 0.34 0.42 0.41 0.43 0.47 0.50 0.50 0.45 0.46 0.50 0.54 0.57 0.58 0.59 0.62 0.65 0.67 0.69 0.73 0.78 0.84 0.87 0.89 1.01 1.10 1.10 1.12 1.03 1.01 1.07 1.16
0.54 0.37 0.37 0.32 0.30 0.29 0.31 0.32 0.35 0.34 0.36 0.32 0.34 0.35 0.42 0.43 0.45 0.48 0.49 0.54 0.49 0.47 0.47 0.51 0.52 0.55 0.58 0.61 0.64 0.66 0.65 0.70 0.74 0.76 0.80 0.84 0.94 1.04 1.09 1.09 1.10 1.06 1.04 1.06
0.52 0.38 0.41 0.29 0.32 0.32 0.30 0.31 0.33 0.35 0.38 0.38 0.39 0.37 0.49 0.49 0.50 0.49 0.49 0.54 0.51 0.49 0.50 0.50 0.55 0.55 0.57 0.58 0.61 0.65 0.67 0.71 0.76 0.73 0.75 0.85 0.89 0.97 1.04 1.09 1.07 1.05 1.00 1.00
0.47 0.44 0.43 0.30 0.34 0.32 0.27 0.29 0.33 0.36 0.39 0.39 0.33 0.42 0.52 0.48 0.48 0.47 0.49 0.53 0.55 0.54 0.52 0.52 0.55 0.56 0.59 0.61 0.65 0.66 0.71 0.77 0.78 0.74 0.76 0.87 0.88 0.94 1.00 1.01 0.98 0.95 0.94 0.94
0.40 0.40 0.43 0.35 0.36 0.23 0.32 0.42 0.43 0.41 0.42 0.43 0.44 0.49 0.54 0.53 0.54 0.49 0.48 0.49 0.52 0.55 0.57 0.56 0.56 0.57 0.64 0.68 0.71 0.75 0.77 0.79 0.80 0.78 0.77 0.85 0.88 0.90 0.95 0.94 0.92 0.91 0.91 0.84
0.49 0.43 0.39 0.32 0.32 0.35 0.36 0.43 0.43 0.40 0.37 0.48 0.46 0.53 0.56 0.59 0.54 0.49 0.49 0.48 0.49 0.51 0.53 0.55 0.56 0.56 0.64 0.70 0.75 0.77 0.78 0.80 0.79 0.79 0.77 0.84 0.89 0.90 0.93 0.95 0.93 0.89 0.84 0.87
0.38 0.46 0.37 0.37 0.26 0.26 0.36 0.45 0.50 0.50 0.32 0.48 0.55 0.55 0.56 0.55 0.44 0.47 0.51 0.51 0.48 0.51 0.53 0.56 0.58 0.60 0.65 0.72 0.79 0.78 0.77 0.77 0.77 0.79 0.80 0.87 0.92 0.91 0.91 0.87 0.80 0.85 0.87 0.86
0.32 0.34 0.31 0.32 0.28 0.31 0.41 0.47 0.55 0.33 0.33 0.53 0.59 0.60 0.61 0.56 0.57 0.59 0.57 0.54 0.54 0.54 0.57 0.60 0.61 0.59 0.66 0.76 0.79 0.75 0.74 0.73 0.81 0.84 0.87 0.88 0.90 0.87 0.84 0.82 0.85 0.85 0.84 0.82
0.32 0.30 0.31 0.34 0.28 0.23 0.44 0.46 0.42 0.52 0.55 0.56 0.60 0.67 0.66 0.69 0.68 0.65 0.60 0.58 0.59 0.59 0.62 0.63 0.63 0.68 0.76 0.80 0.77 0.73 0.74 0.82 0.86 0.87 0.86 0.84 0.84 0.82 0.83 0.83 0.81 0.79 0.76 0.72
0.25 0.33 0.31 0.32 0.30 0.43 0.49 0.53 0.59 0.62 0.63 0.59 0.61 0.69 0.70 0.67 0.72 0.71 0.66 0.63 0.66 0.68 0.70 0.73 0.71 0.72 0.76 0.79 0.82 0.77 0.83 0.89 0.86 0.82 0.80 0.79 0.80 0.80 0.81 0.78 0.75 0.72 0.72 0.69
0.23 0.34 0.29 0.29 0.33 0.41 0.48 0.52 0.54 0.66 0.59 0.61 0.60 0.63 0.69 0.68 0.69 0.71 0.70 0.69 0.71 0.73 0.76 0.83 0.80 0.75 0.76 0.85 0.89 0.88 0.88 0.88 0.85 0.81 0.81 0.81 0.79 0.78 0.77 0.75 0.74 0.72 0.70 0.68
0.29 0.29 0.27 0.27 0.32 0.36 0.41 0.48 0.54 0.59 0.61 0.61 0.61 0.60 0.63 0.65 0.70 0.73 0.74 0.76 0.78 0.83 0.88 0.90 0.85 0.82 0.82 0.88 0.90 0.91 0.89 0.87 0.82 0.81 0.79 0.78 0.77 0.75 0.73 0.73 0.73 0.72 0.73 0.72
0.34 0.29 0.24 0.23 0.37 0.39 0.40 0.49 0.50 0.48 0.51 0.54 0.55 0.55 0.63 0.66 0.69 0.72 0.71 0.77 0.82 0.86 0.85 0.91 0.88 0.88 0.84 0.86 0.86 0.87 0.88 0.86 0.81 0.77 0.76 0.77 0.74 0.72 0.71 0.71 0.70 0.71 0.70 0.68

GFSCGP_prec_pwat_081.txt.gz
Precipitable_Water
0.44 0.39 0.35 0.38 0.41 0.38 0.36 0.33 0.32 0.36 0.35 0.30 0.25 0.28 0.37 0.41 0.43 0.45 0.49 0.55 0.64 0.70 0.80 0.84 0.85 0.89 0.86 0.88 1.01 1.19 1.24 1.30 1.32 1.31 1.31 1.32 1.29 1.27 1.29 1.21 1.19 1.15 1.12 1.06
0.39 0.33 0.42 0.44 0.42 0.38 0.35 0.32 0.32 0.36 0.37 0.30 0.26 0.27 0.37 0.40 0.38 0.44 0.46 0.53 0.60 0.72 0.75 0.81 0.82 0.83 0.81 0.84 0.98 1.19 1.26 1.30 1.33 1.33 1.34 1.34 1.33 1.30 1.32 1.25 1.23 1.18 1.10 1.09
0.30 0.34 0.40 0.39 0.37 0.33 0.35 0.33 0.34 0.33 0.36 0.32 0.26 0.25 0.34 0.39 0.41 0.44 0.49 0.54 0.61 0.67 0.68 0.72 0.76 0.78 0.77 0.77 0.90 1.11 1.22 1.29 1.32 1.35 1.34 1.33 1.34 1.33 1.25 1.16 1.15 1.15 1.16 1.09
0.29 0.36 0.35 0.36 0.31 0.31 0.26 0.36 0.36 0.35 0.31 0.23 0.28 0.19 0.31 0.33 0.32 0.36 0.42 0.47 0.55 0.65 0.67 0.68 0.71 0.74 0.71 0.72 0.86 1.02 1.11 1.20 1.31 1.35 1.31 1.26 1.19 1.16 1.20 1.16 1.12 1.09 1.12 1.13
0.23 0.25 0.26 0.29 0.34 0.37 0.31 0.38 0.36 0.35 0.30 0.26 0.24 0.22 0.30 0.36 0.28 0.29 0.36 0.43 0.50 0.61 0.65 0.62 0.66 0.71 0.72 0.73 0.78 0.88 0.99 1.08 1.17 1.28 1.30 1.26 1.23 1.23 1.21 1.18 1.11 1.12 1.14 1.10
0.23 0.29 0.26 0.27 0.33 0.37 0.39 0.36 0.36 0.35 0.31 0.20 0.23 0.26 0.27 0.31 0.29 0.32 0.36 0.40 0.46 0.54 0.62 0.64 0.69 0.71 0.69 0.70 0.72 0.78 0.84 0.93 1.04 1.10 1.15 1.17 1.14 1.13 1.08 1.06 1.00 1.03 1.05 1.02
0.19 0.18 0.23 0.26 0.27 0.37 0.38 0.34 0.24 0.23 0.22 0.17 0.27 0.27 0.28 0.36 0.34 0.34 0.36 0.42 0.46 0.50 0.55 0.61 0.64 0.65 0.68 0.64 0.62 0.70 0.74 0.77 0.88 0.93 0.98 1.01 1.02 1.02 0.97 0.95 0.93 0.93 0.92 0.92
0.14 0.14 0.22 0.24 0.21 0.24 0.30 0.32 0.24 0.18 0.19 0.20 0.29 0.23 0.29 0.41 0.38 0.37 0.40 0.45 0.47 0.50 0.54 0.55 0.61 0.69 0.68 0.69 0.65 0.67 0.68 0.71 0.80 0.86 0.90 0.94 0.95 0.96 0.95 0.95 0.92 0.89 0.86 0.85
0.14 0.14 0.21 0.23 0.23 0.23 0.27 0.25 0.34 0.27 0.32 0.26 0.28 0.32 0.37 0.42 0.37 0.36 0.36 0.42 0.45 0.48 0.53 0.57 0.60 0.68 0.74 0.71 0.70 0.65 0.68 0.70 0.74 0.79 0.86 0.89 0.91 0.90 0.88 0.88 0.90 0.89 0.90 0.88
0.25 0.17 0.22 0.29 0.30 0.29 0.26 0.33 0.27 0.29 0.19 0.19 0.24 0.27 0.26 0.35 0.33 0.34 0.36 0.43 0.46 0.51 0.56 0.59 0.62 0.66 0.73 0.79 0.76 0.76 0.71 0.68 0.71 0.76 0.80 0.82 0.86 0.88 0.89 0.89 0.86 0.88 0.89 0.89
0.31 0.26 0.24 0.28 0.25 0.24 0.25 0.25 0.30 0.31 0.28 0.21 0.20 0.25 0.36 0.37 0.39 0.37 0.40 0.46 0.46 0.48 0.52 0.59 0.62 0.69 0.76 0.84 0.84 0.81 0.81 0.78 0.71 0.72 0.75 0.78 0.81 0.85 0.85 0.84 0.86 0.87 0.89 0.89
0.44 0.30 0.20 0.22 0.32 0.33 0.31 0.28 0.28 0.25 0.26 0.29 0.27 0.25 0.41 0.43 0.45 0.41 0.43 0.47 0.48 0.50 0.53 0.60 0.66 0.70 0.74 0.78 0.84 0.85 0.87 0.87 0.90 0.88 0.83 0.80 0.78 0.81 0.80 0.79 0.80 0.83 0.84 0.87
0.42 0.34 0.20 0.18 0.23 0.28 0.27 0.31 0.32 0.30 0.32 0.26 0.26 0.28 0.43 0.45 0.45 0.47 0.47 0.49 0.49 0.48 0.54 0.58 0.62 0.66 0.71 0.76 0.80 0.85 0.87 0.90 0.93 0.95 0.95 0.93 0.92 0.93 0.93 0.94 0.96 0.92 0.89 0.89
0.40 0.36 0.32 0.21 0.20 0.27 0.22 0.28 0.33 0.32 0.25 0.23 0.24 0.31 0.38 0.42 0.44 0.46 0.48 0.52 0.52 0.51 0.52 0.56 0.59 0.60 0.64 0.67 0.75 0.74 0.79 0.85 0.83 0.84 0.84 0.84 0.86 0.82 0.88 0.98 0.99 0.97 0.95 0.96
0.32 0.25 0.29 0.34 0.36 0.35 0.28 0.28 0.30 0.29 0.31 0.27 0.28 0.32 0.37 0.42 0.46 0.46 0.50 0.52 0.53 0.53 0.51 0.52 0.56 0.61 0.63 0.64 0.68 0.69 0.70 0.72 0.76 0.75 0.75 0.77 0.84 0.89 0.91 0.93 1.01 1.07 1.07 1.07
0.37 0.31 0.37 0.29 0.37 0.38 0.31 0.29 0.28 0.31 0.32 0.32 0.34 0.33 0.44 0.47 0.51 0.48 0.50 0.53 0.51 0.55 0.55 0.52 0.53 0.58 0.61 0.65 0.68 0.72 0.69 0.68 0.73 0.73 0.68 0.74 0.79 0.81 0.85 0.94 1.03 1.10 1.13 1.14
0.27 0.31 0.33 0.23 0.32 0.38 0.29 0.24 0.28 0.29 0.33 0.34 0.28 0.35 0.43 0.44 0.46 0.48 0.50 0.56 0.54 0.56 0.58 0.56 0.54 0.53 0.56 0.61 0.67 0.68 0.71 0.77 0.74 0.73 0.76 0.75 0.80 0.83 0.87 0.94 1.01 1.05 1.07 1.09
0.26 0.30 0.33 0.28 0.35 0.26 0.38 0.40 0.35 0.31 0.32 0.36 0.38 0.40 0.44 0.46 0.49 0.53 0.54 0.55 0.56 0.56 0.59 0.59 0.57 0.55 0.58 0.62 0.66 0.71 0.75 0.76 0.78 0.79 0.81 0.83 0.83 0.87 0.89 0.90 0.94 0.98 1.00 0.98
0.29 0.28 0.30 0.28 0.30 0.36 0.43 0.46 0.41 0.36 0.34 0.43 0.41 0.43 0.45 0.50 0.49 0.53 0.60 0.60 0.55 0.56 0.57 0.61 0.64 0.65 0.67 0.67 0.70 0.71 0.72 0.77 0.80 0.80 0.82 0.85 0.85 0.86 0.89 0.87 0.88 0.92 0.93 0.93
0.27 0.33 0.35 0.32 0.25 0.22 0.34 0.48 0.57 0.51 0.31 0.49 0.51 0.50 0.51 0.51 0.41 0.52 0.69 0.67 0.61 0.60 0.59 0.56 0.58 0.63 0.68 0.70 0.74 0.73 0.72 0.77 0.79 0.84 0.88 0.92 0.87 0.85 0.86 0.91 0.92 0.92 0.90 0.85
0.28 0.31 0.28 0.27 0.26 0.32 0.38 0.45 0.52 0.31 0.37 0.55 0.59 0.57 0.56 0.54 0.59 0.68 0.74 0.71 0.70 0.67 0.67 0.66 0.64 0.62 0.70 0.74 0.75 0.72 0.76 0.78 0.87 0.92 0.89 0.87 0.86 0.85 0.88 0.88 0.88 0.86 0.81 0.80
0.34 0.31 0.28 0.30 0.29 0.26 0.50 0.49 0.42 0.52 0.57 0.59 0.62 0.62 0.58 0.64 0.71 0.73 0.75 0.76 0.75 0.72 0.73 0.75 0.68 0.69 0.74 0.78 0.76 0.75 0.78 0.88 0.90 0.88 0.85 0.85 0.86 0.85 0.85 0.82 0.80 0.80 0.81 0.80
0.22 0.34 0.35 0.37 0.36 0.46 0.52 0.49 0.57 0.63 0.60 0.58 0.61 0.68 0.63 0.64 0.73 0.75 0.77 0.81 0.79 0.78 0.79 0.81 0.72 0.72 0.77 0.83 0.87 0.83 0.85 0.88 0.86 0.86 0.85 0.85 0.85 0.84 0.83 0.80 0.80 0.79 0.79 0.76
0.27 0.35 0.30 0.31 0.38 0.38 0.38 0.47 0.52 0.58 0.58 0.64 0.69 0.65 0.65 0.65 0.71 0.70 0.78 0.82 0.86 0.87 0.84 0.83 0.80 0.78 0.80 0.88 0.93 0.95 0.93 0.93 0.90 0.85 0.84 0.83 0.83 0.82 0.83 0.82 0.81 0.77 0.74 0.72
0.29 0.28 0.24 0.25 0.29 0.32 0.36 0.41 0.48 0.51 0.57 0.56 0.55 0.63 0.60 0.63 0.67 0.69 0.73 0.82 0.87 0.89 0.89 0.90 0.86 0.86 0.89 0.91 0.91 0.93 0.93 0.90 0.84 0.81 0.81 0.80 0.78 0.77 0.77 0.77 0.76 0.76 0.76 0.75
0.36 0.31 0.25 0.22 0.35 0.33 0.32 0.39 0.47 0.49 0.51 0.54 0.56 0.58 0.63 0.63 0.63 0.68 0.70 0.78 0.83 0.84 0.88 0.88 0.91 0.91 0.89 0.89 0.88 0.89 0.91 0.90 0.85 0.80 0.79 0.76 0.77 0.75 0.74 0.73 0.72 0.73 0.73 0.72

GFSCGP_prec_pwat_084.txt.gz
Precipitable_Water
0.42 0.40 0.36 0.38 0.42 0.40 0.37 0.36 0.34 0.38 0.39 0.37 0.34 0.31 0.30 0.32 0.40 0.42 0.46 0.51 0.56 0.62 0.77 0.87 0.85 0.88 0.84 0.84 0.87 1.04 1.21 1.24 1.26 1.26 1.27 1.29 1.24 1.26 1.26 1.20 1.10 1.05 1.09 1.04
0.39 0.35 0.41 0.45 0.43 0.43 0.40 0.34 0.34 0.37 0.38 0.38 0.35 0.32 0.31 0.31 0.39 0.42 0.43 0.48 0.54 0.62 0.75 0.82 0.82 0.84 0.80 0.80 0.87 1.06 1.21 1.26 1.27 1.33 1.35 1.33 1.34 1.25 1.23 1.20 1.18 1.18 1.12 1.03
0.33 0.35 0.41 0.43 0.44 0.39 0.39 0.35 0.36 0.33 0.37 0.39 0.35 0.31 0.31 0.28 0.37 0.41 0.43 0.48 0.54 0.60 0.71 0.76 0.76 0.76 0.78 0.75 0.81 1.00 1.17 1.29 1.33 1.35 1.38 1.36 1.34 1.29 1.22 1.17 1.16 1.17 1.19 1.10
0.31 0.41 0.34 0.38 0.38 0.39 0.34 0.39 0.37 0.34 0.32 0.27 0.35 0.22 0.26 0.33 0.37 0.40 0.41 0.44 0.50 0.58 0.71 0.74 0.69 0.71 0.74 0.72 0.80 0.96 1.10 1.20 1.30 1.36 1.32 1.27 1.21 1.13 1.22 1.20 1.18 1.22 1.22 1.17
0.29 0.27 0.30 0.27 0.34 0.40 0.35 0.38 0.33 0.33 0.32 0.32 0.32 0.26 0.25 0.30 0.32 0.34 0.37 0.39 0.47 0.56 0.68 0.74 0.68 0.69 0.74 0.73 0.73 0.88 1.01 1.12 1.22 1.30 1.32 1.28 1.22 1.19 1.23 1.20 1.14 1.16 1.19 1.20
0.30 0.40 0.36 0.32 0.33 0.36 0.42 0.39 0.38 0.36 0.32 0.24 0.30 0.26 0.23 0.28 0.35 0.37 0.38 0.38 0.43 0.52 0.63 0.75 0.73 0.69 0.70 0.71 0.71 0.80 0.89 0.98 1.13 1.23 1.30 1.28 1.24 1.20 1.18 1.15 1.07 1.07 1.10 1.13
0.18 0.18 0.26 0.30 0.26 0.32 0.35 0.33 0.27 0.25 0.25 0.21 0.28 0.25 0.26 0.35 0.39 0.37 0.35 0.39 0.45 0.51 0.58 0.66 0.64 0.63 0.65 0.63 0.64 0.72 0.78 0.83 0.97 1.08 1.17 1.21 1.19 1.18 1.13 1.10 1.01 0.99 1.01 0.97
0.18 0.18 0.20 0.23 0.20 0.21 0.25 0.30 0.26 0.21 0.22 0.24 0.29 0.23 0.27 0.38 0.42 0.44 0.39 0.42 0.46 0.52 0.56 0.60 0.64 0.67 0.67 0.66 0.64 0.67 0.71 0.76 0.88 0.93 0.98 1.05 1.10 1.11 1.08 1.09 1.03 0.99 0.96 0.95
0.18 0.18 0.25 0.24 0.23 0.19 0.23 0.23 0.32 0.27 0.28 0.26 0.27 0.33 0.36 0.38 0.41 0.43 0.40 0.38 0.41 0.50 0.57 0.58 0.64 0.68 0.71 0.70 0.66 0.63 0.68 0.74 0.79 0.87 0.94 0.97 1.00 1.01 1.00 1.01 1.00 0.99 0.98 0.98
0.27 0.18 0.23 0.26 0.29 0.28 0.23 0.30 0.21 0.25 0.18 0.18 0.22 0.26 0.28 0.33 0.37 0.42 0.42 0.38 0.44 0.49 0.56 0.59 0.63 0.65 0.72 0.77 0.73 0.69 0.69 0.72 0.77 0.82 0.89 0.92 0.95 0.98 0.98 0.98 0.95 0.95 0.98 1.00
0.36 0.27 0.25 0.28 0.26 0.23 0.25 0.25 0.27 0.26 0.24 0.19 0.18 0.23 0.37 0.36 0.40 0.44 0.45 0.41 0.45 0.51 0.59 0.62 0.64 0.70 0.75 0.79 0.79 0.72 0.70 0.71 0.76 0.80 0.84 0.88 0.92 0.95 0.97 0.95 0.95 0.96 1.00 1.01
0.44 0.35 0.21 0.22 0.33 0.32 0.31 0.28 0.28 0.23 0.19 0.26 0.24 0.24 0.42 0.44 0.48 0.47 0.47 0.47 0.49 0.56 0.63 0.65 0.66 0.69 0.73 0.77 0.81 0.80 0.78 0.74 0.75 0.79 0.82 0.83 0.89 0.93 0.95 0.96 0.97 1.00 0.99 1.02
0.38 0.35 0.24 0.22 0.23 0.29 0.25 0.29 0.30 0.30 0.31 0.25 0.26 0.27 0.40 0.42 0.42 0.46 0.50 0.51 0.53 0.55 0.60 0.66 0.68 0.68 0.70 0.75 0.80 0.82 0.84 0.84 0.89 0.91 0.89 0.86 0.84 0.84 0.86 0.89 0.90 0.96 0.94 0.93
0.30 0.25 0.26 0.22 0.29 0.35 0.30 0.30 0.31 0.30 0.25 0.25 0.23 0.28 0.38 0.41 0.42 0.46 0.51 0.53 0.53 0.53 0.56 0.63 0.67 0.66 0.72 0.76 0.80 0.83 0.87 0.91 0.92 0.94 0.92 0.91 0.91 0.90 0.92 0.96 0.97 1.02 1.06 0.99
0.31 0.20 0.21 0.26 0.31 0.29 0.30 0.29 0.31 0.27 0.27 0.26 0.28 0.29 0.32 0.36 0.41 0.47 0.52 0.53 0.54 0.52 0.54 0.58 0.64 0.67 0.67 0.70 0.76 0.81 0.87 0.91 0.93 0.89 0.85 0.83 0.88 0.89 0.84 0.84 0.92 0.98 0.99 0.99
0.35 0.24 0.27 0.22 0.31 0.32 0.27 0.29 0.29 0.29 0.29 0.29 0.31 0.31 0.42 0.46 0.46 0.48 0.50 0.52 0.54 0.56 0.55 0.59 0.61 0.68 0.71 0.68 0.68 0.72 0.72 0.75 0.79 0.77 0.76 0.81 0.84 0.87 0.88 0.86 0.83 0.93 1.00 1.01
0.31 0.26 0.22 0.16 0.29 0.33 0.24 0.31 0.34 0.29 0.31 0.29 0.27 0.34 0.44 0.43 0.42 0.43 0.47 0.53 0.53 0.57 0.60 0.62 0.63 0.63 0.70 0.68 0.69 0.69 0.71 0.72 0.71 0.72 0.74 0.75 0.76 0.77 0.80 0.84 0.86 0.87 0.98 1.07
0.29 0.27 0.27 0.18 0.23 0.16 0.29 0.44 0.49 0.35 0.33 0.33 0.33 0.37 0.40 0.42 0.44 0.49 0.56 0.53 0.55 0.55 0.59 0.61 0.64 0.66 0.68 0.74 0.73 0.77 0.76 0.74 0.73 0.72 0.73 0.75 0.77 0.79 0.84 0.86 0.84 0.90 0.95 0.99
0.33 0.28 0.23 0.16 0.21 0.26 0.33 0.42 0.51 0.45 0.35 0.37 0.36 0.40 0.43 0.45 0.46 0.46 0.55 0.59 0.60 0.61 0.62 0.64 0.69 0.70 0.70 0.71 0.74 0.77 0.76 0.77 0.76 0.75 0.76 0.78 0.81 0.83 0.85 0.86 0.88 0.91 0.91 0.91
0.31 0.30 0.24 0.21 0.21 0.19 0.29 0.41 0.58 0.56 0.36 0.52 0.50 0.51 0.49 0.51 0.40 0.48 0.61 0.66 0.67 0.70 0.70 0.70 0.75 0.72 0.75 0.79 0.81 0.79 0.76 0.78 0.75 0.79 0.83 0.89 0.91 0.89 0.89 0.88 0.87 0.89 0.90 0.88
0.28 0.26 0.20 0.21 0.25 0.29 0.43 0.48 0.59 0.38 0.45 0.63 0.62 0.60 0.57 0.53 0.58 0.65 0.68 0.71 0.76 0.78 0.76 0.79 0.77 0.73 0.72 0.82 0.84 0.79 0.79 0.81 0.87 0.87 0.88 0.89 0.92 0.92 0.92 0.87 0.85 0.85 0.85 0.85
0.32 0.24 0.21 0.27 0.27 0.23 0.46 0.48 0.41 0.56 0.68 0.66 0.71 0.69 0.64 0.62 0.61 0.63 0.70 0.73 0.76 0.80 0.80 0.83 0.79 0.77 0.78 0.82 0.83 0.82 0.79 0.82 0.87 0.90 0.89 0.92 0.94 0.94 0.90 0.86 0.83 0.83 0.82 0.81
0.25 0.39 0.36 0.35 0.31 0.47 0.50 0.51 0.61 0.59 0.60 0.58 0.62 0.67 0.67 0.64 0.62 0.66 0.68 0.74 0.81 0.84 0.84 0.86 0.83 0.78 0.82 0.85 0.83 0.80 0.83 0.87 0.89 0.93 0.95 0.96 0.95 0.91 0.89 0.87 0.85 0.83 0.82 0.78
0.28 0.34 0.34 0.37 0.45 0.48 0.50 0.54 0.53 0.54 0.53 0.60 0.64 0.62 0.60 0.61 0.64 0.66 0.72 0.73 0.78 0.87 0.88 0.91 0.86 0.82 0.80 0.86 0.86 0.88 0.90 0.92 0.93 0.93 0.93 0.92 0.89 0.85 0.84 0.84 0.82 0.80 0.80 0.77
0.30 0.33 0.28 0.29 0.34 0.40 0.43 0.48 0.45 0.48 0.52 0.55 0.59 0.62 0.60 0.61 0.63 0.67 0.67 0.70 0.73 0.82 0.91 0.93 0.89 0.89 0.87 0.90 0.93 0.95 0.96 0.97 0.93 0.90 0.87 0.85 0.83 0.80 0.79 0.80 0.80 0.80 0.80 0.78
0.37 0.34 0.29 0.28 0.38 0.33 0.32 0.38 0.39 0.40 0.42 0.50 0.54 0.59 0.66 0.68 0.66 0.68 0.67 0.72 0.74 0.81 0.83 0.88 0.90 0.92 0.93 0.96 0.94 0.96 0.99 0.98 0.93 0.86 0.82 0.80 0.78 0.78 0.77 0.78 0.75 0.77 0.76 0.76